<?xml version="1.0" encoding="UTF-8" standalone="no" ?><gpx xmlns="http://www.topografix.com/GPX/1/1" xmlns:gpxx="http://www.garmin.com/xmlschemas/GpxExtensions/v3" xmlns:wptx1="http://www.garmin.com/xmlschemas/WaypointExtension/v1" xmlns:gpxtpx="http://www.garmin.com/xmlschemas/TrackPointExtension/v1" creator="GuideVTT.com" version="1.1" xmlns:xsi="http://www.w3.org/2001/XMLSchema-instance" xsi:schemaLocation="http://www.topografix.com/GPX/1/1 http://www.topografix.com/GPX/1/1/gpx.xsd http://www.garmin.com/xmlschemas/GpxExtensions/v3 http://www8.garmin.com/xmlschemas/GpxExtensionsv3.xsd http://www.garmin.com/xmlschemas/WaypointExtension/v1 http://www8.garmin.com/xmlschemas/WaypointExtensionv1.xsd http://www.garmin.com/xmlschemas/TrackPointExtension/v1 http://www.garmin.com/xmlschemas/TrackPointExtensionv1.xsd">
<metadata><link href="http://www.garmin.com"><text>Garmin International</text></link><time>2013-06-22T15:13:50Z</time></metadata>
<trk><name>00000_20110206.gpx</name><extensions><gpxx:TrackExtension><gpxx:DisplayColor>Cyan</gpxx:DisplayColor></gpxx:TrackExtension></extensions><trkseg>
<trkpt lat="43.875500" lon="5.400470"><ele>202.4</ele><time>2011-02-06T08:24:12Z</time></trkpt>
<trkpt lat="43.875450" lon="5.400573"><ele>201.1</ele><time>2011-02-06T08:24:16Z</time></trkpt>
<trkpt lat="43.875388" lon="5.400672"><ele>202.4</ele><time>2011-02-06T08:24:21Z</time></trkpt>
<trkpt lat="43.875313" lon="5.400723"><ele>203.1</ele><time>2011-02-06T08:24:26Z</time></trkpt>
<trkpt lat="43.875252" lon="5.400857"><ele>203.9</ele><time>2011-02-06T08:24:31Z</time></trkpt>
<trkpt lat="43.875222" lon="5.401075"><ele>204.5</ele><time>2011-02-06T08:24:36Z</time></trkpt>
<trkpt lat="43.875145" lon="5.401288"><ele>205</ele><time>2011-02-06T08:24:41Z</time></trkpt>
<trkpt lat="43.875030" lon="5.401462"><ele>205.2</ele><time>2011-02-06T08:24:46Z</time></trkpt>
<trkpt lat="43.874970" lon="5.401685"><ele>205.6</ele><time>2011-02-06T08:24:51Z</time></trkpt>
<trkpt lat="43.874638" lon="5.401605"><ele>226.6</ele><time>2011-02-06T08:24:56Z</time></trkpt>
<trkpt lat="43.874648" lon="5.401828"><ele>227.6</ele><time>2011-02-06T08:25:01Z</time></trkpt>
<trkpt lat="43.874675" lon="5.402047"><ele>228.1</ele><time>2011-02-06T08:25:06Z</time></trkpt>
<trkpt lat="43.874767" lon="5.402250"><ele>228.8</ele><time>2011-02-06T08:25:11Z</time></trkpt>
<trkpt lat="43.874832" lon="5.402415"><ele>230.4</ele><time>2011-02-06T08:25:16Z</time></trkpt>
<trkpt lat="43.874928" lon="5.402587"><ele>230.3</ele><time>2011-02-06T08:25:21Z</time></trkpt>
<trkpt lat="43.875008" lon="5.402772"><ele>231.1</ele><time>2011-02-06T08:25:26Z</time></trkpt>
<trkpt lat="43.875103" lon="5.402937"><ele>231.6</ele><time>2011-02-06T08:25:31Z</time></trkpt>
<trkpt lat="43.875202" lon="5.403107"><ele>232.2</ele><time>2011-02-06T08:25:36Z</time></trkpt>
<trkpt lat="43.875298" lon="5.403293"><ele>232.5</ele><time>2011-02-06T08:25:41Z</time></trkpt>
<trkpt lat="43.875405" lon="5.403495"><ele>232.7</ele><time>2011-02-06T08:25:46Z</time></trkpt>
<trkpt lat="43.875518" lon="5.403703"><ele>232.9</ele><time>2011-02-06T08:25:51Z</time></trkpt>
<trkpt lat="43.875583" lon="5.403892"><ele>236.4</ele><time>2011-02-06T08:25:56Z</time></trkpt>
<trkpt lat="43.875698" lon="5.404077"><ele>240.2</ele><time>2011-02-06T08:26:01Z</time></trkpt>
<trkpt lat="43.875808" lon="5.404293"><ele>239.2</ele><time>2011-02-06T08:26:06Z</time></trkpt>
<trkpt lat="43.875938" lon="5.404503"><ele>239.6</ele><time>2011-02-06T08:26:10Z</time></trkpt>
<trkpt lat="43.876042" lon="5.404700"><ele>240.5</ele><time>2011-02-06T08:26:15Z</time></trkpt>
<trkpt lat="43.876157" lon="5.404918"><ele>239.6</ele><time>2011-02-06T08:26:20Z</time></trkpt>
<trkpt lat="43.876263" lon="5.405127"><ele>240.3</ele><time>2011-02-06T08:26:25Z</time></trkpt>
<trkpt lat="43.876358" lon="5.405315"><ele>240.7</ele><time>2011-02-06T08:26:30Z</time></trkpt>
<trkpt lat="43.876450" lon="5.405497"><ele>240.3</ele><time>2011-02-06T08:26:35Z</time></trkpt>
<trkpt lat="43.876527" lon="5.405663"><ele>241.1</ele><time>2011-02-06T08:26:40Z</time></trkpt>
<trkpt lat="43.876580" lon="5.405795"><ele>243.9</ele><time>2011-02-06T08:26:45Z</time></trkpt>
<trkpt lat="43.876655" lon="5.405943"><ele>244.1</ele><time>2011-02-06T08:26:50Z</time></trkpt>
<trkpt lat="43.876717" lon="5.406077"><ele>246.4</ele><time>2011-02-06T08:26:55Z</time></trkpt>
<trkpt lat="43.876782" lon="5.406242"><ele>247.5</ele><time>2011-02-06T08:27:00Z</time></trkpt>
<trkpt lat="43.876835" lon="5.406437"><ele>246.1</ele><time>2011-02-06T08:27:05Z</time></trkpt>
<trkpt lat="43.876873" lon="5.406642"><ele>245.5</ele><time>2011-02-06T08:27:10Z</time></trkpt>
<trkpt lat="43.876903" lon="5.406850"><ele>244.3</ele><time>2011-02-06T08:27:15Z</time></trkpt>
<trkpt lat="43.876930" lon="5.407060"><ele>243.9</ele><time>2011-02-06T08:27:20Z</time></trkpt>
<trkpt lat="43.876957" lon="5.407265"><ele>243</ele><time>2011-02-06T08:27:25Z</time></trkpt>
<trkpt lat="43.877003" lon="5.407485"><ele>243.7</ele><time>2011-02-06T08:27:30Z</time></trkpt>
<trkpt lat="43.877033" lon="5.407695"><ele>243.8</ele><time>2011-02-06T08:27:35Z</time></trkpt>
<trkpt lat="43.877063" lon="5.407917"><ele>243.4</ele><time>2011-02-06T08:27:40Z</time></trkpt>
<trkpt lat="43.877095" lon="5.408147"><ele>242.7</ele><time>2011-02-06T08:27:45Z</time></trkpt>
<trkpt lat="43.877137" lon="5.408382"><ele>242.9</ele><time>2011-02-06T08:27:50Z</time></trkpt>
<trkpt lat="43.877175" lon="5.408608"><ele>242.4</ele><time>2011-02-06T08:27:55Z</time></trkpt>
<trkpt lat="43.877208" lon="5.408858"><ele>242.1</ele><time>2011-02-06T08:28:00Z</time></trkpt>
<trkpt lat="43.877240" lon="5.409107"><ele>241.6</ele><time>2011-02-06T08:28:05Z</time></trkpt>
<trkpt lat="43.877273" lon="5.409363"><ele>241.2</ele><time>2011-02-06T08:28:10Z</time></trkpt>
<trkpt lat="43.877297" lon="5.409567"><ele>241</ele><time>2011-02-06T08:28:15Z</time></trkpt>
<trkpt lat="43.877228" lon="5.409657"><ele>241.4</ele><time>2011-02-06T08:28:20Z</time></trkpt>
<trkpt lat="43.877117" lon="5.409673"><ele>242.2</ele><time>2011-02-06T08:28:25Z</time></trkpt>
<trkpt lat="43.877010" lon="5.409723"><ele>243.3</ele><time>2011-02-06T08:28:30Z</time></trkpt>
<trkpt lat="43.876918" lon="5.409813"><ele>244.5</ele><time>2011-02-06T08:28:35Z</time></trkpt>
<trkpt lat="43.876915" lon="5.409975"><ele>245.6</ele><time>2011-02-06T08:28:40Z</time></trkpt>
<trkpt lat="43.876903" lon="5.410132"><ele>247.1</ele><time>2011-02-06T08:28:45Z</time></trkpt>
<trkpt lat="43.876897" lon="5.410285"><ele>248</ele><time>2011-02-06T08:28:50Z</time></trkpt>
<trkpt lat="43.876885" lon="5.410443"><ele>248.3</ele><time>2011-02-06T08:28:55Z</time></trkpt>
<trkpt lat="43.876870" lon="5.410597"><ele>249.1</ele><time>2011-02-06T08:29:00Z</time></trkpt>
<trkpt lat="43.876850" lon="5.410747"><ele>250.4</ele><time>2011-02-06T08:29:05Z</time></trkpt>
<trkpt lat="43.876838" lon="5.410905"><ele>250.7</ele><time>2011-02-06T08:29:10Z</time></trkpt>
<trkpt lat="43.876827" lon="5.411065"><ele>250.6</ele><time>2011-02-06T08:29:15Z</time></trkpt>
<trkpt lat="43.876812" lon="5.411233"><ele>250.5</ele><time>2011-02-06T08:29:20Z</time></trkpt>
<trkpt lat="43.876788" lon="5.411393"><ele>250.2</ele><time>2011-02-06T08:29:25Z</time></trkpt>
<trkpt lat="43.876762" lon="5.411567"><ele>250.5</ele><time>2011-02-06T08:29:30Z</time></trkpt>
<trkpt lat="43.876725" lon="5.411723"><ele>250.9</ele><time>2011-02-06T08:29:35Z</time></trkpt>
<trkpt lat="43.876682" lon="5.411875"><ele>251.2</ele><time>2011-02-06T08:29:40Z</time></trkpt>
<trkpt lat="43.876625" lon="5.412022"><ele>251.5</ele><time>2011-02-06T08:29:45Z</time></trkpt>
<trkpt lat="43.876580" lon="5.412175"><ele>252.1</ele><time>2011-02-06T08:29:50Z</time></trkpt>
<trkpt lat="43.876542" lon="5.412330"><ele>252.7</ele><time>2011-02-06T08:29:55Z</time></trkpt>
<trkpt lat="43.876500" lon="5.412478"><ele>253.6</ele><time>2011-02-06T08:30:00Z</time></trkpt>
<trkpt lat="43.876457" lon="5.412618"><ele>254.6</ele><time>2011-02-06T08:30:05Z</time></trkpt>
<trkpt lat="43.876392" lon="5.412752"><ele>255.7</ele><time>2011-02-06T08:30:10Z</time></trkpt>
<trkpt lat="43.876332" lon="5.412883"><ele>257.1</ele><time>2011-02-06T08:30:15Z</time></trkpt>
<trkpt lat="43.876300" lon="5.413032"><ele>258.4</ele><time>2011-02-06T08:30:20Z</time></trkpt>
<trkpt lat="43.876335" lon="5.413183"><ele>259.4</ele><time>2011-02-06T08:30:25Z</time></trkpt>
<trkpt lat="43.876365" lon="5.413328"><ele>260.3</ele><time>2011-02-06T08:30:30Z</time></trkpt>
<trkpt lat="43.876397" lon="5.413473"><ele>261.1</ele><time>2011-02-06T08:30:35Z</time></trkpt>
<trkpt lat="43.876403" lon="5.413625"><ele>261.9</ele><time>2011-02-06T08:30:40Z</time></trkpt>
<trkpt lat="43.876397" lon="5.413783"><ele>262</ele><time>2011-02-06T08:30:45Z</time></trkpt>
<trkpt lat="43.876370" lon="5.413942"><ele>263</ele><time>2011-02-06T08:30:50Z</time></trkpt>
<trkpt lat="43.876350" lon="5.414107"><ele>263.6</ele><time>2011-02-06T08:30:55Z</time></trkpt>
<trkpt lat="43.876332" lon="5.414282"><ele>264.4</ele><time>2011-02-06T08:31:00Z</time></trkpt>
<trkpt lat="43.876282" lon="5.414443"><ele>264.8</ele><time>2011-02-06T08:31:05Z</time></trkpt>
<trkpt lat="43.876202" lon="5.414592"><ele>265</ele><time>2011-02-06T08:31:10Z</time></trkpt>
<trkpt lat="43.876122" lon="5.414733"><ele>265.5</ele><time>2011-02-06T08:31:15Z</time></trkpt>
<trkpt lat="43.876042" lon="5.414885"><ele>265.8</ele><time>2011-02-06T08:31:20Z</time></trkpt>
<trkpt lat="43.875973" lon="5.415045"><ele>266.2</ele><time>2011-02-06T08:31:25Z</time></trkpt>
<trkpt lat="43.875908" lon="5.415208"><ele>266.7</ele><time>2011-02-06T08:31:30Z</time></trkpt>
<trkpt lat="43.875847" lon="5.415378"><ele>267.7</ele><time>2011-02-06T08:31:35Z</time></trkpt>
<trkpt lat="43.875802" lon="5.415547"><ele>268.5</ele><time>2011-02-06T08:31:40Z</time></trkpt>
<trkpt lat="43.875755" lon="5.415713"><ele>269.3</ele><time>2011-02-06T08:31:45Z</time></trkpt>
<trkpt lat="43.875710" lon="5.415867"><ele>270.6</ele><time>2011-02-06T08:31:50Z</time></trkpt>
<trkpt lat="43.875717" lon="5.416025"><ele>270.9</ele><time>2011-02-06T08:31:55Z</time></trkpt>
<trkpt lat="43.875743" lon="5.416178"><ele>271.2</ele><time>2011-02-06T08:32:00Z</time></trkpt>
<trkpt lat="43.875782" lon="5.416330"><ele>271.1</ele><time>2011-02-06T08:32:05Z</time></trkpt>
<trkpt lat="43.875840" lon="5.416487"><ele>271.2</ele><time>2011-02-06T08:32:10Z</time></trkpt>
<trkpt lat="43.875888" lon="5.416625"><ele>271.2</ele><time>2011-02-06T08:32:15Z</time></trkpt>
<trkpt lat="43.875957" lon="5.416768"><ele>271.3</ele><time>2011-02-06T08:32:20Z</time></trkpt>
<trkpt lat="43.875968" lon="5.416932"><ele>271.7</ele><time>2011-02-06T08:32:25Z</time></trkpt>
<trkpt lat="43.875965" lon="5.417087"><ele>272.6</ele><time>2011-02-06T08:32:30Z</time></trkpt>
<trkpt lat="43.875942" lon="5.417242"><ele>273.4</ele><time>2011-02-06T08:32:35Z</time></trkpt>
<trkpt lat="43.875897" lon="5.417385"><ele>274.3</ele><time>2011-02-06T08:32:40Z</time></trkpt>
<trkpt lat="43.875862" lon="5.417515"><ele>275.7</ele><time>2011-02-06T08:32:45Z</time></trkpt>
<trkpt lat="43.875832" lon="5.417647"><ele>276.7</ele><time>2011-02-06T08:32:50Z</time></trkpt>
<trkpt lat="43.875808" lon="5.417785"><ele>277.2</ele><time>2011-02-06T08:32:55Z</time></trkpt>
<trkpt lat="43.875790" lon="5.417923"><ele>277.4</ele><time>2011-02-06T08:33:00Z</time></trkpt>
<trkpt lat="43.875813" lon="5.418067"><ele>277.8</ele><time>2011-02-06T08:33:05Z</time></trkpt>
<trkpt lat="43.875843" lon="5.418217"><ele>278.3</ele><time>2011-02-06T08:33:10Z</time></trkpt>
<trkpt lat="43.875862" lon="5.418370"><ele>278.7</ele><time>2011-02-06T08:33:15Z</time></trkpt>
<trkpt lat="43.875873" lon="5.418515"><ele>279.6</ele><time>2011-02-06T08:33:20Z</time></trkpt>
<trkpt lat="43.875873" lon="5.418637"><ele>280.2</ele><time>2011-02-06T08:33:25Z</time></trkpt>
<trkpt lat="43.875877" lon="5.418755"><ele>281.1</ele><time>2011-02-06T08:33:30Z</time></trkpt>
<trkpt lat="43.875882" lon="5.418868"><ele>283.5</ele><time>2011-02-06T08:33:35Z</time></trkpt>
<trkpt lat="43.875888" lon="5.418992"><ele>285.2</ele><time>2011-02-06T08:33:40Z</time></trkpt>
<trkpt lat="43.875877" lon="5.419107"><ele>286.8</ele><time>2011-02-06T08:33:45Z</time></trkpt>
<trkpt lat="43.875862" lon="5.419230"><ele>288.1</ele><time>2011-02-06T08:33:50Z</time></trkpt>
<trkpt lat="43.875840" lon="5.419342"><ele>288.3</ele><time>2011-02-06T08:33:55Z</time></trkpt>
<trkpt lat="43.875813" lon="5.419465"><ele>288</ele><time>2011-02-06T08:34:00Z</time></trkpt>
<trkpt lat="43.875775" lon="5.419565"><ele>287.6</ele><time>2011-02-06T08:34:05Z</time></trkpt>
<trkpt lat="43.875732" lon="5.419733"><ele>287.7</ele><time>2011-02-06T08:34:10Z</time></trkpt>
<trkpt lat="43.875687" lon="5.419935"><ele>287.9</ele><time>2011-02-06T08:34:15Z</time></trkpt>
<trkpt lat="43.875613" lon="5.420112"><ele>287.9</ele><time>2011-02-06T08:34:20Z</time></trkpt>
<trkpt lat="43.875572" lon="5.420310"><ele>288.3</ele><time>2011-02-06T08:34:25Z</time></trkpt>
<trkpt lat="43.875545" lon="5.420500"><ele>289.4</ele><time>2011-02-06T08:34:30Z</time></trkpt>
<trkpt lat="43.875507" lon="5.420698"><ele>291.6</ele><time>2011-02-06T08:34:35Z</time></trkpt>
<trkpt lat="43.875420" lon="5.420850"><ele>293.3</ele><time>2011-02-06T08:34:40Z</time></trkpt>
<trkpt lat="43.875347" lon="5.420982"><ele>294.1</ele><time>2011-02-06T08:34:45Z</time></trkpt>
<trkpt lat="43.875320" lon="5.421118"><ele>294</ele><time>2011-02-06T08:34:50Z</time></trkpt>
<trkpt lat="43.875335" lon="5.421263"><ele>292.4</ele><time>2011-02-06T08:34:55Z</time></trkpt>
<trkpt lat="43.875328" lon="5.421408"><ele>292.5</ele><time>2011-02-06T08:35:00Z</time></trkpt>
<trkpt lat="43.875290" lon="5.421527"><ele>292.5</ele><time>2011-02-06T08:35:05Z</time></trkpt>
<trkpt lat="43.875263" lon="5.421637"><ele>292.3</ele><time>2011-02-06T08:35:10Z</time></trkpt>
<trkpt lat="43.875248" lon="5.421753"><ele>292.5</ele><time>2011-02-06T08:35:15Z</time></trkpt>
<trkpt lat="43.875255" lon="5.421873"><ele>292.9</ele><time>2011-02-06T08:35:20Z</time></trkpt>
<trkpt lat="43.875287" lon="5.421982"><ele>293.4</ele><time>2011-02-06T08:35:25Z</time></trkpt>
<trkpt lat="43.875325" lon="5.422083"><ele>293.9</ele><time>2011-02-06T08:35:30Z</time></trkpt>
<trkpt lat="43.875347" lon="5.422190"><ele>294.1</ele><time>2011-02-06T08:35:35Z</time></trkpt>
<trkpt lat="43.875347" lon="5.422298"><ele>294.4</ele><time>2011-02-06T08:35:40Z</time></trkpt>
<trkpt lat="43.875335" lon="5.422402"><ele>294.8</ele><time>2011-02-06T08:35:45Z</time></trkpt>
<trkpt lat="43.875320" lon="5.422500"><ele>295.5</ele><time>2011-02-06T08:35:50Z</time></trkpt>
<trkpt lat="43.875308" lon="5.422602"><ele>295.5</ele><time>2011-02-06T08:35:55Z</time></trkpt>
<trkpt lat="43.875298" lon="5.422703"><ele>295.8</ele><time>2011-02-06T08:36:00Z</time></trkpt>
<trkpt lat="43.875290" lon="5.422803"><ele>296.3</ele><time>2011-02-06T08:36:05Z</time></trkpt>
<trkpt lat="43.875267" lon="5.422898"><ele>297.2</ele><time>2011-02-06T08:36:10Z</time></trkpt>
<trkpt lat="43.875240" lon="5.422997"><ele>298.1</ele><time>2011-02-06T08:36:15Z</time></trkpt>
<trkpt lat="43.875207" lon="5.423092"><ele>298.7</ele><time>2011-02-06T08:36:20Z</time></trkpt>
<trkpt lat="43.875175" lon="5.423193"><ele>299</ele><time>2011-02-06T08:36:25Z</time></trkpt>
<trkpt lat="43.875148" lon="5.423292"><ele>299.4</ele><time>2011-02-06T08:36:30Z</time></trkpt>
<trkpt lat="43.875122" lon="5.423393"><ele>300.1</ele><time>2011-02-06T08:36:35Z</time></trkpt>
<trkpt lat="43.875103" lon="5.423497"><ele>301</ele><time>2011-02-06T08:36:40Z</time></trkpt>
<trkpt lat="43.875092" lon="5.423602"><ele>301.6</ele><time>2011-02-06T08:36:45Z</time></trkpt>
<trkpt lat="43.875088" lon="5.423710"><ele>302.1</ele><time>2011-02-06T08:36:50Z</time></trkpt>
<trkpt lat="43.875080" lon="5.423818"><ele>302.9</ele><time>2011-02-06T08:36:55Z</time></trkpt>
<trkpt lat="43.875077" lon="5.423920"><ele>303.4</ele><time>2011-02-06T08:37:00Z</time></trkpt>
<trkpt lat="43.875077" lon="5.424027"><ele>303.5</ele><time>2011-02-06T08:37:05Z</time></trkpt>
<trkpt lat="43.875062" lon="5.424133"><ele>304</ele><time>2011-02-06T08:37:10Z</time></trkpt>
<trkpt lat="43.875038" lon="5.424238"><ele>304.6</ele><time>2011-02-06T08:37:15Z</time></trkpt>
<trkpt lat="43.875023" lon="5.424343"><ele>305.1</ele><time>2011-02-06T08:37:20Z</time></trkpt>
<trkpt lat="43.875003" lon="5.424448"><ele>305.8</ele><time>2011-02-06T08:37:25Z</time></trkpt>
<trkpt lat="43.874985" lon="5.424560"><ele>306.5</ele><time>2011-02-06T08:37:30Z</time></trkpt>
<trkpt lat="43.874965" lon="5.424672"><ele>307</ele><time>2011-02-06T08:37:35Z</time></trkpt>
<trkpt lat="43.874955" lon="5.424782"><ele>307.7</ele><time>2011-02-06T08:37:40Z</time></trkpt>
<trkpt lat="43.874938" lon="5.424888"><ele>308.2</ele><time>2011-02-06T08:37:45Z</time></trkpt>
<trkpt lat="43.874935" lon="5.425000"><ele>308.9</ele><time>2011-02-06T08:37:50Z</time></trkpt>
<trkpt lat="43.874955" lon="5.425105"><ele>310</ele><time>2011-02-06T08:37:55Z</time></trkpt>
<trkpt lat="43.874897" lon="5.425173"><ele>310.6</ele><time>2011-02-06T08:38:00Z</time></trkpt>
<trkpt lat="43.874813" lon="5.425210"><ele>311.3</ele><time>2011-02-06T08:38:05Z</time></trkpt>
<trkpt lat="43.874733" lon="5.425257"><ele>312.1</ele><time>2011-02-06T08:38:10Z</time></trkpt>
<trkpt lat="43.874648" lon="5.425315"><ele>312.9</ele><time>2011-02-06T08:38:15Z</time></trkpt>
<trkpt lat="43.874565" lon="5.425367"><ele>313.7</ele><time>2011-02-06T08:38:20Z</time></trkpt>
<trkpt lat="43.874477" lon="5.425423"><ele>314.5</ele><time>2011-02-06T08:38:25Z</time></trkpt>
<trkpt lat="43.874382" lon="5.425480"><ele>315.3</ele><time>2011-02-06T08:38:30Z</time></trkpt>
<trkpt lat="43.874290" lon="5.425533"><ele>316.1</ele><time>2011-02-06T08:38:35Z</time></trkpt>
<trkpt lat="43.874198" lon="5.425603"><ele>316.7</ele><time>2011-02-06T08:38:40Z</time></trkpt>
<trkpt lat="43.874103" lon="5.425662"><ele>317.4</ele><time>2011-02-06T08:38:45Z</time></trkpt>
<trkpt lat="43.874005" lon="5.425707"><ele>317.9</ele><time>2011-02-06T08:38:50Z</time></trkpt>
<trkpt lat="43.873905" lon="5.425748"><ele>318.6</ele><time>2011-02-06T08:38:55Z</time></trkpt>
<trkpt lat="43.873802" lon="5.425777"><ele>319.1</ele><time>2011-02-06T08:39:00Z</time></trkpt>
<trkpt lat="43.873703" lon="5.425803"><ele>320.1</ele><time>2011-02-06T08:39:05Z</time></trkpt>
<trkpt lat="43.873603" lon="5.425818"><ele>321.2</ele><time>2011-02-06T08:39:10Z</time></trkpt>
<trkpt lat="43.873505" lon="5.425793"><ele>322.3</ele><time>2011-02-06T08:39:15Z</time></trkpt>
<trkpt lat="43.873405" lon="5.425760"><ele>323.6</ele><time>2011-02-06T08:39:20Z</time></trkpt>
<trkpt lat="43.873307" lon="5.425717"><ele>324.9</ele><time>2011-02-06T08:39:25Z</time></trkpt>
<trkpt lat="43.873203" lon="5.425710"><ele>326</ele><time>2011-02-06T08:39:30Z</time></trkpt>
<trkpt lat="43.873153" lon="5.425825"><ele>327.1</ele><time>2011-02-06T08:39:35Z</time></trkpt>
<trkpt lat="43.873150" lon="5.425970"><ele>327.8</ele><time>2011-02-06T08:39:40Z</time></trkpt>
<trkpt lat="43.873150" lon="5.426113"><ele>328.6</ele><time>2011-02-06T08:39:45Z</time></trkpt>
<trkpt lat="43.873150" lon="5.426257"><ele>329.4</ele><time>2011-02-06T08:39:50Z</time></trkpt>
<trkpt lat="43.873150" lon="5.426403"><ele>330.2</ele><time>2011-02-06T08:39:55Z</time></trkpt>
<trkpt lat="43.873147" lon="5.426550"><ele>331</ele><time>2011-02-06T08:40:00Z</time></trkpt>
<trkpt lat="43.873147" lon="5.426698"><ele>331.7</ele><time>2011-02-06T08:40:05Z</time></trkpt>
<trkpt lat="43.873138" lon="5.426848"><ele>332.1</ele><time>2011-02-06T08:40:10Z</time></trkpt>
<trkpt lat="43.873070" lon="5.426938"><ele>332.7</ele><time>2011-02-06T08:40:15Z</time></trkpt>
<trkpt lat="43.872967" lon="5.426905"><ele>333.5</ele><time>2011-02-06T08:40:20Z</time></trkpt>
<trkpt lat="43.872875" lon="5.426825"><ele>334.3</ele><time>2011-02-06T08:40:25Z</time></trkpt>
<trkpt lat="43.872780" lon="5.426745"><ele>335.1</ele><time>2011-02-06T08:40:30Z</time></trkpt>
<trkpt lat="43.872688" lon="5.426672"><ele>335.9</ele><time>2011-02-06T08:40:35Z</time></trkpt>
<trkpt lat="43.872600" lon="5.426597"><ele>336.7</ele><time>2011-02-06T08:40:40Z</time></trkpt>
<trkpt lat="43.872508" lon="5.426523"><ele>337.4</ele><time>2011-02-06T08:40:45Z</time></trkpt>
<trkpt lat="43.872422" lon="5.426443"><ele>338.1</ele><time>2011-02-06T08:40:50Z</time></trkpt>
<trkpt lat="43.872333" lon="5.426353"><ele>338.9</ele><time>2011-02-06T08:40:55Z</time></trkpt>
<trkpt lat="43.872265" lon="5.426232"><ele>339.6</ele><time>2011-02-06T08:41:00Z</time></trkpt>
<trkpt lat="43.872218" lon="5.426087"><ele>340.2</ele><time>2011-02-06T08:41:05Z</time></trkpt>
<trkpt lat="43.872188" lon="5.425915"><ele>340.5</ele><time>2011-02-06T08:41:10Z</time></trkpt>
<trkpt lat="43.872147" lon="5.425748"><ele>340.8</ele><time>2011-02-06T08:41:15Z</time></trkpt>
<trkpt lat="43.872108" lon="5.425590"><ele>341.4</ele><time>2011-02-06T08:41:20Z</time></trkpt>
<trkpt lat="43.872052" lon="5.425437"><ele>342.3</ele><time>2011-02-06T08:41:25Z</time></trkpt>
<trkpt lat="43.871963" lon="5.425330"><ele>343.4</ele><time>2011-02-06T08:41:30Z</time></trkpt>
<trkpt lat="43.871880" lon="5.425235"><ele>344.5</ele><time>2011-02-06T08:41:35Z</time></trkpt>
<trkpt lat="43.871792" lon="5.425150"><ele>345.8</ele><time>2011-02-06T08:41:40Z</time></trkpt>
<trkpt lat="43.871703" lon="5.425077"><ele>347.1</ele><time>2011-02-06T08:41:45Z</time></trkpt>
<trkpt lat="43.871620" lon="5.425027"><ele>348.3</ele><time>2011-02-06T08:41:50Z</time></trkpt>
<trkpt lat="43.871540" lon="5.424978"><ele>349.2</ele><time>2011-02-06T08:41:55Z</time></trkpt>
<trkpt lat="43.871460" lon="5.424932"><ele>350.2</ele><time>2011-02-06T08:42:00Z</time></trkpt>
<trkpt lat="43.871377" lon="5.424883"><ele>351</ele><time>2011-02-06T08:42:05Z</time></trkpt>
<trkpt lat="43.871288" lon="5.424853"><ele>352</ele><time>2011-02-06T08:42:10Z</time></trkpt>
<trkpt lat="43.871208" lon="5.424813"><ele>352.9</ele><time>2011-02-06T08:42:15Z</time></trkpt>
<trkpt lat="43.871120" lon="5.424772"><ele>353.7</ele><time>2011-02-06T08:42:20Z</time></trkpt>
<trkpt lat="43.871025" lon="5.424718"><ele>353.9</ele><time>2011-02-06T08:42:25Z</time></trkpt>
<trkpt lat="43.870915" lon="5.424632"><ele>354.1</ele><time>2011-02-06T08:42:30Z</time></trkpt>
<trkpt lat="43.870800" lon="5.424482"><ele>353.7</ele><time>2011-02-06T08:42:35Z</time></trkpt>
<trkpt lat="43.870663" lon="5.424303"><ele>353.3</ele><time>2011-02-06T08:42:40Z</time></trkpt>
<trkpt lat="43.870525" lon="5.424120"><ele>352.9</ele><time>2011-02-06T08:42:45Z</time></trkpt>
<trkpt lat="43.870392" lon="5.423947"><ele>352.7</ele><time>2011-02-06T08:42:50Z</time></trkpt>
<trkpt lat="43.870270" lon="5.423770"><ele>353.1</ele><time>2011-02-06T08:42:55Z</time></trkpt>
<trkpt lat="43.870187" lon="5.423578"><ele>354.1</ele><time>2011-02-06T08:43:00Z</time></trkpt>
<trkpt lat="43.870140" lon="5.423378"><ele>355.6</ele><time>2011-02-06T08:43:05Z</time></trkpt>
<trkpt lat="43.870140" lon="5.423168"><ele>356.6</ele><time>2011-02-06T08:43:10Z</time></trkpt>
<trkpt lat="43.870140" lon="5.422958"><ele>357.9</ele><time>2011-02-06T08:43:15Z</time></trkpt>
<trkpt lat="43.870137" lon="5.422742"><ele>358.9</ele><time>2011-02-06T08:43:20Z</time></trkpt>
<trkpt lat="43.870110" lon="5.422523"><ele>359.9</ele><time>2011-02-06T08:43:25Z</time></trkpt>
<trkpt lat="43.870140" lon="5.422310"><ele>360.9</ele><time>2011-02-06T08:43:30Z</time></trkpt>
<trkpt lat="43.870197" lon="5.422107"><ele>362</ele><time>2011-02-06T08:43:35Z</time></trkpt>
<trkpt lat="43.870128" lon="5.421967"><ele>362.9</ele><time>2011-02-06T08:43:40Z</time></trkpt>
<trkpt lat="43.870037" lon="5.422095"><ele>363.6</ele><time>2011-02-06T08:43:45Z</time></trkpt>
<trkpt lat="43.869960" lon="5.422252"><ele>364.3</ele><time>2011-02-06T08:43:50Z</time></trkpt>
<trkpt lat="43.869888" lon="5.422395"><ele>365.3</ele><time>2011-02-06T08:43:55Z</time></trkpt>
<trkpt lat="43.869800" lon="5.422495"><ele>366.3</ele><time>2011-02-06T08:44:00Z</time></trkpt>
<trkpt lat="43.869702" lon="5.422558"><ele>367.5</ele><time>2011-02-06T08:44:05Z</time></trkpt>
<trkpt lat="43.869602" lon="5.422623"><ele>368.4</ele><time>2011-02-06T08:44:10Z</time></trkpt>
<trkpt lat="43.869495" lon="5.422632"><ele>369</ele><time>2011-02-06T08:44:15Z</time></trkpt>
<trkpt lat="43.869403" lon="5.422557"><ele>370.1</ele><time>2011-02-06T08:44:20Z</time></trkpt>
<trkpt lat="43.869332" lon="5.422435"><ele>370.8</ele><time>2011-02-06T08:44:25Z</time></trkpt>
<trkpt lat="43.869263" lon="5.422310"><ele>371.9</ele><time>2011-02-06T08:44:30Z</time></trkpt>
<trkpt lat="43.869190" lon="5.422192"><ele>372.7</ele><time>2011-02-06T08:44:35Z</time></trkpt>
<trkpt lat="43.869083" lon="5.422095"><ele>372.7</ele><time>2011-02-06T08:44:40Z</time></trkpt>
<trkpt lat="43.868912" lon="5.422032"><ele>371.9</ele><time>2011-02-06T08:44:45Z</time></trkpt>
<trkpt lat="43.868672" lon="5.421902"><ele>370</ele><time>2011-02-06T08:44:50Z</time></trkpt>
<trkpt lat="43.868408" lon="5.421735"><ele>369</ele><time>2011-02-06T08:44:55Z</time></trkpt>
<trkpt lat="43.868210" lon="5.421633"><ele>369.5</ele><time>2011-02-06T08:45:00Z</time></trkpt>
<trkpt lat="43.868080" lon="5.421637"><ele>369.9</ele><time>2011-02-06T08:45:05Z</time></trkpt>
<trkpt lat="43.867970" lon="5.421742"><ele>370.9</ele><time>2011-02-06T08:45:10Z</time></trkpt>
<trkpt lat="43.867855" lon="5.421837"><ele>371.6</ele><time>2011-02-06T08:45:15Z</time></trkpt>
<trkpt lat="43.867733" lon="5.421830"><ele>372.7</ele><time>2011-02-06T08:45:20Z</time></trkpt>
<trkpt lat="43.867607" lon="5.421783"><ele>373.8</ele><time>2011-02-06T08:45:25Z</time></trkpt>
<trkpt lat="43.867482" lon="5.421733"><ele>375</ele><time>2011-02-06T08:45:30Z</time></trkpt>
<trkpt lat="43.867348" lon="5.421688"><ele>376.1</ele><time>2011-02-06T08:45:35Z</time></trkpt>
<trkpt lat="43.867207" lon="5.421640"><ele>376</ele><time>2011-02-06T08:45:40Z</time></trkpt>
<trkpt lat="43.867070" lon="5.421598"><ele>376.8</ele><time>2011-02-06T08:45:45Z</time></trkpt>
<trkpt lat="43.866925" lon="5.421572"><ele>377.6</ele><time>2011-02-06T08:45:50Z</time></trkpt>
<trkpt lat="43.866825" lon="5.421603"><ele>378.7</ele><time>2011-02-06T08:45:55Z</time></trkpt>
<trkpt lat="43.866810" lon="5.421700"><ele>379.3</ele><time>2011-02-06T08:46:00Z</time></trkpt>
<trkpt lat="43.866867" lon="5.421785"><ele>380.4</ele><time>2011-02-06T08:46:05Z</time></trkpt>
<trkpt lat="43.866940" lon="5.421857"><ele>381.4</ele><time>2011-02-06T08:46:10Z</time></trkpt>
<trkpt lat="43.866985" lon="5.421952"><ele>382</ele><time>2011-02-06T08:46:15Z</time></trkpt>
<trkpt lat="43.866940" lon="5.422045"><ele>382.9</ele><time>2011-02-06T08:46:20Z</time></trkpt>
<trkpt lat="43.866848" lon="5.422065"><ele>383.2</ele><time>2011-02-06T08:46:25Z</time></trkpt>
<trkpt lat="43.866763" lon="5.422080"><ele>384.3</ele><time>2011-02-06T08:46:30Z</time></trkpt>
<trkpt lat="43.866680" lon="5.422115"><ele>385.6</ele><time>2011-02-06T08:46:35Z</time></trkpt>
<trkpt lat="43.866597" lon="5.422172"><ele>386.4</ele><time>2011-02-06T08:46:40Z</time></trkpt>
<trkpt lat="43.866520" lon="5.422255"><ele>387.8</ele><time>2011-02-06T08:46:45Z</time></trkpt>
<trkpt lat="43.866440" lon="5.422348"><ele>388.5</ele><time>2011-02-06T08:46:50Z</time></trkpt>
<trkpt lat="43.866363" lon="5.422450"><ele>389.4</ele><time>2011-02-06T08:46:55Z</time></trkpt>
<trkpt lat="43.866310" lon="5.422573"><ele>390</ele><time>2011-02-06T08:47:00Z</time></trkpt>
<trkpt lat="43.866292" lon="5.422713"><ele>390.7</ele><time>2011-02-06T08:47:05Z</time></trkpt>
<trkpt lat="43.866287" lon="5.422852"><ele>391.4</ele><time>2011-02-06T08:47:10Z</time></trkpt>
<trkpt lat="43.866275" lon="5.422993"><ele>392</ele><time>2011-02-06T08:47:15Z</time></trkpt>
<trkpt lat="43.866265" lon="5.423137"><ele>392.7</ele><time>2011-02-06T08:47:20Z</time></trkpt>
<trkpt lat="43.866238" lon="5.423277"><ele>393.5</ele><time>2011-02-06T08:47:25Z</time></trkpt>
<trkpt lat="43.866142" lon="5.423362"><ele>394.2</ele><time>2011-02-06T08:47:30Z</time></trkpt>
<trkpt lat="43.866032" lon="5.423362"><ele>394.5</ele><time>2011-02-06T08:47:35Z</time></trkpt>
<trkpt lat="43.865917" lon="5.423328"><ele>394.7</ele><time>2011-02-06T08:47:40Z</time></trkpt>
<trkpt lat="43.865795" lon="5.423310"><ele>395.1</ele><time>2011-02-06T08:47:45Z</time></trkpt>
<trkpt lat="43.865665" lon="5.423303"><ele>395.5</ele><time>2011-02-06T08:47:50Z</time></trkpt>
<trkpt lat="43.865513" lon="5.423300"><ele>395.4</ele><time>2011-02-06T08:47:55Z</time></trkpt>
<trkpt lat="43.865327" lon="5.423295"><ele>395.2</ele><time>2011-02-06T08:48:00Z</time></trkpt>
<trkpt lat="43.865128" lon="5.423280"><ele>394.8</ele><time>2011-02-06T08:48:05Z</time></trkpt>
<trkpt lat="43.864933" lon="5.423275"><ele>394.4</ele><time>2011-02-06T08:48:10Z</time></trkpt>
<trkpt lat="43.864738" lon="5.423260"><ele>393.8</ele><time>2011-02-06T08:48:15Z</time></trkpt>
<trkpt lat="43.864555" lon="5.423235"><ele>393.5</ele><time>2011-02-06T08:48:20Z</time></trkpt>
<trkpt lat="43.864398" lon="5.423162"><ele>393.5</ele><time>2011-02-06T08:48:25Z</time></trkpt>
<trkpt lat="43.864253" lon="5.423073"><ele>394.1</ele><time>2011-02-06T08:48:30Z</time></trkpt>
<trkpt lat="43.864098" lon="5.423072"><ele>395</ele><time>2011-02-06T08:48:35Z</time></trkpt>
<trkpt lat="43.863933" lon="5.423112"><ele>395.7</ele><time>2011-02-06T08:48:40Z</time></trkpt>
<trkpt lat="43.863785" lon="5.423187"><ele>396.2</ele><time>2011-02-06T08:48:45Z</time></trkpt>
<trkpt lat="43.863628" lon="5.423233"><ele>396.7</ele><time>2011-02-06T08:48:50Z</time></trkpt>
<trkpt lat="43.863480" lon="5.423273"><ele>397.7</ele><time>2011-02-06T08:48:55Z</time></trkpt>
<trkpt lat="43.863347" lon="5.423310"><ele>398.6</ele><time>2011-02-06T08:49:00Z</time></trkpt>
<trkpt lat="43.863217" lon="5.423352"><ele>399.3</ele><time>2011-02-06T08:49:05Z</time></trkpt>
<trkpt lat="43.863098" lon="5.423407"><ele>400.1</ele><time>2011-02-06T08:49:10Z</time></trkpt>
<trkpt lat="43.862983" lon="5.423498"><ele>400.4</ele><time>2011-02-06T08:49:15Z</time></trkpt>
<trkpt lat="43.862853" lon="5.423618"><ele>400</ele><time>2011-02-06T08:49:20Z</time></trkpt>
<trkpt lat="43.862735" lon="5.423745"><ele>399.9</ele><time>2011-02-06T08:49:25Z</time></trkpt>
<trkpt lat="43.862598" lon="5.423822"><ele>399.9</ele><time>2011-02-06T08:49:30Z</time></trkpt>
<trkpt lat="43.862457" lon="5.423770"><ele>400.3</ele><time>2011-02-06T08:49:35Z</time></trkpt>
<trkpt lat="43.862347" lon="5.423630"><ele>401.1</ele><time>2011-02-06T08:49:40Z</time></trkpt>
<trkpt lat="43.862247" lon="5.423492"><ele>401.9</ele><time>2011-02-06T08:49:45Z</time></trkpt>
<trkpt lat="43.862152" lon="5.423362"><ele>403.3</ele><time>2011-02-06T08:49:50Z</time></trkpt>
<trkpt lat="43.862053" lon="5.423262"><ele>404.6</ele><time>2011-02-06T08:49:55Z</time></trkpt>
<trkpt lat="43.861942" lon="5.423185"><ele>405.5</ele><time>2011-02-06T08:50:00Z</time></trkpt>
<trkpt lat="43.861823" lon="5.423162"><ele>406.5</ele><time>2011-02-06T08:50:05Z</time></trkpt>
<trkpt lat="43.861722" lon="5.423177"><ele>407.5</ele><time>2011-02-06T08:50:10Z</time></trkpt>
<trkpt lat="43.861625" lon="5.423162"><ele>408.7</ele><time>2011-02-06T08:50:15Z</time></trkpt>
<trkpt lat="43.861538" lon="5.423117"><ele>409.8</ele><time>2011-02-06T08:50:20Z</time></trkpt>
<trkpt lat="43.861462" lon="5.423055"><ele>410.8</ele><time>2011-02-06T08:50:25Z</time></trkpt>
<trkpt lat="43.861378" lon="5.423000"><ele>411.7</ele><time>2011-02-06T08:50:30Z</time></trkpt>
<trkpt lat="43.861305" lon="5.422948"><ele>412.8</ele><time>2011-02-06T08:50:35Z</time></trkpt>
<trkpt lat="43.861233" lon="5.422903"><ele>413.9</ele><time>2011-02-06T08:50:40Z</time></trkpt>
<trkpt lat="43.861168" lon="5.422860"><ele>415.6</ele><time>2011-02-06T08:50:45Z</time></trkpt>
<trkpt lat="43.861095" lon="5.422825"><ele>416.9</ele><time>2011-02-06T08:50:50Z</time></trkpt>
<trkpt lat="43.861018" lon="5.422788"><ele>418.3</ele><time>2011-02-06T08:50:55Z</time></trkpt>
<trkpt lat="43.860947" lon="5.422760"><ele>419.2</ele><time>2011-02-06T08:51:00Z</time></trkpt>
<trkpt lat="43.860878" lon="5.422813"><ele>419.7</ele><time>2011-02-06T08:51:05Z</time></trkpt>
<trkpt lat="43.860893" lon="5.422918"><ele>420.1</ele><time>2011-02-06T08:51:10Z</time></trkpt>
<trkpt lat="43.860912" lon="5.423023"><ele>420.4</ele><time>2011-02-06T08:51:15Z</time></trkpt>
<trkpt lat="43.860935" lon="5.423142"><ele>420.9</ele><time>2011-02-06T08:51:20Z</time></trkpt>
<trkpt lat="43.860947" lon="5.423270"><ele>421.4</ele><time>2011-02-06T08:51:25Z</time></trkpt>
<trkpt lat="43.860970" lon="5.423400"><ele>421.9</ele><time>2011-02-06T08:51:30Z</time></trkpt>
<trkpt lat="43.860985" lon="5.423528"><ele>422.5</ele><time>2011-02-06T08:51:35Z</time></trkpt>
<trkpt lat="43.861003" lon="5.423653"><ele>423.2</ele><time>2011-02-06T08:51:40Z</time></trkpt>
<trkpt lat="43.861018" lon="5.423780"><ele>423.9</ele><time>2011-02-06T08:51:45Z</time></trkpt>
<trkpt lat="43.861042" lon="5.423903"><ele>424.7</ele><time>2011-02-06T08:51:50Z</time></trkpt>
<trkpt lat="43.861050" lon="5.424033"><ele>425.3</ele><time>2011-02-06T08:51:55Z</time></trkpt>
<trkpt lat="43.861065" lon="5.424155"><ele>425.9</ele><time>2011-02-06T08:52:00Z</time></trkpt>
<trkpt lat="43.861077" lon="5.424278"><ele>426.6</ele><time>2011-02-06T08:52:05Z</time></trkpt>
<trkpt lat="43.861095" lon="5.424402"><ele>427.2</ele><time>2011-02-06T08:52:10Z</time></trkpt>
<trkpt lat="43.861107" lon="5.424528"><ele>427.8</ele><time>2011-02-06T08:52:15Z</time></trkpt>
<trkpt lat="43.861133" lon="5.424655"><ele>428.3</ele><time>2011-02-06T08:52:20Z</time></trkpt>
<trkpt lat="43.861153" lon="5.424782"><ele>429</ele><time>2011-02-06T08:52:25Z</time></trkpt>
<trkpt lat="43.861172" lon="5.424907"><ele>429.7</ele><time>2011-02-06T08:52:30Z</time></trkpt>
<trkpt lat="43.861213" lon="5.425028"><ele>430.3</ele><time>2011-02-06T08:52:35Z</time></trkpt>
<trkpt lat="43.861267" lon="5.425138"><ele>431</ele><time>2011-02-06T08:52:40Z</time></trkpt>
<trkpt lat="43.861328" lon="5.425237"><ele>431.7</ele><time>2011-02-06T08:52:45Z</time></trkpt>
<trkpt lat="43.861400" lon="5.425323"><ele>432.4</ele><time>2011-02-06T08:52:50Z</time></trkpt>
<trkpt lat="43.861477" lon="5.425407"><ele>433.1</ele><time>2011-02-06T08:52:55Z</time></trkpt>
<trkpt lat="43.861553" lon="5.425482"><ele>433.8</ele><time>2011-02-06T08:53:00Z</time></trkpt>
<trkpt lat="43.861630" lon="5.425562"><ele>434.6</ele><time>2011-02-06T08:53:05Z</time></trkpt>
<trkpt lat="43.861713" lon="5.425648"><ele>435.6</ele><time>2011-02-06T08:53:10Z</time></trkpt>
<trkpt lat="43.861797" lon="5.425738"><ele>436.6</ele><time>2011-02-06T08:53:15Z</time></trkpt>
<trkpt lat="43.861885" lon="5.425825"><ele>437.7</ele><time>2011-02-06T08:53:20Z</time></trkpt>
<trkpt lat="43.861965" lon="5.425912"><ele>438.6</ele><time>2011-02-06T08:53:25Z</time></trkpt>
<trkpt lat="43.862048" lon="5.425997"><ele>439.7</ele><time>2011-02-06T08:53:30Z</time></trkpt>
<trkpt lat="43.862122" lon="5.426078"><ele>441</ele><time>2011-02-06T08:53:35Z</time></trkpt>
<trkpt lat="43.862205" lon="5.426160"><ele>442.1</ele><time>2011-02-06T08:53:40Z</time></trkpt>
<trkpt lat="43.862285" lon="5.426243"><ele>443.3</ele><time>2011-02-06T08:53:45Z</time></trkpt>
<trkpt lat="43.862370" lon="5.426325"><ele>444.5</ele><time>2011-02-06T08:53:50Z</time></trkpt>
<trkpt lat="43.862450" lon="5.426407"><ele>445.7</ele><time>2011-02-06T08:53:55Z</time></trkpt>
<trkpt lat="43.862533" lon="5.426490"><ele>446.9</ele><time>2011-02-06T08:54:00Z</time></trkpt>
<trkpt lat="43.862613" lon="5.426575"><ele>447.9</ele><time>2011-02-06T08:54:05Z</time></trkpt>
<trkpt lat="43.862693" lon="5.426668"><ele>448.9</ele><time>2011-02-06T08:54:10Z</time></trkpt>
<trkpt lat="43.862743" lon="5.426797"><ele>450.1</ele><time>2011-02-06T08:54:15Z</time></trkpt>
<trkpt lat="43.862805" lon="5.426908"><ele>450.9</ele><time>2011-02-06T08:54:20Z</time></trkpt>
<trkpt lat="43.862907" lon="5.426930"><ele>451.5</ele><time>2011-02-06T08:54:25Z</time></trkpt>
<trkpt lat="43.862998" lon="5.426985"><ele>452.7</ele><time>2011-02-06T08:54:30Z</time></trkpt>
<trkpt lat="43.863090" lon="5.427030"><ele>453.5</ele><time>2011-02-06T08:54:35Z</time></trkpt>
<trkpt lat="43.863187" lon="5.427037"><ele>454.1</ele><time>2011-02-06T08:54:40Z</time></trkpt>
<trkpt lat="43.863285" lon="5.427025"><ele>454.8</ele><time>2011-02-06T08:54:45Z</time></trkpt>
<trkpt lat="43.863373" lon="5.427012"><ele>455.5</ele><time>2011-02-06T08:54:50Z</time></trkpt>
<trkpt lat="43.863465" lon="5.427000"><ele>456.3</ele><time>2011-02-06T08:54:55Z</time></trkpt>
<trkpt lat="43.863552" lon="5.426987"><ele>457.1</ele><time>2011-02-06T08:55:00Z</time></trkpt>
<trkpt lat="43.863647" lon="5.426975"><ele>458</ele><time>2011-02-06T08:55:05Z</time></trkpt>
<trkpt lat="43.863735" lon="5.426960"><ele>458.9</ele><time>2011-02-06T08:55:10Z</time></trkpt>
<trkpt lat="43.863827" lon="5.426952"><ele>459.9</ele><time>2011-02-06T08:55:15Z</time></trkpt>
<trkpt lat="43.863910" lon="5.426932"><ele>461.6</ele><time>2011-02-06T08:55:20Z</time></trkpt>
<trkpt lat="43.864002" lon="5.426920"><ele>462.2</ele><time>2011-02-06T08:55:25Z</time></trkpt>
<trkpt lat="43.864090" lon="5.426898"><ele>463.2</ele><time>2011-02-06T08:55:30Z</time></trkpt>
<trkpt lat="43.864178" lon="5.426915"><ele>464.3</ele><time>2011-02-06T08:55:35Z</time></trkpt>
<trkpt lat="43.864140" lon="5.427003"><ele>465</ele><time>2011-02-06T08:55:40Z</time></trkpt>
<trkpt lat="43.864075" lon="5.427075"><ele>465.8</ele><time>2011-02-06T08:55:45Z</time></trkpt>
<trkpt lat="43.864017" lon="5.427172"><ele>466.7</ele><time>2011-02-06T08:55:50Z</time></trkpt>
<trkpt lat="43.863953" lon="5.427250"><ele>467.3</ele><time>2011-02-06T08:55:55Z</time></trkpt>
<trkpt lat="43.863883" lon="5.427327"><ele>468.2</ele><time>2011-02-06T08:56:00Z</time></trkpt>
<trkpt lat="43.863815" lon="5.427407"><ele>469</ele><time>2011-02-06T08:56:05Z</time></trkpt>
<trkpt lat="43.863747" lon="5.427487"><ele>469.7</ele><time>2011-02-06T08:56:10Z</time></trkpt>
<trkpt lat="43.863682" lon="5.427575"><ele>470.8</ele><time>2011-02-06T08:56:15Z</time></trkpt>
<trkpt lat="43.863610" lon="5.427658"><ele>471.6</ele><time>2011-02-06T08:56:20Z</time></trkpt>
<trkpt lat="43.863548" lon="5.427755"><ele>472.3</ele><time>2011-02-06T08:56:25Z</time></trkpt>
<trkpt lat="43.863503" lon="5.427865"><ele>473.2</ele><time>2011-02-06T08:56:30Z</time></trkpt>
<trkpt lat="43.863468" lon="5.427988"><ele>474.2</ele><time>2011-02-06T08:56:35Z</time></trkpt>
<trkpt lat="43.863427" lon="5.428108"><ele>475.1</ele><time>2011-02-06T08:56:40Z</time></trkpt>
<trkpt lat="43.863365" lon="5.428212"><ele>475.9</ele><time>2011-02-06T08:56:45Z</time></trkpt>
<trkpt lat="43.863308" lon="5.428312"><ele>476.8</ele><time>2011-02-06T08:56:50Z</time></trkpt>
<trkpt lat="43.863267" lon="5.428422"><ele>478.5</ele><time>2011-02-06T08:56:55Z</time></trkpt>
<trkpt lat="43.863202" lon="5.428510"><ele>480.9</ele><time>2011-02-06T08:57:00Z</time></trkpt>
<trkpt lat="43.863128" lon="5.428588"><ele>482.5</ele><time>2011-02-06T08:57:05Z</time></trkpt>
<trkpt lat="43.863052" lon="5.428668"><ele>483.9</ele><time>2011-02-06T08:57:10Z</time></trkpt>
<trkpt lat="43.862995" lon="5.428748"><ele>484.9</ele><time>2011-02-06T08:57:15Z</time></trkpt>
<trkpt lat="43.862950" lon="5.428843"><ele>486.6</ele><time>2011-02-06T08:57:20Z</time></trkpt>
<trkpt lat="43.862880" lon="5.428933"><ele>486</ele><time>2011-02-06T08:57:25Z</time></trkpt>
<trkpt lat="43.862900" lon="5.429035"><ele>491.4</ele><time>2011-02-06T08:57:30Z</time></trkpt>
<trkpt lat="43.862793" lon="5.429092"><ele>496.3</ele><time>2011-02-06T08:57:35Z</time></trkpt>
<trkpt lat="43.862758" lon="5.429218"><ele>496.4</ele><time>2011-02-06T08:57:40Z</time></trkpt>
<trkpt lat="43.862708" lon="5.429332"><ele>498.1</ele><time>2011-02-06T08:57:45Z</time></trkpt>
<trkpt lat="43.862607" lon="5.429408"><ele>499.4</ele><time>2011-02-06T08:57:50Z</time></trkpt>
<trkpt lat="43.862483" lon="5.429483"><ele>499.7</ele><time>2011-02-06T08:57:55Z</time></trkpt>
<trkpt lat="43.862382" lon="5.429573"><ele>498.9</ele><time>2011-02-06T08:58:00Z</time></trkpt>
<trkpt lat="43.862247" lon="5.429685"><ele>497.4</ele><time>2011-02-06T08:58:05Z</time></trkpt>
<trkpt lat="43.862133" lon="5.429787"><ele>493.2</ele><time>2011-02-06T08:58:10Z</time></trkpt>
<trkpt lat="43.862007" lon="5.429843"><ele>493.6</ele><time>2011-02-06T08:58:15Z</time></trkpt>
<trkpt lat="43.861888" lon="5.429897"><ele>494.4</ele><time>2011-02-06T08:58:20Z</time></trkpt>
<trkpt lat="43.861787" lon="5.429915"><ele>493.5</ele><time>2011-02-06T08:58:25Z</time></trkpt>
<trkpt lat="43.861695" lon="5.429935"><ele>493.2</ele><time>2011-02-06T08:58:30Z</time></trkpt>
<trkpt lat="43.861610" lon="5.429973"><ele>493.2</ele><time>2011-02-06T08:58:35Z</time></trkpt>
<trkpt lat="43.861530" lon="5.429998"><ele>493.6</ele><time>2011-02-06T08:58:40Z</time></trkpt>
<trkpt lat="43.861447" lon="5.430073"><ele>493.2</ele><time>2011-02-06T08:58:45Z</time></trkpt>
<trkpt lat="43.861367" lon="5.430137"><ele>493.5</ele><time>2011-02-06T08:58:50Z</time></trkpt>
<trkpt lat="43.861275" lon="5.430157"><ele>494.3</ele><time>2011-02-06T08:58:55Z</time></trkpt>
<trkpt lat="43.861195" lon="5.430178"><ele>494.9</ele><time>2011-02-06T08:59:00Z</time></trkpt>
<trkpt lat="43.861107" lon="5.430208"><ele>495.9</ele><time>2011-02-06T08:59:05Z</time></trkpt>
<trkpt lat="43.861030" lon="5.430232"><ele>497.1</ele><time>2011-02-06T08:59:10Z</time></trkpt>
<trkpt lat="43.860955" lon="5.430252"><ele>498.1</ele><time>2011-02-06T08:59:15Z</time></trkpt>
<trkpt lat="43.860882" lon="5.430272"><ele>498.8</ele><time>2011-02-06T08:59:20Z</time></trkpt>
<trkpt lat="43.860813" lon="5.430310"><ele>499.5</ele><time>2011-02-06T08:59:25Z</time></trkpt>
<trkpt lat="43.860745" lon="5.430340"><ele>500.6</ele><time>2011-02-06T08:59:30Z</time></trkpt>
<trkpt lat="43.860668" lon="5.430355"><ele>502.2</ele><time>2011-02-06T08:59:35Z</time></trkpt>
<trkpt lat="43.860603" lon="5.430367"><ele>504</ele><time>2011-02-06T08:59:40Z</time></trkpt>
<trkpt lat="43.860538" lon="5.430390"><ele>505.8</ele><time>2011-02-06T08:59:45Z</time></trkpt>
<trkpt lat="43.860485" lon="5.430438"><ele>506.9</ele><time>2011-02-06T08:59:50Z</time></trkpt>
<trkpt lat="43.860450" lon="5.430515"><ele>507.6</ele><time>2011-02-06T08:59:55Z</time></trkpt>
<trkpt lat="43.860423" lon="5.430605"><ele>508.2</ele><time>2011-02-06T09:00:00Z</time></trkpt>
<trkpt lat="43.860397" lon="5.430695"><ele>508.3</ele><time>2011-02-06T09:00:05Z</time></trkpt>
<trkpt lat="43.860375" lon="5.430775"><ele>508.9</ele><time>2011-02-06T09:00:10Z</time></trkpt>
<trkpt lat="43.860355" lon="5.430862"><ele>509.5</ele><time>2011-02-06T09:00:15Z</time></trkpt>
<trkpt lat="43.860328" lon="5.430953"><ele>510.1</ele><time>2011-02-06T09:00:20Z</time></trkpt>
<trkpt lat="43.860313" lon="5.431040"><ele>510.8</ele><time>2011-02-06T09:00:25Z</time></trkpt>
<trkpt lat="43.860295" lon="5.431127"><ele>511.8</ele><time>2011-02-06T09:00:30Z</time></trkpt>
<trkpt lat="43.860275" lon="5.431215"><ele>512.8</ele><time>2011-02-06T09:00:35Z</time></trkpt>
<trkpt lat="43.860260" lon="5.431305"><ele>514.2</ele><time>2011-02-06T09:00:40Z</time></trkpt>
<trkpt lat="43.860252" lon="5.431393"><ele>515.8</ele><time>2011-02-06T09:00:45Z</time></trkpt>
<trkpt lat="43.860245" lon="5.431433"><ele>516.4</ele><time>2011-02-06T09:00:50Z</time></trkpt>
<trkpt lat="43.860245" lon="5.431445"><ele>516.7</ele><time>2011-02-06T09:00:55Z</time></trkpt>
<trkpt lat="43.860233" lon="5.431453"><ele>517</ele><time>2011-02-06T09:01:00Z</time></trkpt>
<trkpt lat="43.860203" lon="5.431538"><ele>518</ele><time>2011-02-06T09:01:05Z</time></trkpt>
<trkpt lat="43.860153" lon="5.431608"><ele>518.7</ele><time>2011-02-06T09:01:10Z</time></trkpt>
<trkpt lat="43.860130" lon="5.431702"><ele>519.1</ele><time>2011-02-06T09:01:15Z</time></trkpt>
<trkpt lat="43.860107" lon="5.431802"><ele>519.5</ele><time>2011-02-06T09:01:20Z</time></trkpt>
<trkpt lat="43.860088" lon="5.431902"><ele>519.9</ele><time>2011-02-06T09:01:25Z</time></trkpt>
<trkpt lat="43.860065" lon="5.432003"><ele>520.2</ele><time>2011-02-06T09:01:30Z</time></trkpt>
<trkpt lat="43.860050" lon="5.432107"><ele>520.7</ele><time>2011-02-06T09:01:35Z</time></trkpt>
<trkpt lat="43.860032" lon="5.432210"><ele>521.4</ele><time>2011-02-06T09:01:40Z</time></trkpt>
<trkpt lat="43.860012" lon="5.432312"><ele>522</ele><time>2011-02-06T09:01:45Z</time></trkpt>
<trkpt lat="43.859993" lon="5.432413"><ele>522.6</ele><time>2011-02-06T09:01:50Z</time></trkpt>
<trkpt lat="43.859967" lon="5.432510"><ele>523.2</ele><time>2011-02-06T09:01:55Z</time></trkpt>
<trkpt lat="43.859908" lon="5.432565"><ele>524.4</ele><time>2011-02-06T09:02:00Z</time></trkpt>
<trkpt lat="43.859848" lon="5.432612"><ele>525.8</ele><time>2011-02-06T09:02:05Z</time></trkpt>
<trkpt lat="43.859790" lon="5.432675"><ele>526.5</ele><time>2011-02-06T09:02:10Z</time></trkpt>
<trkpt lat="43.859742" lon="5.432743"><ele>527.4</ele><time>2011-02-06T09:02:15Z</time></trkpt>
<trkpt lat="43.859695" lon="5.432817"><ele>527.9</ele><time>2011-02-06T09:02:20Z</time></trkpt>
<trkpt lat="43.859642" lon="5.432882"><ele>528.7</ele><time>2011-02-06T09:02:25Z</time></trkpt>
<trkpt lat="43.859582" lon="5.432952"><ele>529.4</ele><time>2011-02-06T09:02:30Z</time></trkpt>
<trkpt lat="43.859528" lon="5.433018"><ele>530.5</ele><time>2011-02-06T09:02:35Z</time></trkpt>
<trkpt lat="43.859475" lon="5.433085"><ele>531.4</ele><time>2011-02-06T09:02:40Z</time></trkpt>
<trkpt lat="43.859417" lon="5.433132"><ele>532.8</ele><time>2011-02-06T09:02:45Z</time></trkpt>
<trkpt lat="43.859357" lon="5.433197"><ele>533.5</ele><time>2011-02-06T09:02:50Z</time></trkpt>
<trkpt lat="43.859303" lon="5.433262"><ele>534.8</ele><time>2011-02-06T09:02:55Z</time></trkpt>
<trkpt lat="43.859245" lon="5.433330"><ele>535.7</ele><time>2011-02-06T09:03:00Z</time></trkpt>
<trkpt lat="43.859185" lon="5.433407"><ele>536.2</ele><time>2011-02-06T09:03:05Z</time></trkpt>
<trkpt lat="43.859120" lon="5.433465"><ele>536.7</ele><time>2011-02-06T09:03:10Z</time></trkpt>
<trkpt lat="43.859055" lon="5.433528"><ele>537.4</ele><time>2011-02-06T09:03:15Z</time></trkpt>
<trkpt lat="43.858990" lon="5.433570"><ele>538.1</ele><time>2011-02-06T09:03:20Z</time></trkpt>
<trkpt lat="43.858925" lon="5.433620"><ele>538.8</ele><time>2011-02-06T09:03:25Z</time></trkpt>
<trkpt lat="43.858860" lon="5.433660"><ele>539.4</ele><time>2011-02-06T09:03:30Z</time></trkpt>
<trkpt lat="43.858795" lon="5.433698"><ele>540.4</ele><time>2011-02-06T09:03:35Z</time></trkpt>
<trkpt lat="43.858727" lon="5.433733"><ele>541.6</ele><time>2011-02-06T09:03:40Z</time></trkpt>
<trkpt lat="43.858658" lon="5.433743"><ele>543.3</ele><time>2011-02-06T09:03:45Z</time></trkpt>
<trkpt lat="43.858578" lon="5.433770"><ele>544.3</ele><time>2011-02-06T09:03:50Z</time></trkpt>
<trkpt lat="43.858502" lon="5.433813"><ele>544.8</ele><time>2011-02-06T09:03:55Z</time></trkpt>
<trkpt lat="43.858418" lon="5.433882"><ele>545</ele><time>2011-02-06T09:04:00Z</time></trkpt>
<trkpt lat="43.858327" lon="5.433945"><ele>544.9</ele><time>2011-02-06T09:04:05Z</time></trkpt>
<trkpt lat="43.858238" lon="5.434012"><ele>545</ele><time>2011-02-06T09:04:10Z</time></trkpt>
<trkpt lat="43.858150" lon="5.434082"><ele>545.1</ele><time>2011-02-06T09:04:15Z</time></trkpt>
<trkpt lat="43.858047" lon="5.434153"><ele>544.9</ele><time>2011-02-06T09:04:20Z</time></trkpt>
<trkpt lat="43.857945" lon="5.434225"><ele>544.8</ele><time>2011-02-06T09:04:25Z</time></trkpt>
<trkpt lat="43.857838" lon="5.434290"><ele>545</ele><time>2011-02-06T09:04:30Z</time></trkpt>
<trkpt lat="43.857723" lon="5.434345"><ele>545.2</ele><time>2011-02-06T09:04:35Z</time></trkpt>
<trkpt lat="43.857608" lon="5.434387"><ele>545.7</ele><time>2011-02-06T09:04:40Z</time></trkpt>
<trkpt lat="43.857495" lon="5.434423"><ele>546.1</ele><time>2011-02-06T09:04:45Z</time></trkpt>
<trkpt lat="43.857380" lon="5.434453"><ele>546.6</ele><time>2011-02-06T09:04:50Z</time></trkpt>
<trkpt lat="43.857262" lon="5.434490"><ele>546.6</ele><time>2011-02-06T09:04:55Z</time></trkpt>
<trkpt lat="43.857132" lon="5.434523"><ele>547</ele><time>2011-02-06T09:05:00Z</time></trkpt>
<trkpt lat="43.857013" lon="5.434507"><ele>548.1</ele><time>2011-02-06T09:05:05Z</time></trkpt>
<trkpt lat="43.856895" lon="5.434477"><ele>549.1</ele><time>2011-02-06T09:05:10Z</time></trkpt>
<trkpt lat="43.856770" lon="5.434475"><ele>549</ele><time>2011-02-06T09:05:15Z</time></trkpt>
<trkpt lat="43.856628" lon="5.434453"><ele>549.1</ele><time>2011-02-06T09:05:20Z</time></trkpt>
<trkpt lat="43.856513" lon="5.434435"><ele>549.3</ele><time>2011-02-06T09:05:25Z</time></trkpt>
<trkpt lat="43.856407" lon="5.434412"><ele>549.3</ele><time>2011-02-06T09:05:30Z</time></trkpt>
<trkpt lat="43.856293" lon="5.434398"><ele>549.7</ele><time>2011-02-06T09:05:35Z</time></trkpt>
<trkpt lat="43.856182" lon="5.434380"><ele>550.3</ele><time>2011-02-06T09:05:40Z</time></trkpt>
<trkpt lat="43.856068" lon="5.434363"><ele>550.8</ele><time>2011-02-06T09:05:45Z</time></trkpt>
<trkpt lat="43.855957" lon="5.434347"><ele>551.5</ele><time>2011-02-06T09:05:50Z</time></trkpt>
<trkpt lat="43.855850" lon="5.434315"><ele>552.4</ele><time>2011-02-06T09:05:55Z</time></trkpt>
<trkpt lat="43.855755" lon="5.434310"><ele>553.4</ele><time>2011-02-06T09:06:00Z</time></trkpt>
<trkpt lat="43.855667" lon="5.434288"><ele>554.5</ele><time>2011-02-06T09:06:05Z</time></trkpt>
<trkpt lat="43.855587" lon="5.434258"><ele>555.3</ele><time>2011-02-06T09:06:10Z</time></trkpt>
<trkpt lat="43.855510" lon="5.434228"><ele>556.2</ele><time>2011-02-06T09:06:15Z</time></trkpt>
<trkpt lat="43.855435" lon="5.434210"><ele>556.9</ele><time>2011-02-06T09:06:20Z</time></trkpt>
<trkpt lat="43.855358" lon="5.434217"><ele>557.7</ele><time>2011-02-06T09:06:25Z</time></trkpt>
<trkpt lat="43.855282" lon="5.434238"><ele>558.5</ele><time>2011-02-06T09:06:30Z</time></trkpt>
<trkpt lat="43.855213" lon="5.434273"><ele>559.3</ele><time>2011-02-06T09:06:35Z</time></trkpt>
<trkpt lat="43.855140" lon="5.434313"><ele>560.1</ele><time>2011-02-06T09:06:40Z</time></trkpt>
<trkpt lat="43.855068" lon="5.434347"><ele>561</ele><time>2011-02-06T09:06:45Z</time></trkpt>
<trkpt lat="43.855000" lon="5.434373"><ele>562.1</ele><time>2011-02-06T09:06:50Z</time></trkpt>
<trkpt lat="43.854932" lon="5.434395"><ele>563.2</ele><time>2011-02-06T09:06:55Z</time></trkpt>
<trkpt lat="43.854855" lon="5.434402"><ele>564.3</ele><time>2011-02-06T09:07:00Z</time></trkpt>
<trkpt lat="43.854787" lon="5.434428"><ele>565.6</ele><time>2011-02-06T09:07:05Z</time></trkpt>
<trkpt lat="43.854717" lon="5.434448"><ele>566.3</ele><time>2011-02-06T09:07:10Z</time></trkpt>
<trkpt lat="43.854645" lon="5.434465"><ele>566.8</ele><time>2011-02-06T09:07:15Z</time></trkpt>
<trkpt lat="43.854568" lon="5.434485"><ele>567.3</ele><time>2011-02-06T09:07:20Z</time></trkpt>
<trkpt lat="43.854497" lon="5.434513"><ele>567.9</ele><time>2011-02-06T09:07:25Z</time></trkpt>
<trkpt lat="43.854417" lon="5.434502"><ele>568.5</ele><time>2011-02-06T09:07:30Z</time></trkpt>
<trkpt lat="43.854340" lon="5.434508"><ele>569.4</ele><time>2011-02-06T09:07:35Z</time></trkpt>
<trkpt lat="43.854267" lon="5.434505"><ele>570.6</ele><time>2011-02-06T09:07:40Z</time></trkpt>
<trkpt lat="43.854195" lon="5.434500"><ele>571.6</ele><time>2011-02-06T09:07:45Z</time></trkpt>
<trkpt lat="43.854118" lon="5.434507"><ele>572.2</ele><time>2011-02-06T09:07:50Z</time></trkpt>
<trkpt lat="43.854038" lon="5.434515"><ele>572.7</ele><time>2011-02-06T09:07:55Z</time></trkpt>
<trkpt lat="43.853962" lon="5.434493"><ele>573.1</ele><time>2011-02-06T09:08:00Z</time></trkpt>
<trkpt lat="43.853882" lon="5.434493"><ele>573.7</ele><time>2011-02-06T09:08:05Z</time></trkpt>
<trkpt lat="43.853805" lon="5.434503"><ele>574.1</ele><time>2011-02-06T09:08:10Z</time></trkpt>
<trkpt lat="43.853725" lon="5.434520"><ele>574.7</ele><time>2011-02-06T09:08:15Z</time></trkpt>
<trkpt lat="43.853642" lon="5.434543"><ele>575.2</ele><time>2011-02-06T09:08:20Z</time></trkpt>
<trkpt lat="43.853553" lon="5.434520"><ele>575.9</ele><time>2011-02-06T09:08:25Z</time></trkpt>
<trkpt lat="43.853458" lon="5.434547"><ele>576.5</ele><time>2011-02-06T09:08:30Z</time></trkpt>
<trkpt lat="43.853355" lon="5.434582"><ele>576.9</ele><time>2011-02-06T09:08:35Z</time></trkpt>
<trkpt lat="43.853252" lon="5.434622"><ele>577.4</ele><time>2011-02-06T09:08:40Z</time></trkpt>
<trkpt lat="43.853138" lon="5.434667"><ele>577.8</ele><time>2011-02-06T09:08:45Z</time></trkpt>
<trkpt lat="43.853023" lon="5.434715"><ele>578.1</ele><time>2011-02-06T09:08:50Z</time></trkpt>
<trkpt lat="43.852898" lon="5.434770"><ele>578.4</ele><time>2011-02-06T09:08:55Z</time></trkpt>
<trkpt lat="43.852780" lon="5.434827"><ele>578.7</ele><time>2011-02-06T09:09:00Z</time></trkpt>
<trkpt lat="43.852642" lon="5.434893"><ele>579</ele><time>2011-02-06T09:09:05Z</time></trkpt>
<trkpt lat="43.852508" lon="5.434968"><ele>579.1</ele><time>2011-02-06T09:09:10Z</time></trkpt>
<trkpt lat="43.852372" lon="5.435042"><ele>579.4</ele><time>2011-02-06T09:09:15Z</time></trkpt>
<trkpt lat="43.852242" lon="5.435112"><ele>579.6</ele><time>2011-02-06T09:09:20Z</time></trkpt>
<trkpt lat="43.852112" lon="5.435192"><ele>580.2</ele><time>2011-02-06T09:09:25Z</time></trkpt>
<trkpt lat="43.851987" lon="5.435278"><ele>581</ele><time>2011-02-06T09:09:30Z</time></trkpt>
<trkpt lat="43.851860" lon="5.435380"><ele>581.2</ele><time>2011-02-06T09:09:35Z</time></trkpt>
<trkpt lat="43.851733" lon="5.435483"><ele>581.3</ele><time>2011-02-06T09:09:40Z</time></trkpt>
<trkpt lat="43.851605" lon="5.435595"><ele>581.5</ele><time>2011-02-06T09:09:45Z</time></trkpt>
<trkpt lat="43.851463" lon="5.435717"><ele>581.6</ele><time>2011-02-06T09:09:50Z</time></trkpt>
<trkpt lat="43.851318" lon="5.435848"><ele>581.8</ele><time>2011-02-06T09:09:55Z</time></trkpt>
<trkpt lat="43.851165" lon="5.435980"><ele>582</ele><time>2011-02-06T09:10:00Z</time></trkpt>
<trkpt lat="43.851005" lon="5.436115"><ele>582.2</ele><time>2011-02-06T09:10:05Z</time></trkpt>
<trkpt lat="43.850848" lon="5.436248"><ele>582.3</ele><time>2011-02-06T09:10:10Z</time></trkpt>
<trkpt lat="43.850697" lon="5.436383"><ele>582.5</ele><time>2011-02-06T09:10:15Z</time></trkpt>
<trkpt lat="43.850543" lon="5.436518"><ele>582.9</ele><time>2011-02-06T09:10:20Z</time></trkpt>
<trkpt lat="43.850383" lon="5.436655"><ele>583.3</ele><time>2011-02-06T09:10:25Z</time></trkpt>
<trkpt lat="43.850235" lon="5.436783"><ele>583.8</ele><time>2011-02-06T09:10:30Z</time></trkpt>
<trkpt lat="43.850090" lon="5.436913"><ele>584.4</ele><time>2011-02-06T09:10:35Z</time></trkpt>
<trkpt lat="43.849945" lon="5.437033"><ele>585.1</ele><time>2011-02-06T09:10:40Z</time></trkpt>
<trkpt lat="43.849812" lon="5.437152"><ele>585.8</ele><time>2011-02-06T09:10:45Z</time></trkpt>
<trkpt lat="43.849678" lon="5.437265"><ele>586.5</ele><time>2011-02-06T09:10:50Z</time></trkpt>
<trkpt lat="43.849552" lon="5.437372"><ele>587.1</ele><time>2011-02-06T09:10:55Z</time></trkpt>
<trkpt lat="43.849438" lon="5.437473"><ele>587.8</ele><time>2011-02-06T09:11:00Z</time></trkpt>
<trkpt lat="43.849320" lon="5.437572"><ele>588.5</ele><time>2011-02-06T09:11:05Z</time></trkpt>
<trkpt lat="43.849208" lon="5.437672"><ele>589.1</ele><time>2011-02-06T09:11:10Z</time></trkpt>
<trkpt lat="43.849090" lon="5.437772"><ele>590.1</ele><time>2011-02-06T09:11:15Z</time></trkpt>
<trkpt lat="43.848972" lon="5.437872"><ele>590.8</ele><time>2011-02-06T09:11:20Z</time></trkpt>
<trkpt lat="43.848853" lon="5.437973"><ele>591.9</ele><time>2011-02-06T09:11:25Z</time></trkpt>
<trkpt lat="43.848743" lon="5.438073"><ele>592.7</ele><time>2011-02-06T09:11:30Z</time></trkpt>
<trkpt lat="43.848622" lon="5.438172"><ele>592.8</ele><time>2011-02-06T09:11:35Z</time></trkpt>
<trkpt lat="43.848500" lon="5.438272"><ele>593.1</ele><time>2011-02-06T09:11:40Z</time></trkpt>
<trkpt lat="43.848385" lon="5.438372"><ele>594.2</ele><time>2011-02-06T09:11:45Z</time></trkpt>
<trkpt lat="43.848263" lon="5.438472"><ele>594.9</ele><time>2011-02-06T09:11:50Z</time></trkpt>
<trkpt lat="43.848145" lon="5.438572"><ele>595.7</ele><time>2011-02-06T09:11:55Z</time></trkpt>
<trkpt lat="43.848030" lon="5.438660"><ele>596.6</ele><time>2011-02-06T09:12:00Z</time></trkpt>
<trkpt lat="43.847908" lon="5.438748"><ele>597.3</ele><time>2011-02-06T09:12:05Z</time></trkpt>
<trkpt lat="43.847787" lon="5.438827"><ele>598.2</ele><time>2011-02-06T09:12:10Z</time></trkpt>
<trkpt lat="43.847648" lon="5.438870"><ele>599</ele><time>2011-02-06T09:12:15Z</time></trkpt>
<trkpt lat="43.847515" lon="5.438862"><ele>600</ele><time>2011-02-06T09:12:20Z</time></trkpt>
<trkpt lat="43.847390" lon="5.438807"><ele>601.1</ele><time>2011-02-06T09:12:25Z</time></trkpt>
<trkpt lat="43.847278" lon="5.438728"><ele>602.1</ele><time>2011-02-06T09:12:30Z</time></trkpt>
<trkpt lat="43.847168" lon="5.438650"><ele>602.9</ele><time>2011-02-06T09:12:35Z</time></trkpt>
<trkpt lat="43.847053" lon="5.438572"><ele>603.9</ele><time>2011-02-06T09:12:40Z</time></trkpt>
<trkpt lat="43.846932" lon="5.438520"><ele>604.9</ele><time>2011-02-06T09:12:45Z</time></trkpt>
<trkpt lat="43.846802" lon="5.438532"><ele>605.7</ele><time>2011-02-06T09:12:50Z</time></trkpt>
<trkpt lat="43.846677" lon="5.438583"><ele>606.3</ele><time>2011-02-06T09:12:55Z</time></trkpt>
<trkpt lat="43.846562" lon="5.438647"><ele>607</ele><time>2011-02-06T09:13:00Z</time></trkpt>
<trkpt lat="43.846440" lon="5.438713"><ele>607.7</ele><time>2011-02-06T09:13:05Z</time></trkpt>
<trkpt lat="43.846325" lon="5.438780"><ele>608.5</ele><time>2011-02-06T09:13:10Z</time></trkpt>
<trkpt lat="43.846207" lon="5.438847"><ele>609.2</ele><time>2011-02-06T09:13:15Z</time></trkpt>
<trkpt lat="43.846097" lon="5.438912"><ele>610</ele><time>2011-02-06T09:13:20Z</time></trkpt>
<trkpt lat="43.845982" lon="5.438975"><ele>610.7</ele><time>2011-02-06T09:13:25Z</time></trkpt>
<trkpt lat="43.845863" lon="5.439040"><ele>611.4</ele><time>2011-02-06T09:13:30Z</time></trkpt>
<trkpt lat="43.845753" lon="5.439088"><ele>612.4</ele><time>2011-02-06T09:13:35Z</time></trkpt>
<trkpt lat="43.845638" lon="5.439125"><ele>613.3</ele><time>2011-02-06T09:13:40Z</time></trkpt>
<trkpt lat="43.845520" lon="5.439165"><ele>614.1</ele><time>2011-02-06T09:13:45Z</time></trkpt>
<trkpt lat="43.845410" lon="5.439222"><ele>614.9</ele><time>2011-02-06T09:13:50Z</time></trkpt>
<trkpt lat="43.845310" lon="5.439323"><ele>615.7</ele><time>2011-02-06T09:13:55Z</time></trkpt>
<trkpt lat="43.845233" lon="5.439485"><ele>616.2</ele><time>2011-02-06T09:14:00Z</time></trkpt>
<trkpt lat="43.845153" lon="5.439667"><ele>616.6</ele><time>2011-02-06T09:14:05Z</time></trkpt>
<trkpt lat="43.845032" lon="5.439813"><ele>616.7</ele><time>2011-02-06T09:14:10Z</time></trkpt>
<trkpt lat="43.844890" lon="5.439902"><ele>616.7</ele><time>2011-02-06T09:14:15Z</time></trkpt>
<trkpt lat="43.844738" lon="5.439988"><ele>616.7</ele><time>2011-02-06T09:14:20Z</time></trkpt>
<trkpt lat="43.844573" lon="5.440102"><ele>616.7</ele><time>2011-02-06T09:14:25Z</time></trkpt>
<trkpt lat="43.844402" lon="5.440240"><ele>616.6</ele><time>2011-02-06T09:14:30Z</time></trkpt>
<trkpt lat="43.844230" lon="5.440378"><ele>616.7</ele><time>2011-02-06T09:14:35Z</time></trkpt>
<trkpt lat="43.844063" lon="5.440520"><ele>617</ele><time>2011-02-06T09:14:40Z</time></trkpt>
<trkpt lat="43.843907" lon="5.440670"><ele>617.4</ele><time>2011-02-06T09:14:45Z</time></trkpt>
<trkpt lat="43.843780" lon="5.440870"><ele>617.7</ele><time>2011-02-06T09:14:50Z</time></trkpt>
<trkpt lat="43.843697" lon="5.441115"><ele>618</ele><time>2011-02-06T09:14:55Z</time></trkpt>
<trkpt lat="43.843628" lon="5.441367"><ele>618.6</ele><time>2011-02-06T09:15:00Z</time></trkpt>
<trkpt lat="43.843555" lon="5.441602"><ele>619.1</ele><time>2011-02-06T09:15:05Z</time></trkpt>
<trkpt lat="43.843487" lon="5.441837"><ele>619.4</ele><time>2011-02-06T09:15:10Z</time></trkpt>
<trkpt lat="43.843415" lon="5.442077"><ele>619.8</ele><time>2011-02-06T09:15:15Z</time></trkpt>
<trkpt lat="43.843342" lon="5.442308"><ele>620</ele><time>2011-02-06T09:15:20Z</time></trkpt>
<trkpt lat="43.843270" lon="5.442553"><ele>620.8</ele><time>2011-02-06T09:15:25Z</time></trkpt>
<trkpt lat="43.843212" lon="5.442758"><ele>621.5</ele><time>2011-02-06T09:15:30Z</time></trkpt>
<trkpt lat="43.843147" lon="5.442985"><ele>621.8</ele><time>2011-02-06T09:15:35Z</time></trkpt>
<trkpt lat="43.843108" lon="5.443248"><ele>622.1</ele><time>2011-02-06T09:15:40Z</time></trkpt>
<trkpt lat="43.843090" lon="5.443533"><ele>622.6</ele><time>2011-02-06T09:15:45Z</time></trkpt>
<trkpt lat="43.843090" lon="5.443848"><ele>623</ele><time>2011-02-06T09:15:50Z</time></trkpt>
<trkpt lat="43.843063" lon="5.444183"><ele>622.9</ele><time>2011-02-06T09:15:55Z</time></trkpt>
<trkpt lat="43.843007" lon="5.444513"><ele>622.8</ele><time>2011-02-06T09:16:00Z</time></trkpt>
<trkpt lat="43.842942" lon="5.444823"><ele>622.9</ele><time>2011-02-06T09:16:05Z</time></trkpt>
<trkpt lat="43.842883" lon="5.445135"><ele>622.6</ele><time>2011-02-06T09:16:10Z</time></trkpt>
<trkpt lat="43.842857" lon="5.445458"><ele>622.8</ele><time>2011-02-06T09:16:15Z</time></trkpt>
<trkpt lat="43.842857" lon="5.445780"><ele>622.8</ele><time>2011-02-06T09:16:20Z</time></trkpt>
<trkpt lat="43.842883" lon="5.446103"><ele>622.7</ele><time>2011-02-06T09:16:25Z</time></trkpt>
<trkpt lat="43.842948" lon="5.446438"><ele>622.6</ele><time>2011-02-06T09:16:30Z</time></trkpt>
<trkpt lat="43.843028" lon="5.446778"><ele>622.4</ele><time>2011-02-06T09:16:35Z</time></trkpt>
<trkpt lat="43.843090" lon="5.447123"><ele>622.1</ele><time>2011-02-06T09:16:40Z</time></trkpt>
<trkpt lat="43.843102" lon="5.447490"><ele>621.8</ele><time>2011-02-06T09:16:45Z</time></trkpt>
<trkpt lat="43.843055" lon="5.447860"><ele>621.2</ele><time>2011-02-06T09:16:50Z</time></trkpt>
<trkpt lat="43.843010" lon="5.448212"><ele>620.8</ele><time>2011-02-06T09:16:55Z</time></trkpt>
<trkpt lat="43.842960" lon="5.448543"><ele>620</ele><time>2011-02-06T09:17:00Z</time></trkpt>
<trkpt lat="43.842915" lon="5.448875"><ele>619.8</ele><time>2011-02-06T09:17:05Z</time></trkpt>
<trkpt lat="43.842873" lon="5.449198"><ele>619.7</ele><time>2011-02-06T09:17:10Z</time></trkpt>
<trkpt lat="43.842823" lon="5.449520"><ele>619.1</ele><time>2011-02-06T09:17:15Z</time></trkpt>
<trkpt lat="43.842773" lon="5.449842"><ele>618.4</ele><time>2011-02-06T09:17:20Z</time></trkpt>
<trkpt lat="43.842743" lon="5.450180"><ele>618.1</ele><time>2011-02-06T09:17:25Z</time></trkpt>
<trkpt lat="43.842758" lon="5.450518"><ele>618</ele><time>2011-02-06T09:17:30Z</time></trkpt>
<trkpt lat="43.842820" lon="5.450853"><ele>617.8</ele><time>2011-02-06T09:17:35Z</time></trkpt>
<trkpt lat="43.842883" lon="5.451183"><ele>617.8</ele><time>2011-02-06T09:17:40Z</time></trkpt>
<trkpt lat="43.842948" lon="5.451508"><ele>617.5</ele><time>2011-02-06T09:17:45Z</time></trkpt>
<trkpt lat="43.843013" lon="5.451840"><ele>617.4</ele><time>2011-02-06T09:17:50Z</time></trkpt>
<trkpt lat="43.843078" lon="5.452165"><ele>617.4</ele><time>2011-02-06T09:17:55Z</time></trkpt>
<trkpt lat="43.843143" lon="5.452497"><ele>617.2</ele><time>2011-02-06T09:18:00Z</time></trkpt>
<trkpt lat="43.843137" lon="5.452850"><ele>617.1</ele><time>2011-02-06T09:18:05Z</time></trkpt>
<trkpt lat="43.843075" lon="5.453187"><ele>617.2</ele><time>2011-02-06T09:18:10Z</time></trkpt>
<trkpt lat="43.842998" lon="5.453517"><ele>617</ele><time>2011-02-06T09:18:15Z</time></trkpt>
<trkpt lat="43.842918" lon="5.453860"><ele>616.2</ele><time>2011-02-06T09:18:20Z</time></trkpt>
<trkpt lat="43.842838" lon="5.454220"><ele>615.1</ele><time>2011-02-06T09:18:25Z</time></trkpt>
<trkpt lat="43.842750" lon="5.454613"><ele>613.7</ele><time>2011-02-06T09:18:30Z</time></trkpt>
<trkpt lat="43.842655" lon="5.455020"><ele>612.7</ele><time>2011-02-06T09:18:35Z</time></trkpt>
<trkpt lat="43.842560" lon="5.455425"><ele>611.5</ele><time>2011-02-06T09:18:40Z</time></trkpt>
<trkpt lat="43.842407" lon="5.455813"><ele>610.2</ele><time>2011-02-06T09:18:45Z</time></trkpt>
<trkpt lat="43.842170" lon="5.456147"><ele>609.1</ele><time>2011-02-06T09:18:50Z</time></trkpt>
<trkpt lat="43.841918" lon="5.456467"><ele>608.1</ele><time>2011-02-06T09:18:55Z</time></trkpt>
<trkpt lat="43.841660" lon="5.456755"><ele>606.7</ele><time>2011-02-06T09:19:00Z</time></trkpt>
<trkpt lat="43.841335" lon="5.456795"><ele>604.8</ele><time>2011-02-06T09:19:05Z</time></trkpt>
<trkpt lat="43.841053" lon="5.456607"><ele>602.8</ele><time>2011-02-06T09:19:10Z</time></trkpt>
<trkpt lat="43.840888" lon="5.456368"><ele>601.5</ele><time>2011-02-06T09:19:15Z</time></trkpt>
<trkpt lat="43.840867" lon="5.456147"><ele>602.8</ele><time>2011-02-06T09:19:20Z</time></trkpt>
<trkpt lat="43.840858" lon="5.456008"><ele>604</ele><time>2011-02-06T09:19:25Z</time></trkpt>
<trkpt lat="43.840832" lon="5.455878"><ele>605</ele><time>2011-02-06T09:19:30Z</time></trkpt>
<trkpt lat="43.840847" lon="5.455753"><ele>605.7</ele><time>2011-02-06T09:19:35Z</time></trkpt>
<trkpt lat="43.840873" lon="5.455635"><ele>606.5</ele><time>2011-02-06T09:19:40Z</time></trkpt>
<trkpt lat="43.840870" lon="5.455523"><ele>607.5</ele><time>2011-02-06T09:19:45Z</time></trkpt>
<trkpt lat="43.840840" lon="5.455422"><ele>608.6</ele><time>2011-02-06T09:19:50Z</time></trkpt>
<trkpt lat="43.840770" lon="5.455345"><ele>609.7</ele><time>2011-02-06T09:19:55Z</time></trkpt>
<trkpt lat="43.840687" lon="5.455297"><ele>610.6</ele><time>2011-02-06T09:20:00Z</time></trkpt>
<trkpt lat="43.840603" lon="5.455273"><ele>611.8</ele><time>2011-02-06T09:20:05Z</time></trkpt>
<trkpt lat="43.840527" lon="5.455255"><ele>612.8</ele><time>2011-02-06T09:20:10Z</time></trkpt>
<trkpt lat="43.840443" lon="5.455233"><ele>613.6</ele><time>2011-02-06T09:20:15Z</time></trkpt>
<trkpt lat="43.840363" lon="5.455207"><ele>614.4</ele><time>2011-02-06T09:20:20Z</time></trkpt>
<trkpt lat="43.840282" lon="5.455178"><ele>615.2</ele><time>2011-02-06T09:20:25Z</time></trkpt>
<trkpt lat="43.840207" lon="5.455150"><ele>615.8</ele><time>2011-02-06T09:20:30Z</time></trkpt>
<trkpt lat="43.840130" lon="5.455160"><ele>616.7</ele><time>2011-02-06T09:20:35Z</time></trkpt>
<trkpt lat="43.840057" lon="5.455137"><ele>617.5</ele><time>2011-02-06T09:20:40Z</time></trkpt>
<trkpt lat="43.839982" lon="5.455122"><ele>618.4</ele><time>2011-02-06T09:20:45Z</time></trkpt>
<trkpt lat="43.839902" lon="5.455100"><ele>619.2</ele><time>2011-02-06T09:20:50Z</time></trkpt>
<trkpt lat="43.839825" lon="5.455067"><ele>620.2</ele><time>2011-02-06T09:20:55Z</time></trkpt>
<trkpt lat="43.839757" lon="5.455028"><ele>621.2</ele><time>2011-02-06T09:21:00Z</time></trkpt>
<trkpt lat="43.839687" lon="5.454992"><ele>622</ele><time>2011-02-06T09:21:05Z</time></trkpt>
<trkpt lat="43.839615" lon="5.454945"><ele>622.8</ele><time>2011-02-06T09:21:10Z</time></trkpt>
<trkpt lat="43.839547" lon="5.454893"><ele>623.6</ele><time>2011-02-06T09:21:15Z</time></trkpt>
<trkpt lat="43.839473" lon="5.454848"><ele>624.4</ele><time>2011-02-06T09:21:20Z</time></trkpt>
<trkpt lat="43.839402" lon="5.454795"><ele>625.2</ele><time>2011-02-06T09:21:25Z</time></trkpt>
<trkpt lat="43.839328" lon="5.454743"><ele>626</ele><time>2011-02-06T09:21:30Z</time></trkpt>
<trkpt lat="43.839248" lon="5.454690"><ele>626.9</ele><time>2011-02-06T09:21:35Z</time></trkpt>
<trkpt lat="43.839177" lon="5.454638"><ele>628.2</ele><time>2011-02-06T09:21:40Z</time></trkpt>
<trkpt lat="43.839103" lon="5.454593"><ele>629</ele><time>2011-02-06T09:21:45Z</time></trkpt>
<trkpt lat="43.839027" lon="5.454552"><ele>629.5</ele><time>2011-02-06T09:21:50Z</time></trkpt>
<trkpt lat="43.838947" lon="5.454508"><ele>630.2</ele><time>2011-02-06T09:21:55Z</time></trkpt>
<trkpt lat="43.838875" lon="5.454468"><ele>630.8</ele><time>2011-02-06T09:22:00Z</time></trkpt>
<trkpt lat="43.838798" lon="5.454423"><ele>631.6</ele><time>2011-02-06T09:22:05Z</time></trkpt>
<trkpt lat="43.838718" lon="5.454380"><ele>632.5</ele><time>2011-02-06T09:22:10Z</time></trkpt>
<trkpt lat="43.838647" lon="5.454335"><ele>633.6</ele><time>2011-02-06T09:22:15Z</time></trkpt>
<trkpt lat="43.838573" lon="5.454278"><ele>634.4</ele><time>2011-02-06T09:22:20Z</time></trkpt>
<trkpt lat="43.838502" lon="5.454235"><ele>635.6</ele><time>2011-02-06T09:22:25Z</time></trkpt>
<trkpt lat="43.838425" lon="5.454197"><ele>636.3</ele><time>2011-02-06T09:22:30Z</time></trkpt>
<trkpt lat="43.838345" lon="5.454153"><ele>637.1</ele><time>2011-02-06T09:22:35Z</time></trkpt>
<trkpt lat="43.838265" lon="5.454110"><ele>637.9</ele><time>2011-02-06T09:22:40Z</time></trkpt>
<trkpt lat="43.838185" lon="5.454082"><ele>638.7</ele><time>2011-02-06T09:22:45Z</time></trkpt>
<trkpt lat="43.838105" lon="5.454028"><ele>639.5</ele><time>2011-02-06T09:22:50Z</time></trkpt>
<trkpt lat="43.838028" lon="5.453982"><ele>640.2</ele><time>2011-02-06T09:22:55Z</time></trkpt>
<trkpt lat="43.837948" lon="5.453938"><ele>641.1</ele><time>2011-02-06T09:23:00Z</time></trkpt>
<trkpt lat="43.837863" lon="5.453907"><ele>641.9</ele><time>2011-02-06T09:23:05Z</time></trkpt>
<trkpt lat="43.837783" lon="5.453880"><ele>642.7</ele><time>2011-02-06T09:23:10Z</time></trkpt>
<trkpt lat="43.837700" lon="5.453862"><ele>643.5</ele><time>2011-02-06T09:23:15Z</time></trkpt>
<trkpt lat="43.837617" lon="5.453830"><ele>644.4</ele><time>2011-02-06T09:23:20Z</time></trkpt>
<trkpt lat="43.837537" lon="5.453787"><ele>645.3</ele><time>2011-02-06T09:23:25Z</time></trkpt>
<trkpt lat="43.837452" lon="5.453743"><ele>645.8</ele><time>2011-02-06T09:23:30Z</time></trkpt>
<trkpt lat="43.837368" lon="5.453710"><ele>646.3</ele><time>2011-02-06T09:23:35Z</time></trkpt>
<trkpt lat="43.837283" lon="5.453672"><ele>647.3</ele><time>2011-02-06T09:23:40Z</time></trkpt>
<trkpt lat="43.837197" lon="5.453653"><ele>648.3</ele><time>2011-02-06T09:23:45Z</time></trkpt>
<trkpt lat="43.837108" lon="5.453642"><ele>649</ele><time>2011-02-06T09:23:50Z</time></trkpt>
<trkpt lat="43.837017" lon="5.453637"><ele>649.6</ele><time>2011-02-06T09:23:55Z</time></trkpt>
<trkpt lat="43.836925" lon="5.453618"><ele>650.2</ele><time>2011-02-06T09:24:00Z</time></trkpt>
<trkpt lat="43.836838" lon="5.453590"><ele>651.4</ele><time>2011-02-06T09:24:05Z</time></trkpt>
<trkpt lat="43.836753" lon="5.453557"><ele>652.4</ele><time>2011-02-06T09:24:10Z</time></trkpt>
<trkpt lat="43.836662" lon="5.453547"><ele>653.3</ele><time>2011-02-06T09:24:15Z</time></trkpt>
<trkpt lat="43.836578" lon="5.453528"><ele>654.5</ele><time>2011-02-06T09:24:20Z</time></trkpt>
<trkpt lat="43.836495" lon="5.453493"><ele>655.2</ele><time>2011-02-06T09:24:25Z</time></trkpt>
<trkpt lat="43.836415" lon="5.453447"><ele>656.2</ele><time>2011-02-06T09:24:30Z</time></trkpt>
<trkpt lat="43.836353" lon="5.453372"><ele>657</ele><time>2011-02-06T09:24:35Z</time></trkpt>
<trkpt lat="43.836285" lon="5.453310"><ele>658.1</ele><time>2011-02-06T09:24:40Z</time></trkpt>
<trkpt lat="43.836212" lon="5.453247"><ele>659</ele><time>2011-02-06T09:24:45Z</time></trkpt>
<trkpt lat="43.836140" lon="5.453183"><ele>659.8</ele><time>2011-02-06T09:24:50Z</time></trkpt>
<trkpt lat="43.836067" lon="5.453127"><ele>660.8</ele><time>2011-02-06T09:24:55Z</time></trkpt>
<trkpt lat="43.835987" lon="5.453078"><ele>661.8</ele><time>2011-02-06T09:25:00Z</time></trkpt>
<trkpt lat="43.835903" lon="5.453042"><ele>662.6</ele><time>2011-02-06T09:25:05Z</time></trkpt>
<trkpt lat="43.835812" lon="5.453022"><ele>663.8</ele><time>2011-02-06T09:25:10Z</time></trkpt>
<trkpt lat="43.835723" lon="5.452998"><ele>664.6</ele><time>2011-02-06T09:25:15Z</time></trkpt>
<trkpt lat="43.835628" lon="5.452983"><ele>665.1</ele><time>2011-02-06T09:25:20Z</time></trkpt>
<trkpt lat="43.835537" lon="5.452978"><ele>665.9</ele><time>2011-02-06T09:25:25Z</time></trkpt>
<trkpt lat="43.835445" lon="5.452990"><ele>666.2</ele><time>2011-02-06T09:25:30Z</time></trkpt>
<trkpt lat="43.835350" lon="5.453010"><ele>666.7</ele><time>2011-02-06T09:25:35Z</time></trkpt>
<trkpt lat="43.835255" lon="5.453017"><ele>667.5</ele><time>2011-02-06T09:25:40Z</time></trkpt>
<trkpt lat="43.835167" lon="5.453005"><ele>668.1</ele><time>2011-02-06T09:25:45Z</time></trkpt>
<trkpt lat="43.835080" lon="5.452978"><ele>668.4</ele><time>2011-02-06T09:25:50Z</time></trkpt>
<trkpt lat="43.834995" lon="5.452938"><ele>668.9</ele><time>2011-02-06T09:25:55Z</time></trkpt>
<trkpt lat="43.834903" lon="5.452898"><ele>670.1</ele><time>2011-02-06T09:26:00Z</time></trkpt>
<trkpt lat="43.834823" lon="5.452848"><ele>671.6</ele><time>2011-02-06T09:26:05Z</time></trkpt>
<trkpt lat="43.834740" lon="5.452793"><ele>673.1</ele><time>2011-02-06T09:26:10Z</time></trkpt>
<trkpt lat="43.834667" lon="5.452725"><ele>675.2</ele><time>2011-02-06T09:26:15Z</time></trkpt>
<trkpt lat="43.834598" lon="5.452655"><ele>676.5</ele><time>2011-02-06T09:26:20Z</time></trkpt>
<trkpt lat="43.834522" lon="5.452592"><ele>677.7</ele><time>2011-02-06T09:26:25Z</time></trkpt>
<trkpt lat="43.834450" lon="5.452532"><ele>678.8</ele><time>2011-02-06T09:26:30Z</time></trkpt>
<trkpt lat="43.834370" lon="5.452487"><ele>679.4</ele><time>2011-02-06T09:26:35Z</time></trkpt>
<trkpt lat="43.834305" lon="5.452405"><ele>678.5</ele><time>2011-02-06T09:26:40Z</time></trkpt>
<trkpt lat="43.834252" lon="5.452305"><ele>678.4</ele><time>2011-02-06T09:26:45Z</time></trkpt>
<trkpt lat="43.834202" lon="5.452217"><ele>678.9</ele><time>2011-02-06T09:26:50Z</time></trkpt>
<trkpt lat="43.834148" lon="5.452130"><ele>680.1</ele><time>2011-02-06T09:26:55Z</time></trkpt>
<trkpt lat="43.834107" lon="5.452047"><ele>681.6</ele><time>2011-02-06T09:27:00Z</time></trkpt>
<trkpt lat="43.834065" lon="5.451957"><ele>683.1</ele><time>2011-02-06T09:27:05Z</time></trkpt>
<trkpt lat="43.834012" lon="5.451875"><ele>684.5</ele><time>2011-02-06T09:27:10Z</time></trkpt>
<trkpt lat="43.833942" lon="5.451822"><ele>686</ele><time>2011-02-06T09:27:15Z</time></trkpt>
<trkpt lat="43.833885" lon="5.451745"><ele>687.3</ele><time>2011-02-06T09:27:20Z</time></trkpt>
<trkpt lat="43.833832" lon="5.451672"><ele>688.7</ele><time>2011-02-06T09:27:25Z</time></trkpt>
<trkpt lat="43.833787" lon="5.451593"><ele>689.8</ele><time>2011-02-06T09:27:30Z</time></trkpt>
<trkpt lat="43.833725" lon="5.451522"><ele>691.5</ele><time>2011-02-06T09:27:35Z</time></trkpt>
<trkpt lat="43.833668" lon="5.451455"><ele>693.2</ele><time>2011-02-06T09:27:40Z</time></trkpt>
<trkpt lat="43.833603" lon="5.451393"><ele>694.1</ele><time>2011-02-06T09:27:45Z</time></trkpt>
<trkpt lat="43.833542" lon="5.451328"><ele>695.1</ele><time>2011-02-06T09:27:50Z</time></trkpt>
<trkpt lat="43.833473" lon="5.451267"><ele>695.4</ele><time>2011-02-06T09:27:55Z</time></trkpt>
<trkpt lat="43.833400" lon="5.451208"><ele>695.2</ele><time>2011-02-06T09:28:00Z</time></trkpt>
<trkpt lat="43.833332" lon="5.451147"><ele>695.1</ele><time>2011-02-06T09:28:05Z</time></trkpt>
<trkpt lat="43.833267" lon="5.451090"><ele>695.1</ele><time>2011-02-06T09:28:10Z</time></trkpt>
<trkpt lat="43.833202" lon="5.451037"><ele>695.5</ele><time>2011-02-06T09:28:15Z</time></trkpt>
<trkpt lat="43.833122" lon="5.450998"><ele>695.8</ele><time>2011-02-06T09:28:20Z</time></trkpt>
<trkpt lat="43.833050" lon="5.450935"><ele>696.5</ele><time>2011-02-06T09:28:25Z</time></trkpt>
<trkpt lat="43.832988" lon="5.450853"><ele>697.3</ele><time>2011-02-06T09:28:30Z</time></trkpt>
<trkpt lat="43.832917" lon="5.450792"><ele>698.3</ele><time>2011-02-06T09:28:35Z</time></trkpt>
<trkpt lat="43.832863" lon="5.450688"><ele>699.1</ele><time>2011-02-06T09:28:40Z</time></trkpt>
<trkpt lat="43.832802" lon="5.450592"><ele>699.5</ele><time>2011-02-06T09:28:45Z</time></trkpt>
<trkpt lat="43.832740" lon="5.450483"><ele>699.7</ele><time>2011-02-06T09:28:50Z</time></trkpt>
<trkpt lat="43.832680" lon="5.450367"><ele>699.8</ele><time>2011-02-06T09:28:55Z</time></trkpt>
<trkpt lat="43.832580" lon="5.450268"><ele>699.8</ele><time>2011-02-06T09:29:00Z</time></trkpt>
<trkpt lat="43.832458" lon="5.450230"><ele>699.8</ele><time>2011-02-06T09:29:05Z</time></trkpt>
<trkpt lat="43.832325" lon="5.450253"><ele>699.7</ele><time>2011-02-06T09:29:10Z</time></trkpt>
<trkpt lat="43.832198" lon="5.450298"><ele>700</ele><time>2011-02-06T09:29:15Z</time></trkpt>
<trkpt lat="43.832077" lon="5.450365"><ele>700.1</ele><time>2011-02-06T09:29:20Z</time></trkpt>
<trkpt lat="43.831970" lon="5.450472"><ele>699.8</ele><time>2011-02-06T09:29:25Z</time></trkpt>
<trkpt lat="43.831875" lon="5.450590"><ele>700.1</ele><time>2011-02-06T09:29:30Z</time></trkpt>
<trkpt lat="43.831798" lon="5.450712"><ele>700.7</ele><time>2011-02-06T09:29:35Z</time></trkpt>
<trkpt lat="43.831722" lon="5.450828"><ele>701.6</ele><time>2011-02-06T09:29:40Z</time></trkpt>
<trkpt lat="43.831668" lon="5.450942"><ele>702.9</ele><time>2011-02-06T09:29:45Z</time></trkpt>
<trkpt lat="43.831608" lon="5.451047"><ele>704.1</ele><time>2011-02-06T09:29:50Z</time></trkpt>
<trkpt lat="43.831543" lon="5.451145"><ele>705</ele><time>2011-02-06T09:29:55Z</time></trkpt>
<trkpt lat="43.831475" lon="5.451245"><ele>706.2</ele><time>2011-02-06T09:30:00Z</time></trkpt>
<trkpt lat="43.831410" lon="5.451342"><ele>707</ele><time>2011-02-06T09:30:05Z</time></trkpt>
<trkpt lat="43.831345" lon="5.451442"><ele>707.8</ele><time>2011-02-06T09:30:10Z</time></trkpt>
<trkpt lat="43.831283" lon="5.451555"><ele>708.4</ele><time>2011-02-06T09:30:15Z</time></trkpt>
<trkpt lat="43.831238" lon="5.451682"><ele>708.5</ele><time>2011-02-06T09:30:20Z</time></trkpt>
<trkpt lat="43.831180" lon="5.451808"><ele>709</ele><time>2011-02-06T09:30:25Z</time></trkpt>
<trkpt lat="43.831120" lon="5.451940"><ele>709.5</ele><time>2011-02-06T09:30:30Z</time></trkpt>
<trkpt lat="43.831043" lon="5.452033"><ele>710.6</ele><time>2011-02-06T09:30:35Z</time></trkpt>
<trkpt lat="43.830952" lon="5.452088"><ele>711.5</ele><time>2011-02-06T09:30:40Z</time></trkpt>
<trkpt lat="43.830863" lon="5.452125"><ele>712.6</ele><time>2011-02-06T09:30:45Z</time></trkpt>
<trkpt lat="43.830772" lon="5.452145"><ele>713.8</ele><time>2011-02-06T09:30:50Z</time></trkpt>
<trkpt lat="43.830677" lon="5.452155"><ele>714.9</ele><time>2011-02-06T09:30:55Z</time></trkpt>
<trkpt lat="43.830573" lon="5.452137"><ele>715.3</ele><time>2011-02-06T09:31:00Z</time></trkpt>
<trkpt lat="43.830478" lon="5.452083"><ele>715.8</ele><time>2011-02-06T09:31:05Z</time></trkpt>
<trkpt lat="43.830395" lon="5.452007"><ele>716.3</ele><time>2011-02-06T09:31:10Z</time></trkpt>
<trkpt lat="43.830318" lon="5.451905"><ele>717</ele><time>2011-02-06T09:31:15Z</time></trkpt>
<trkpt lat="43.830262" lon="5.451783"><ele>717.6</ele><time>2011-02-06T09:31:20Z</time></trkpt>
<trkpt lat="43.830215" lon="5.451652"><ele>718.2</ele><time>2011-02-06T09:31:25Z</time></trkpt>
<trkpt lat="43.830167" lon="5.451532"><ele>718.9</ele><time>2011-02-06T09:31:30Z</time></trkpt>
<trkpt lat="43.830105" lon="5.451415"><ele>719.7</ele><time>2011-02-06T09:31:35Z</time></trkpt>
<trkpt lat="43.830048" lon="5.451297"><ele>720.3</ele><time>2011-02-06T09:31:40Z</time></trkpt>
<trkpt lat="43.830002" lon="5.451173"><ele>721</ele><time>2011-02-06T09:31:45Z</time></trkpt>
<trkpt lat="43.829960" lon="5.451042"><ele>721.5</ele><time>2011-02-06T09:31:50Z</time></trkpt>
<trkpt lat="43.829940" lon="5.450898"><ele>722.1</ele><time>2011-02-06T09:31:55Z</time></trkpt>
<trkpt lat="43.829937" lon="5.450755"><ele>722.6</ele><time>2011-02-06T09:32:00Z</time></trkpt>
<trkpt lat="43.829918" lon="5.450637"><ele>723.4</ele><time>2011-02-06T09:32:05Z</time></trkpt>
<trkpt lat="43.829907" lon="5.450523"><ele>724.6</ele><time>2011-02-06T09:32:10Z</time></trkpt>
<trkpt lat="43.829907" lon="5.450407"><ele>725.4</ele><time>2011-02-06T09:32:15Z</time></trkpt>
<trkpt lat="43.829940" lon="5.450297"><ele>726.3</ele><time>2011-02-06T09:32:20Z</time></trkpt>
<trkpt lat="43.829957" lon="5.450180"><ele>727.4</ele><time>2011-02-06T09:32:25Z</time></trkpt>
<trkpt lat="43.829940" lon="5.450075"><ele>729</ele><time>2011-02-06T09:32:30Z</time></trkpt>
<trkpt lat="43.829880" lon="5.449997"><ele>730.1</ele><time>2011-02-06T09:32:35Z</time></trkpt>
<trkpt lat="43.829803" lon="5.449968"><ele>731</ele><time>2011-02-06T09:32:40Z</time></trkpt>
<trkpt lat="43.829720" lon="5.450042"><ele>731.2</ele><time>2011-02-06T09:32:45Z</time></trkpt>
<trkpt lat="43.829667" lon="5.450163"><ele>731.2</ele><time>2011-02-06T09:32:50Z</time></trkpt>
<trkpt lat="43.829632" lon="5.450290"><ele>731.5</ele><time>2011-02-06T09:32:55Z</time></trkpt>
<trkpt lat="43.829620" lon="5.450428"><ele>732</ele><time>2011-02-06T09:33:00Z</time></trkpt>
<trkpt lat="43.829613" lon="5.450568"><ele>732.9</ele><time>2011-02-06T09:33:05Z</time></trkpt>
<trkpt lat="43.829608" lon="5.450708"><ele>733.4</ele><time>2011-02-06T09:33:10Z</time></trkpt>
<trkpt lat="43.829602" lon="5.450843"><ele>734</ele><time>2011-02-06T09:33:15Z</time></trkpt>
<trkpt lat="43.829602" lon="5.450977"><ele>734.9</ele><time>2011-02-06T09:33:20Z</time></trkpt>
<trkpt lat="43.829597" lon="5.451103"><ele>735.7</ele><time>2011-02-06T09:33:25Z</time></trkpt>
<trkpt lat="43.829563" lon="5.451220"><ele>736.7</ele><time>2011-02-06T09:33:30Z</time></trkpt>
<trkpt lat="43.829517" lon="5.451323"><ele>737.7</ele><time>2011-02-06T09:33:35Z</time></trkpt>
<trkpt lat="43.829457" lon="5.451415"><ele>738.4</ele><time>2011-02-06T09:33:40Z</time></trkpt>
<trkpt lat="43.829395" lon="5.451507"><ele>739</ele><time>2011-02-06T09:33:45Z</time></trkpt>
<trkpt lat="43.829330" lon="5.451593"><ele>739.6</ele><time>2011-02-06T09:33:50Z</time></trkpt>
<trkpt lat="43.829282" lon="5.451688"><ele>740.5</ele><time>2011-02-06T09:33:55Z</time></trkpt>
<trkpt lat="43.829238" lon="5.451797"><ele>741.4</ele><time>2011-02-06T09:34:00Z</time></trkpt>
<trkpt lat="43.829197" lon="5.451898"><ele>742.5</ele><time>2011-02-06T09:34:05Z</time></trkpt>
<trkpt lat="43.829158" lon="5.452000"><ele>743.5</ele><time>2011-02-06T09:34:10Z</time></trkpt>
<trkpt lat="43.829120" lon="5.452100"><ele>744.3</ele><time>2011-02-06T09:34:15Z</time></trkpt>
<trkpt lat="43.829078" lon="5.452200"><ele>745.3</ele><time>2011-02-06T09:34:20Z</time></trkpt>
<trkpt lat="43.829033" lon="5.452298"><ele>746.2</ele><time>2011-02-06T09:34:25Z</time></trkpt>
<trkpt lat="43.828995" lon="5.452405"><ele>747.2</ele><time>2011-02-06T09:34:30Z</time></trkpt>
<trkpt lat="43.828960" lon="5.452513"><ele>748.2</ele><time>2011-02-06T09:34:35Z</time></trkpt>
<trkpt lat="43.828930" lon="5.452625"><ele>749.3</ele><time>2011-02-06T09:34:40Z</time></trkpt>
<trkpt lat="43.828895" lon="5.452733"><ele>750.2</ele><time>2011-02-06T09:34:45Z</time></trkpt>
<trkpt lat="43.828868" lon="5.452842"><ele>751.1</ele><time>2011-02-06T09:34:50Z</time></trkpt>
<trkpt lat="43.828847" lon="5.452955"><ele>752</ele><time>2011-02-06T09:34:55Z</time></trkpt>
<trkpt lat="43.828823" lon="5.453073"><ele>752.7</ele><time>2011-02-06T09:35:00Z</time></trkpt>
<trkpt lat="43.828808" lon="5.453192"><ele>753.4</ele><time>2011-02-06T09:35:05Z</time></trkpt>
<trkpt lat="43.828823" lon="5.453312"><ele>754.4</ele><time>2011-02-06T09:35:10Z</time></trkpt>
<trkpt lat="43.828835" lon="5.453427"><ele>755.7</ele><time>2011-02-06T09:35:15Z</time></trkpt>
<trkpt lat="43.828803" lon="5.453538"><ele>756.8</ele><time>2011-02-06T09:35:20Z</time></trkpt>
<trkpt lat="43.828735" lon="5.453618"><ele>757.6</ele><time>2011-02-06T09:35:25Z</time></trkpt>
<trkpt lat="43.828655" lon="5.453618"><ele>758</ele><time>2011-02-06T09:35:30Z</time></trkpt>
<trkpt lat="43.828583" lon="5.453558"><ele>758.1</ele><time>2011-02-06T09:35:35Z</time></trkpt>
<trkpt lat="43.828552" lon="5.453457"><ele>758.1</ele><time>2011-02-06T09:35:40Z</time></trkpt>
<trkpt lat="43.828545" lon="5.453332"><ele>758.1</ele><time>2011-02-06T09:35:45Z</time></trkpt>
<trkpt lat="43.828563" lon="5.453205"><ele>758.4</ele><time>2011-02-06T09:35:50Z</time></trkpt>
<trkpt lat="43.828572" lon="5.453085"><ele>758.9</ele><time>2011-02-06T09:35:55Z</time></trkpt>
<trkpt lat="43.828583" lon="5.452963"><ele>759.3</ele><time>2011-02-06T09:36:00Z</time></trkpt>
<trkpt lat="43.828578" lon="5.452837"><ele>759.9</ele><time>2011-02-06T09:36:05Z</time></trkpt>
<trkpt lat="43.828537" lon="5.452728"><ele>760.6</ele><time>2011-02-06T09:36:10Z</time></trkpt>
<trkpt lat="43.828477" lon="5.452632"><ele>761.3</ele><time>2011-02-06T09:36:15Z</time></trkpt>
<trkpt lat="43.828418" lon="5.452535"><ele>762</ele><time>2011-02-06T09:36:20Z</time></trkpt>
<trkpt lat="43.828373" lon="5.452428"><ele>762.8</ele><time>2011-02-06T09:36:25Z</time></trkpt>
<trkpt lat="43.828327" lon="5.452318"><ele>763.6</ele><time>2011-02-06T09:36:30Z</time></trkpt>
<trkpt lat="43.828270" lon="5.452225"><ele>764.5</ele><time>2011-02-06T09:36:35Z</time></trkpt>
<trkpt lat="43.828187" lon="5.452177"><ele>765.2</ele><time>2011-02-06T09:36:40Z</time></trkpt>
<trkpt lat="43.828102" lon="5.452202"><ele>766.1</ele><time>2011-02-06T09:36:45Z</time></trkpt>
<trkpt lat="43.828057" lon="5.452313"><ele>766.8</ele><time>2011-02-06T09:36:50Z</time></trkpt>
<trkpt lat="43.828080" lon="5.452453"><ele>767.3</ele><time>2011-02-06T09:36:55Z</time></trkpt>
<trkpt lat="43.828140" lon="5.452570"><ele>767.7</ele><time>2011-02-06T09:37:00Z</time></trkpt>
<trkpt lat="43.828205" lon="5.452672"><ele>768.3</ele><time>2011-02-06T09:37:05Z</time></trkpt>
<trkpt lat="43.828270" lon="5.452772"><ele>769.3</ele><time>2011-02-06T09:37:10Z</time></trkpt>
<trkpt lat="43.828315" lon="5.452887"><ele>770.1</ele><time>2011-02-06T09:37:15Z</time></trkpt>
<trkpt lat="43.828335" lon="5.453015"><ele>770.7</ele><time>2011-02-06T09:37:20Z</time></trkpt>
<trkpt lat="43.828327" lon="5.453143"><ele>771.4</ele><time>2011-02-06T09:37:25Z</time></trkpt>
<trkpt lat="43.828308" lon="5.453267"><ele>772.2</ele><time>2011-02-06T09:37:30Z</time></trkpt>
<trkpt lat="43.828278" lon="5.453387"><ele>772.9</ele><time>2011-02-06T09:37:35Z</time></trkpt>
<trkpt lat="43.828243" lon="5.453502"><ele>773.7</ele><time>2011-02-06T09:37:40Z</time></trkpt>
<trkpt lat="43.828228" lon="5.453625"><ele>774.5</ele><time>2011-02-06T09:37:45Z</time></trkpt>
<trkpt lat="43.828217" lon="5.453748"><ele>775.2</ele><time>2011-02-06T09:37:50Z</time></trkpt>
<trkpt lat="43.828217" lon="5.453870"><ele>776</ele><time>2011-02-06T09:37:55Z</time></trkpt>
<trkpt lat="43.828228" lon="5.453990"><ele>776.8</ele><time>2011-02-06T09:38:00Z</time></trkpt>
<trkpt lat="43.828247" lon="5.454113"><ele>777.5</ele><time>2011-02-06T09:38:05Z</time></trkpt>
<trkpt lat="43.828270" lon="5.454233"><ele>778.2</ele><time>2011-02-06T09:38:10Z</time></trkpt>
<trkpt lat="43.828308" lon="5.454338"><ele>778.9</ele><time>2011-02-06T09:38:15Z</time></trkpt>
<trkpt lat="43.828347" lon="5.454438"><ele>779.8</ele><time>2011-02-06T09:38:20Z</time></trkpt>
<trkpt lat="43.828353" lon="5.454555"><ele>780.9</ele><time>2011-02-06T09:38:25Z</time></trkpt>
<trkpt lat="43.828305" lon="5.454648"><ele>782</ele><time>2011-02-06T09:38:30Z</time></trkpt>
<trkpt lat="43.828225" lon="5.454635"><ele>782.7</ele><time>2011-02-06T09:38:35Z</time></trkpt>
<trkpt lat="43.828167" lon="5.454540"><ele>782.9</ele><time>2011-02-06T09:38:40Z</time></trkpt>
<trkpt lat="43.828140" lon="5.454417"><ele>783.1</ele><time>2011-02-06T09:38:45Z</time></trkpt>
<trkpt lat="43.828117" lon="5.454295"><ele>783.4</ele><time>2011-02-06T09:38:50Z</time></trkpt>
<trkpt lat="43.828102" lon="5.454188"><ele>784</ele><time>2011-02-06T09:38:55Z</time></trkpt>
<trkpt lat="43.828102" lon="5.454158"><ele>784.4</ele><time>2011-02-06T09:39:00Z</time></trkpt>
<trkpt lat="43.828107" lon="5.454160"><ele>784.1</ele><time>2011-02-06T09:39:05Z</time></trkpt>
<trkpt lat="43.828102" lon="5.454153"><ele>784</ele><time>2011-02-06T09:39:10Z</time></trkpt>
<trkpt lat="43.828080" lon="5.454133"><ele>784.1</ele><time>2011-02-06T09:39:15Z</time></trkpt>
<trkpt lat="43.828063" lon="5.454080"><ele>784.3</ele><time>2011-02-06T09:39:20Z</time></trkpt>
<trkpt lat="43.828048" lon="5.454057"><ele>784.4</ele><time>2011-02-06T09:39:25Z</time></trkpt>
<trkpt lat="43.828048" lon="5.454065"><ele>784.1</ele><time>2011-02-06T09:39:30Z</time></trkpt>
<trkpt lat="43.828048" lon="5.454065"><ele>783.9</ele><time>2011-02-06T09:39:35Z</time></trkpt>
<trkpt lat="43.828048" lon="5.454068"><ele>783.4</ele><time>2011-02-06T09:39:40Z</time></trkpt>
<trkpt lat="43.828048" lon="5.454068"><ele>783.6</ele><time>2011-02-06T09:39:45Z</time></trkpt>
<trkpt lat="43.828048" lon="5.454068"><ele>783.6</ele><time>2011-02-06T09:39:50Z</time></trkpt>
<trkpt lat="43.828048" lon="5.454072"><ele>783.4</ele><time>2011-02-06T09:39:55Z</time></trkpt>
<trkpt lat="43.828048" lon="5.454103"><ele>783.6</ele><time>2011-02-06T09:40:00Z</time></trkpt>
<trkpt lat="43.828045" lon="5.454107"><ele>783.7</ele><time>2011-02-06T09:40:05Z</time></trkpt>
<trkpt lat="43.828045" lon="5.454107"><ele>783.8</ele><time>2011-02-06T09:40:10Z</time></trkpt>
<trkpt lat="43.828045" lon="5.454108"><ele>783.8</ele><time>2011-02-06T09:40:15Z</time></trkpt>
<trkpt lat="43.828045" lon="5.454108"><ele>784</ele><time>2011-02-06T09:40:20Z</time></trkpt>
<trkpt lat="43.828048" lon="5.454108"><ele>784.1</ele><time>2011-02-06T09:40:25Z</time></trkpt>
<trkpt lat="43.828048" lon="5.454108"><ele>784.1</ele><time>2011-02-06T09:40:30Z</time></trkpt>
<trkpt lat="43.828048" lon="5.454108"><ele>784.1</ele><time>2011-02-06T09:40:35Z</time></trkpt>
<trkpt lat="43.828048" lon="5.454110"><ele>784.2</ele><time>2011-02-06T09:40:40Z</time></trkpt>
<trkpt lat="43.828048" lon="5.454110"><ele>784.1</ele><time>2011-02-06T09:40:45Z</time></trkpt>
<trkpt lat="43.828048" lon="5.454110"><ele>784.1</ele><time>2011-02-06T09:40:50Z</time></trkpt>
<trkpt lat="43.828048" lon="5.454113"><ele>784.3</ele><time>2011-02-06T09:40:55Z</time></trkpt>
<trkpt lat="43.828048" lon="5.454115"><ele>784.3</ele><time>2011-02-06T09:41:00Z</time></trkpt>
<trkpt lat="43.828057" lon="5.454088"><ele>785</ele><time>2011-02-06T09:41:05Z</time></trkpt>
<trkpt lat="43.828048" lon="5.454072"><ele>785</ele><time>2011-02-06T09:41:10Z</time></trkpt>
<trkpt lat="43.828048" lon="5.454065"><ele>784.6</ele><time>2011-02-06T09:41:15Z</time></trkpt>
<trkpt lat="43.828048" lon="5.454068"><ele>784.6</ele><time>2011-02-06T09:41:20Z</time></trkpt>
<trkpt lat="43.828053" lon="5.454063"><ele>784.4</ele><time>2011-02-06T09:41:25Z</time></trkpt>
<trkpt lat="43.828053" lon="5.454065"><ele>784.2</ele><time>2011-02-06T09:41:30Z</time></trkpt>
<trkpt lat="43.828053" lon="5.454063"><ele>784.1</ele><time>2011-02-06T09:41:35Z</time></trkpt>
<trkpt lat="43.828053" lon="5.454063"><ele>784.1</ele><time>2011-02-06T09:41:40Z</time></trkpt>
<trkpt lat="43.828053" lon="5.454063"><ele>784.1</ele><time>2011-02-06T09:41:45Z</time></trkpt>
<trkpt lat="43.828053" lon="5.454063"><ele>784</ele><time>2011-02-06T09:41:50Z</time></trkpt>
<trkpt lat="43.828053" lon="5.454068"><ele>784</ele><time>2011-02-06T09:41:55Z</time></trkpt>
<trkpt lat="43.828057" lon="5.454052"><ele>783.9</ele><time>2011-02-06T09:42:00Z</time></trkpt>
<trkpt lat="43.828053" lon="5.454052"><ele>784</ele><time>2011-02-06T09:42:05Z</time></trkpt>
<trkpt lat="43.828053" lon="5.454037"><ele>784.3</ele><time>2011-02-06T09:42:10Z</time></trkpt>
<trkpt lat="43.828048" lon="5.454018"><ele>784.6</ele><time>2011-02-06T09:42:15Z</time></trkpt>
<trkpt lat="43.828045" lon="5.454008"><ele>784.6</ele><time>2011-02-06T09:42:20Z</time></trkpt>
<trkpt lat="43.828030" lon="5.453968"><ele>784.8</ele><time>2011-02-06T09:42:25Z</time></trkpt>
<trkpt lat="43.828030" lon="5.453955"><ele>785</ele><time>2011-02-06T09:42:30Z</time></trkpt>
<trkpt lat="43.828018" lon="5.453888"><ele>785.2</ele><time>2011-02-06T09:42:35Z</time></trkpt>
<trkpt lat="43.828003" lon="5.453820"><ele>786.3</ele><time>2011-02-06T09:42:40Z</time></trkpt>
<trkpt lat="43.827983" lon="5.453757"><ele>786.7</ele><time>2011-02-06T09:42:45Z</time></trkpt>
<trkpt lat="43.827957" lon="5.453685"><ele>787.2</ele><time>2011-02-06T09:42:50Z</time></trkpt>
<trkpt lat="43.827930" lon="5.453620"><ele>787.7</ele><time>2011-02-06T09:42:55Z</time></trkpt>
<trkpt lat="43.827903" lon="5.453552"><ele>788.2</ele><time>2011-02-06T09:43:00Z</time></trkpt>
<trkpt lat="43.827877" lon="5.453475"><ele>788.7</ele><time>2011-02-06T09:43:05Z</time></trkpt>
<trkpt lat="43.827850" lon="5.453383"><ele>789.4</ele><time>2011-02-06T09:43:10Z</time></trkpt>
<trkpt lat="43.827808" lon="5.453308"><ele>790.1</ele><time>2011-02-06T09:43:15Z</time></trkpt>
<trkpt lat="43.827758" lon="5.453242"><ele>791</ele><time>2011-02-06T09:43:20Z</time></trkpt>
<trkpt lat="43.827690" lon="5.453195"><ele>791.7</ele><time>2011-02-06T09:43:25Z</time></trkpt>
<trkpt lat="43.827618" lon="5.453177"><ele>792.4</ele><time>2011-02-06T09:43:30Z</time></trkpt>
<trkpt lat="43.827545" lon="5.453195"><ele>793.1</ele><time>2011-02-06T09:43:35Z</time></trkpt>
<trkpt lat="43.827468" lon="5.453237"><ele>793.6</ele><time>2011-02-06T09:43:40Z</time></trkpt>
<trkpt lat="43.827400" lon="5.453287"><ele>794.2</ele><time>2011-02-06T09:43:45Z</time></trkpt>
<trkpt lat="43.827332" lon="5.453347"><ele>795</ele><time>2011-02-06T09:43:50Z</time></trkpt>
<trkpt lat="43.827255" lon="5.453403"><ele>795.8</ele><time>2011-02-06T09:43:55Z</time></trkpt>
<trkpt lat="43.827172" lon="5.453453"><ele>796.5</ele><time>2011-02-06T09:44:00Z</time></trkpt>
<trkpt lat="43.827092" lon="5.453470"><ele>797.2</ele><time>2011-02-06T09:44:05Z</time></trkpt>
<trkpt lat="43.827007" lon="5.453448"><ele>798</ele><time>2011-02-06T09:44:10Z</time></trkpt>
<trkpt lat="43.826968" lon="5.453383"><ele>798.5</ele><time>2011-02-06T09:44:15Z</time></trkpt>
<trkpt lat="43.826958" lon="5.453310"><ele>798.9</ele><time>2011-02-06T09:44:20Z</time></trkpt>
<trkpt lat="43.826958" lon="5.453225"><ele>799.3</ele><time>2011-02-06T09:44:25Z</time></trkpt>
<trkpt lat="43.826973" lon="5.453132"><ele>799.8</ele><time>2011-02-06T09:44:30Z</time></trkpt>
<trkpt lat="43.827003" lon="5.453028"><ele>800.6</ele><time>2011-02-06T09:44:35Z</time></trkpt>
<trkpt lat="43.827042" lon="5.452917"><ele>801.6</ele><time>2011-02-06T09:44:40Z</time></trkpt>
<trkpt lat="43.827050" lon="5.452790"><ele>802.2</ele><time>2011-02-06T09:44:45Z</time></trkpt>
<trkpt lat="43.827023" lon="5.452663"><ele>803</ele><time>2011-02-06T09:44:50Z</time></trkpt>
<trkpt lat="43.826953" lon="5.452580"><ele>803.7</ele><time>2011-02-06T09:44:55Z</time></trkpt>
<trkpt lat="43.826862" lon="5.452550"><ele>804.4</ele><time>2011-02-06T09:45:00Z</time></trkpt>
<trkpt lat="43.826770" lon="5.452565"><ele>805</ele><time>2011-02-06T09:45:05Z</time></trkpt>
<trkpt lat="43.826680" lon="5.452605"><ele>805.7</ele><time>2011-02-06T09:45:10Z</time></trkpt>
<trkpt lat="43.826592" lon="5.452652"><ele>806.3</ele><time>2011-02-06T09:45:15Z</time></trkpt>
<trkpt lat="43.826508" lon="5.452707"><ele>806.9</ele><time>2011-02-06T09:45:20Z</time></trkpt>
<trkpt lat="43.826423" lon="5.452768"><ele>807.7</ele><time>2011-02-06T09:45:25Z</time></trkpt>
<trkpt lat="43.826340" lon="5.452810"><ele>808.5</ele><time>2011-02-06T09:45:30Z</time></trkpt>
<trkpt lat="43.826255" lon="5.452853"><ele>809.4</ele><time>2011-02-06T09:45:35Z</time></trkpt>
<trkpt lat="43.826168" lon="5.452892"><ele>810.3</ele><time>2011-02-06T09:45:40Z</time></trkpt>
<trkpt lat="43.826088" lon="5.452925"><ele>811.2</ele><time>2011-02-06T09:45:45Z</time></trkpt>
<trkpt lat="43.826003" lon="5.452965"><ele>812.1</ele><time>2011-02-06T09:45:50Z</time></trkpt>
<trkpt lat="43.825923" lon="5.453003"><ele>812.9</ele><time>2011-02-06T09:45:55Z</time></trkpt>
<trkpt lat="43.825837" lon="5.453042"><ele>813.7</ele><time>2011-02-06T09:46:00Z</time></trkpt>
<trkpt lat="43.825757" lon="5.453077"><ele>814.6</ele><time>2011-02-06T09:46:05Z</time></trkpt>
<trkpt lat="43.825672" lon="5.453110"><ele>815.5</ele><time>2011-02-06T09:46:10Z</time></trkpt>
<trkpt lat="43.825592" lon="5.453135"><ele>816.3</ele><time>2011-02-06T09:46:15Z</time></trkpt>
<trkpt lat="43.825508" lon="5.453142"><ele>817</ele><time>2011-02-06T09:46:20Z</time></trkpt>
<trkpt lat="43.825425" lon="5.453145"><ele>817.8</ele><time>2011-02-06T09:46:25Z</time></trkpt>
<trkpt lat="43.825340" lon="5.453130"><ele>818.5</ele><time>2011-02-06T09:46:30Z</time></trkpt>
<trkpt lat="43.825257" lon="5.453107"><ele>819.1</ele><time>2011-02-06T09:46:35Z</time></trkpt>
<trkpt lat="43.825177" lon="5.453068"><ele>819.7</ele><time>2011-02-06T09:46:40Z</time></trkpt>
<trkpt lat="43.825097" lon="5.453022"><ele>820.6</ele><time>2011-02-06T09:46:45Z</time></trkpt>
<trkpt lat="43.825020" lon="5.452972"><ele>821.5</ele><time>2011-02-06T09:46:50Z</time></trkpt>
<trkpt lat="43.824943" lon="5.452915"><ele>822.4</ele><time>2011-02-06T09:46:55Z</time></trkpt>
<trkpt lat="43.824867" lon="5.452868"><ele>823.3</ele><time>2011-02-06T09:47:00Z</time></trkpt>
<trkpt lat="43.824792" lon="5.452825"><ele>824.2</ele><time>2011-02-06T09:47:05Z</time></trkpt>
<trkpt lat="43.824707" lon="5.452792"><ele>825.2</ele><time>2011-02-06T09:47:10Z</time></trkpt>
<trkpt lat="43.824627" lon="5.452755"><ele>826.1</ele><time>2011-02-06T09:47:15Z</time></trkpt>
<trkpt lat="43.824547" lon="5.452722"><ele>826.9</ele><time>2011-02-06T09:47:20Z</time></trkpt>
<trkpt lat="43.824467" lon="5.452688"><ele>827.8</ele><time>2011-02-06T09:47:25Z</time></trkpt>
<trkpt lat="43.824387" lon="5.452648"><ele>828.6</ele><time>2011-02-06T09:47:30Z</time></trkpt>
<trkpt lat="43.824303" lon="5.452615"><ele>829.3</ele><time>2011-02-06T09:47:35Z</time></trkpt>
<trkpt lat="43.824218" lon="5.452598"><ele>830</ele><time>2011-02-06T09:47:40Z</time></trkpt>
<trkpt lat="43.824135" lon="5.452592"><ele>830.5</ele><time>2011-02-06T09:47:45Z</time></trkpt>
<trkpt lat="43.824055" lon="5.452550"><ele>831.2</ele><time>2011-02-06T09:47:50Z</time></trkpt>
<trkpt lat="43.824020" lon="5.452442"><ele>831.8</ele><time>2011-02-06T09:47:55Z</time></trkpt>
<trkpt lat="43.824047" lon="5.452327"><ele>833.1</ele><time>2011-02-06T09:48:00Z</time></trkpt>
<trkpt lat="43.824123" lon="5.452265"><ele>838</ele><time>2011-02-06T09:48:05Z</time></trkpt>
<trkpt lat="43.824212" lon="5.452240"><ele>843.7</ele><time>2011-02-06T09:48:10Z</time></trkpt>
<trkpt lat="43.824298" lon="5.452215"><ele>847.5</ele><time>2011-02-06T09:48:15Z</time></trkpt>
<trkpt lat="43.824383" lon="5.452177"><ele>849.3</ele><time>2011-02-06T09:48:20Z</time></trkpt>
<trkpt lat="43.824467" lon="5.452138"><ele>851.3</ele><time>2011-02-06T09:48:25Z</time></trkpt>
<trkpt lat="43.824547" lon="5.452097"><ele>853</ele><time>2011-02-06T09:48:30Z</time></trkpt>
<trkpt lat="43.824635" lon="5.452063"><ele>853.6</ele><time>2011-02-06T09:48:35Z</time></trkpt>
<trkpt lat="43.824727" lon="5.452033"><ele>854.1</ele><time>2011-02-06T09:48:40Z</time></trkpt>
<trkpt lat="43.824813" lon="5.452017"><ele>854.8</ele><time>2011-02-06T09:48:45Z</time></trkpt>
<trkpt lat="43.824902" lon="5.452012"><ele>856.2</ele><time>2011-02-06T09:48:50Z</time></trkpt>
<trkpt lat="43.824985" lon="5.452027"><ele>856.4</ele><time>2011-02-06T09:48:55Z</time></trkpt>
<trkpt lat="43.825077" lon="5.452030"><ele>856.1</ele><time>2011-02-06T09:49:00Z</time></trkpt>
<trkpt lat="43.825162" lon="5.452002"><ele>856.1</ele><time>2011-02-06T09:49:05Z</time></trkpt>
<trkpt lat="43.825242" lon="5.451882"><ele>848</ele><time>2011-02-06T09:49:10Z</time></trkpt>
<trkpt lat="43.825313" lon="5.451828"><ele>849</ele><time>2011-02-06T09:49:15Z</time></trkpt>
<trkpt lat="43.825382" lon="5.451742"><ele>847.3</ele><time>2011-02-06T09:49:20Z</time></trkpt>
<trkpt lat="43.825440" lon="5.451663"><ele>848</ele><time>2011-02-06T09:49:25Z</time></trkpt>
<trkpt lat="43.825505" lon="5.451590"><ele>848.9</ele><time>2011-02-06T09:49:30Z</time></trkpt>
<trkpt lat="43.825565" lon="5.451508"><ele>849.8</ele><time>2011-02-06T09:49:35Z</time></trkpt>
<trkpt lat="43.825638" lon="5.451447"><ele>850.7</ele><time>2011-02-06T09:49:40Z</time></trkpt>
<trkpt lat="43.825695" lon="5.451357"><ele>851.6</ele><time>2011-02-06T09:49:45Z</time></trkpt>
<trkpt lat="43.825730" lon="5.451257"><ele>852.4</ele><time>2011-02-06T09:49:50Z</time></trkpt>
<trkpt lat="43.825778" lon="5.451163"><ele>853.3</ele><time>2011-02-06T09:49:55Z</time></trkpt>
<trkpt lat="43.825828" lon="5.451073"><ele>854.5</ele><time>2011-02-06T09:50:00Z</time></trkpt>
<trkpt lat="43.825870" lon="5.450975"><ele>855.1</ele><time>2011-02-06T09:50:05Z</time></trkpt>
<trkpt lat="43.825920" lon="5.450873"><ele>855.7</ele><time>2011-02-06T09:50:10Z</time></trkpt>
<trkpt lat="43.825962" lon="5.450777"><ele>856.4</ele><time>2011-02-06T09:50:15Z</time></trkpt>
<trkpt lat="43.826015" lon="5.450683"><ele>857.3</ele><time>2011-02-06T09:50:20Z</time></trkpt>
<trkpt lat="43.826065" lon="5.450593"><ele>858.3</ele><time>2011-02-06T09:50:25Z</time></trkpt>
<trkpt lat="43.826122" lon="5.450503"><ele>859.2</ele><time>2011-02-06T09:50:30Z</time></trkpt>
<trkpt lat="43.826175" lon="5.450413"><ele>860.1</ele><time>2011-02-06T09:50:35Z</time></trkpt>
<trkpt lat="43.826245" lon="5.450335"><ele>860.7</ele><time>2011-02-06T09:50:40Z</time></trkpt>
<trkpt lat="43.826313" lon="5.450258"><ele>861.4</ele><time>2011-02-06T09:50:45Z</time></trkpt>
<trkpt lat="43.826382" lon="5.450185"><ele>862.1</ele><time>2011-02-06T09:50:50Z</time></trkpt>
<trkpt lat="43.826443" lon="5.450102"><ele>863</ele><time>2011-02-06T09:50:55Z</time></trkpt>
<trkpt lat="43.826458" lon="5.449983"><ele>863.9</ele><time>2011-02-06T09:51:00Z</time></trkpt>
<trkpt lat="43.826450" lon="5.449865"><ele>864.7</ele><time>2011-02-06T09:51:05Z</time></trkpt>
<trkpt lat="43.826417" lon="5.449760"><ele>865.4</ele><time>2011-02-06T09:51:10Z</time></trkpt>
<trkpt lat="43.826385" lon="5.449657"><ele>866.1</ele><time>2011-02-06T09:51:15Z</time></trkpt>
<trkpt lat="43.826352" lon="5.449553"><ele>866.7</ele><time>2011-02-06T09:51:20Z</time></trkpt>
<trkpt lat="43.826320" lon="5.449442"><ele>867.5</ele><time>2011-02-06T09:51:25Z</time></trkpt>
<trkpt lat="43.826302" lon="5.449332"><ele>868.3</ele><time>2011-02-06T09:51:30Z</time></trkpt>
<trkpt lat="43.826290" lon="5.449223"><ele>869</ele><time>2011-02-06T09:51:35Z</time></trkpt>
<trkpt lat="43.826287" lon="5.449198"><ele>869.2</ele><time>2011-02-06T09:51:40Z</time></trkpt>
<trkpt lat="43.826283" lon="5.449182"><ele>869.3</ele><time>2011-02-06T09:51:45Z</time></trkpt>
<trkpt lat="43.826275" lon="5.449172"><ele>869.3</ele><time>2011-02-06T09:51:50Z</time></trkpt>
<trkpt lat="43.826272" lon="5.449162"><ele>869.3</ele><time>2011-02-06T09:51:55Z</time></trkpt>
<trkpt lat="43.826267" lon="5.449105"><ele>869.6</ele><time>2011-02-06T09:52:00Z</time></trkpt>
<trkpt lat="43.826260" lon="5.449067"><ele>870</ele><time>2011-02-06T09:52:05Z</time></trkpt>
<trkpt lat="43.826255" lon="5.448975"><ele>870.6</ele><time>2011-02-06T09:52:10Z</time></trkpt>
<trkpt lat="43.826248" lon="5.448863"><ele>871.3</ele><time>2011-02-06T09:52:15Z</time></trkpt>
<trkpt lat="43.826240" lon="5.448748"><ele>872.1</ele><time>2011-02-06T09:52:20Z</time></trkpt>
<trkpt lat="43.826233" lon="5.448635"><ele>872.9</ele><time>2011-02-06T09:52:25Z</time></trkpt>
<trkpt lat="43.826228" lon="5.448542"><ele>873.5</ele><time>2011-02-06T09:52:30Z</time></trkpt>
<trkpt lat="43.826228" lon="5.448522"><ele>873.7</ele><time>2011-02-06T09:52:35Z</time></trkpt>
<trkpt lat="43.826225" lon="5.448520"><ele>873.7</ele><time>2011-02-06T09:52:40Z</time></trkpt>
<trkpt lat="43.826240" lon="5.448475"><ele>873.9</ele><time>2011-02-06T09:52:45Z</time></trkpt>
<trkpt lat="43.826245" lon="5.448445"><ele>874.1</ele><time>2011-02-06T09:52:50Z</time></trkpt>
<trkpt lat="43.826240" lon="5.448378"><ele>874.6</ele><time>2011-02-06T09:52:55Z</time></trkpt>
<trkpt lat="43.826240" lon="5.448338"><ele>875</ele><time>2011-02-06T09:53:00Z</time></trkpt>
<trkpt lat="43.826240" lon="5.448293"><ele>875.4</ele><time>2011-02-06T09:53:05Z</time></trkpt>
<trkpt lat="43.826233" lon="5.448197"><ele>876</ele><time>2011-02-06T09:53:10Z</time></trkpt>
<trkpt lat="43.826218" lon="5.448087"><ele>876.7</ele><time>2011-02-06T09:53:15Z</time></trkpt>
<trkpt lat="43.826198" lon="5.447995"><ele>877.4</ele><time>2011-02-06T09:53:20Z</time></trkpt>
<trkpt lat="43.826192" lon="5.447947"><ele>877.7</ele><time>2011-02-06T09:53:25Z</time></trkpt>
<trkpt lat="43.826192" lon="5.447942"><ele>877.8</ele><time>2011-02-06T09:53:30Z</time></trkpt>
<trkpt lat="43.826172" lon="5.447873"><ele>878.4</ele><time>2011-02-06T09:53:35Z</time></trkpt>
<trkpt lat="43.826148" lon="5.447803"><ele>878.9</ele><time>2011-02-06T09:53:40Z</time></trkpt>
<trkpt lat="43.826103" lon="5.447732"><ele>879.5</ele><time>2011-02-06T09:53:45Z</time></trkpt>
<trkpt lat="43.826062" lon="5.447645"><ele>880.3</ele><time>2011-02-06T09:53:50Z</time></trkpt>
<trkpt lat="43.826003" lon="5.447567"><ele>881.1</ele><time>2011-02-06T09:53:55Z</time></trkpt>
<trkpt lat="43.825947" lon="5.447493"><ele>881.8</ele><time>2011-02-06T09:54:00Z</time></trkpt>
<trkpt lat="43.825882" lon="5.447425"><ele>882.4</ele><time>2011-02-06T09:54:05Z</time></trkpt>
<trkpt lat="43.825822" lon="5.447355"><ele>883</ele><time>2011-02-06T09:54:10Z</time></trkpt>
<trkpt lat="43.825760" lon="5.447288"><ele>883.5</ele><time>2011-02-06T09:54:15Z</time></trkpt>
<trkpt lat="43.825695" lon="5.447220"><ele>884.1</ele><time>2011-02-06T09:54:20Z</time></trkpt>
<trkpt lat="43.825633" lon="5.447157"><ele>884.7</ele><time>2011-02-06T09:54:25Z</time></trkpt>
<trkpt lat="43.825573" lon="5.447088"><ele>885.4</ele><time>2011-02-06T09:54:30Z</time></trkpt>
<trkpt lat="43.825512" lon="5.447015"><ele>886.2</ele><time>2011-02-06T09:54:35Z</time></trkpt>
<trkpt lat="43.825455" lon="5.446943"><ele>887</ele><time>2011-02-06T09:54:40Z</time></trkpt>
<trkpt lat="43.825393" lon="5.446878"><ele>887.8</ele><time>2011-02-06T09:54:45Z</time></trkpt>
<trkpt lat="43.825333" lon="5.446817"><ele>888.7</ele><time>2011-02-06T09:54:50Z</time></trkpt>
<trkpt lat="43.825268" lon="5.446773"><ele>889.6</ele><time>2011-02-06T09:54:55Z</time></trkpt>
<trkpt lat="43.825192" lon="5.446738"><ele>890.5</ele><time>2011-02-06T09:55:00Z</time></trkpt>
<trkpt lat="43.825115" lon="5.446720"><ele>891.4</ele><time>2011-02-06T09:55:05Z</time></trkpt>
<trkpt lat="43.825038" lon="5.446732"><ele>892.1</ele><time>2011-02-06T09:55:10Z</time></trkpt>
<trkpt lat="43.824963" lon="5.446763"><ele>892.9</ele><time>2011-02-06T09:55:15Z</time></trkpt>
<trkpt lat="43.824890" lon="5.446810"><ele>893.6</ele><time>2011-02-06T09:55:20Z</time></trkpt>
<trkpt lat="43.824822" lon="5.446872"><ele>894.4</ele><time>2011-02-06T09:55:25Z</time></trkpt>
<trkpt lat="43.824757" lon="5.446945"><ele>894.9</ele><time>2011-02-06T09:55:30Z</time></trkpt>
<trkpt lat="43.824695" lon="5.447028"><ele>895.6</ele><time>2011-02-06T09:55:35Z</time></trkpt>
<trkpt lat="43.824627" lon="5.447102"><ele>896.2</ele><time>2011-02-06T09:55:40Z</time></trkpt>
<trkpt lat="43.824555" lon="5.447173"><ele>896.8</ele><time>2011-02-06T09:55:45Z</time></trkpt>
<trkpt lat="43.824485" lon="5.447245"><ele>897.4</ele><time>2011-02-06T09:55:50Z</time></trkpt>
<trkpt lat="43.824413" lon="5.447322"><ele>898.1</ele><time>2011-02-06T09:55:55Z</time></trkpt>
<trkpt lat="43.824345" lon="5.447388"><ele>898.7</ele><time>2011-02-06T09:56:00Z</time></trkpt>
<trkpt lat="43.824272" lon="5.447460"><ele>899.5</ele><time>2011-02-06T09:56:05Z</time></trkpt>
<trkpt lat="43.824197" lon="5.447517"><ele>900.2</ele><time>2011-02-06T09:56:10Z</time></trkpt>
<trkpt lat="43.824127" lon="5.447583"><ele>901</ele><time>2011-02-06T09:56:15Z</time></trkpt>
<trkpt lat="43.824052" lon="5.447642"><ele>901.9</ele><time>2011-02-06T09:56:20Z</time></trkpt>
<trkpt lat="43.823975" lon="5.447702"><ele>902.7</ele><time>2011-02-06T09:56:25Z</time></trkpt>
<trkpt lat="43.823902" lon="5.447762"><ele>903.6</ele><time>2011-02-06T09:56:30Z</time></trkpt>
<trkpt lat="43.823822" lon="5.447812"><ele>904.5</ele><time>2011-02-06T09:56:35Z</time></trkpt>
<trkpt lat="43.823742" lon="5.447857"><ele>905.3</ele><time>2011-02-06T09:56:40Z</time></trkpt>
<trkpt lat="43.823662" lon="5.447898"><ele>906.1</ele><time>2011-02-06T09:56:45Z</time></trkpt>
<trkpt lat="43.823582" lon="5.447933"><ele>906.8</ele><time>2011-02-06T09:56:50Z</time></trkpt>
<trkpt lat="43.823502" lon="5.447975"><ele>907.8</ele><time>2011-02-06T09:56:55Z</time></trkpt>
<trkpt lat="43.823440" lon="5.448052"><ele>908.5</ele><time>2011-02-06T09:57:00Z</time></trkpt>
<trkpt lat="43.823365" lon="5.448108"><ele>909.3</ele><time>2011-02-06T09:57:05Z</time></trkpt>
<trkpt lat="43.823292" lon="5.448160"><ele>910.2</ele><time>2011-02-06T09:57:10Z</time></trkpt>
<trkpt lat="43.823215" lon="5.448190"><ele>911.1</ele><time>2011-02-06T09:57:15Z</time></trkpt>
<trkpt lat="43.823140" lon="5.448245"><ele>912.1</ele><time>2011-02-06T09:57:20Z</time></trkpt>
<trkpt lat="43.823075" lon="5.448317"><ele>913.1</ele><time>2011-02-06T09:57:25Z</time></trkpt>
<trkpt lat="43.822998" lon="5.448368"><ele>914</ele><time>2011-02-06T09:57:30Z</time></trkpt>
<trkpt lat="43.822925" lon="5.448420"><ele>914.9</ele><time>2011-02-06T09:57:35Z</time></trkpt>
<trkpt lat="43.822850" lon="5.448465"><ele>915.9</ele><time>2011-02-06T09:57:40Z</time></trkpt>
<trkpt lat="43.822768" lon="5.448505"><ele>916.9</ele><time>2011-02-06T09:57:45Z</time></trkpt>
<trkpt lat="43.822693" lon="5.448548"><ele>917.9</ele><time>2011-02-06T09:57:50Z</time></trkpt>
<trkpt lat="43.822613" lon="5.448582"><ele>918.8</ele><time>2011-02-06T09:57:55Z</time></trkpt>
<trkpt lat="43.822537" lon="5.448612"><ele>919.7</ele><time>2011-02-06T09:58:00Z</time></trkpt>
<trkpt lat="43.822457" lon="5.448632"><ele>920.4</ele><time>2011-02-06T09:58:05Z</time></trkpt>
<trkpt lat="43.822372" lon="5.448647"><ele>921.2</ele><time>2011-02-06T09:58:10Z</time></trkpt>
<trkpt lat="43.822288" lon="5.448655"><ele>921.9</ele><time>2011-02-06T09:58:15Z</time></trkpt>
<trkpt lat="43.822205" lon="5.448657"><ele>922.5</ele><time>2011-02-06T09:58:20Z</time></trkpt>
<trkpt lat="43.822117" lon="5.448655"><ele>923.2</ele><time>2011-02-06T09:58:25Z</time></trkpt>
<trkpt lat="43.822033" lon="5.448657"><ele>924</ele><time>2011-02-06T09:58:30Z</time></trkpt>
<trkpt lat="43.821945" lon="5.448668"><ele>924.6</ele><time>2011-02-06T09:58:35Z</time></trkpt>
<trkpt lat="43.821857" lon="5.448668"><ele>925.3</ele><time>2011-02-06T09:58:40Z</time></trkpt>
<trkpt lat="43.821770" lon="5.448698"><ele>926.1</ele><time>2011-02-06T09:58:45Z</time></trkpt>
<trkpt lat="43.821697" lon="5.448750"><ele>926.9</ele><time>2011-02-06T09:58:50Z</time></trkpt>
<trkpt lat="43.821622" lon="5.448787"><ele>927.7</ele><time>2011-02-06T09:58:55Z</time></trkpt>
<trkpt lat="43.821537" lon="5.448822"><ele>928.5</ele><time>2011-02-06T09:59:00Z</time></trkpt>
<trkpt lat="43.821457" lon="5.448857"><ele>929.3</ele><time>2011-02-06T09:59:05Z</time></trkpt>
<trkpt lat="43.821377" lon="5.448895"><ele>930.1</ele><time>2011-02-06T09:59:10Z</time></trkpt>
<trkpt lat="43.821297" lon="5.448937"><ele>931</ele><time>2011-02-06T09:59:15Z</time></trkpt>
<trkpt lat="43.821213" lon="5.448968"><ele>931.7</ele><time>2011-02-06T09:59:20Z</time></trkpt>
<trkpt lat="43.821137" lon="5.449007"><ele>932.6</ele><time>2011-02-06T09:59:25Z</time></trkpt>
<trkpt lat="43.821053" lon="5.449038"><ele>933.4</ele><time>2011-02-06T09:59:30Z</time></trkpt>
<trkpt lat="43.820968" lon="5.449072"><ele>934.2</ele><time>2011-02-06T09:59:35Z</time></trkpt>
<trkpt lat="43.820885" lon="5.449103"><ele>935</ele><time>2011-02-06T09:59:40Z</time></trkpt>
<trkpt lat="43.820800" lon="5.449128"><ele>935.8</ele><time>2011-02-06T09:59:45Z</time></trkpt>
<trkpt lat="43.820717" lon="5.449155"><ele>936.6</ele><time>2011-02-06T09:59:50Z</time></trkpt>
<trkpt lat="43.820628" lon="5.449175"><ele>937.4</ele><time>2011-02-06T09:59:55Z</time></trkpt>
<trkpt lat="43.820542" lon="5.449190"><ele>938.3</ele><time>2011-02-06T10:00:00Z</time></trkpt>
<trkpt lat="43.820453" lon="5.449200"><ele>939.2</ele><time>2011-02-06T10:00:05Z</time></trkpt>
<trkpt lat="43.820367" lon="5.449208"><ele>940</ele><time>2011-02-06T10:00:10Z</time></trkpt>
<trkpt lat="43.820282" lon="5.449215"><ele>940.8</ele><time>2011-02-06T10:00:15Z</time></trkpt>
<trkpt lat="43.820195" lon="5.449218"><ele>941.4</ele><time>2011-02-06T10:00:20Z</time></trkpt>
<trkpt lat="43.820103" lon="5.449223"><ele>942.2</ele><time>2011-02-06T10:00:25Z</time></trkpt>
<trkpt lat="43.820012" lon="5.449235"><ele>942.8</ele><time>2011-02-06T10:00:30Z</time></trkpt>
<trkpt lat="43.819920" lon="5.449240"><ele>943.5</ele><time>2011-02-06T10:00:35Z</time></trkpt>
<trkpt lat="43.819828" lon="5.449237"><ele>944.1</ele><time>2011-02-06T10:00:40Z</time></trkpt>
<trkpt lat="43.819737" lon="5.449225"><ele>944.9</ele><time>2011-02-06T10:00:45Z</time></trkpt>
<trkpt lat="43.819645" lon="5.449197"><ele>945.5</ele><time>2011-02-06T10:00:50Z</time></trkpt>
<trkpt lat="43.819557" lon="5.449155"><ele>946.1</ele><time>2011-02-06T10:00:55Z</time></trkpt>
<trkpt lat="43.819477" lon="5.449098"><ele>946.9</ele><time>2011-02-06T10:01:00Z</time></trkpt>
<trkpt lat="43.819393" lon="5.449037"><ele>947.7</ele><time>2011-02-06T10:01:05Z</time></trkpt>
<trkpt lat="43.819313" lon="5.448975"><ele>948.4</ele><time>2011-02-06T10:01:10Z</time></trkpt>
<trkpt lat="43.819233" lon="5.448920"><ele>949.2</ele><time>2011-02-06T10:01:15Z</time></trkpt>
<trkpt lat="43.819148" lon="5.448867"><ele>949.9</ele><time>2011-02-06T10:01:20Z</time></trkpt>
<trkpt lat="43.819073" lon="5.448810"><ele>950.5</ele><time>2011-02-06T10:01:25Z</time></trkpt>
<trkpt lat="43.818988" lon="5.448755"><ele>951.3</ele><time>2011-02-06T10:01:30Z</time></trkpt>
<trkpt lat="43.818920" lon="5.448705"><ele>952.2</ele><time>2011-02-06T10:01:35Z</time></trkpt>
<trkpt lat="43.818848" lon="5.448652"><ele>953.1</ele><time>2011-02-06T10:01:40Z</time></trkpt>
<trkpt lat="43.818768" lon="5.448597"><ele>954</ele><time>2011-02-06T10:01:45Z</time></trkpt>
<trkpt lat="43.818683" lon="5.448543"><ele>954.9</ele><time>2011-02-06T10:01:50Z</time></trkpt>
<trkpt lat="43.818597" lon="5.448497"><ele>955.5</ele><time>2011-02-06T10:01:55Z</time></trkpt>
<trkpt lat="43.818497" lon="5.448472"><ele>956.1</ele><time>2011-02-06T10:02:00Z</time></trkpt>
<trkpt lat="43.818420" lon="5.448465"><ele>956.2</ele><time>2011-02-06T10:02:05Z</time></trkpt>
<trkpt lat="43.818425" lon="5.448467"><ele>956.1</ele><time>2011-02-06T10:02:10Z</time></trkpt>
<trkpt lat="43.818425" lon="5.448467"><ele>955.9</ele><time>2011-02-06T10:02:15Z</time></trkpt>
<trkpt lat="43.818425" lon="5.448467"><ele>955.7</ele><time>2011-02-06T10:02:20Z</time></trkpt>
<trkpt lat="43.818425" lon="5.448468"><ele>955.5</ele><time>2011-02-06T10:02:25Z</time></trkpt>
<trkpt lat="43.818425" lon="5.448468"><ele>955.4</ele><time>2011-02-06T10:02:30Z</time></trkpt>
<trkpt lat="43.818413" lon="5.448453"><ele>955.5</ele><time>2011-02-06T10:02:35Z</time></trkpt>
<trkpt lat="43.818447" lon="5.448400"><ele>955.6</ele><time>2011-02-06T10:02:40Z</time></trkpt>
<trkpt lat="43.818515" lon="5.448373"><ele>955.5</ele><time>2011-02-06T10:02:45Z</time></trkpt>
<trkpt lat="43.818592" lon="5.448358"><ele>955.3</ele><time>2011-02-06T10:02:50Z</time></trkpt>
<trkpt lat="43.818618" lon="5.448340"><ele>955.3</ele><time>2011-02-06T10:02:55Z</time></trkpt>
<trkpt lat="43.818618" lon="5.448342"><ele>955.3</ele><time>2011-02-06T10:03:00Z</time></trkpt>
<trkpt lat="43.818630" lon="5.448310"><ele>955.5</ele><time>2011-02-06T10:03:05Z</time></trkpt>
<trkpt lat="43.818618" lon="5.448340"><ele>955.4</ele><time>2011-02-06T10:03:10Z</time></trkpt>
<trkpt lat="43.818618" lon="5.448350"><ele>955.3</ele><time>2011-02-06T10:03:15Z</time></trkpt>
<trkpt lat="43.818618" lon="5.448353"><ele>955.2</ele><time>2011-02-06T10:03:20Z</time></trkpt>
<trkpt lat="43.818615" lon="5.448352"><ele>955.1</ele><time>2011-02-06T10:03:25Z</time></trkpt>
<trkpt lat="43.818618" lon="5.448350"><ele>955</ele><time>2011-02-06T10:03:30Z</time></trkpt>
<trkpt lat="43.818618" lon="5.448350"><ele>954.9</ele><time>2011-02-06T10:03:35Z</time></trkpt>
<trkpt lat="43.818618" lon="5.448352"><ele>954.8</ele><time>2011-02-06T10:03:40Z</time></trkpt>
<trkpt lat="43.818618" lon="5.448352"><ele>954.8</ele><time>2011-02-06T10:03:45Z</time></trkpt>
<trkpt lat="43.818618" lon="5.448352"><ele>954.8</ele><time>2011-02-06T10:03:50Z</time></trkpt>
<trkpt lat="43.818618" lon="5.448353"><ele>954.8</ele><time>2011-02-06T10:03:55Z</time></trkpt>
<trkpt lat="43.818603" lon="5.448402"><ele>955.4</ele><time>2011-02-06T10:04:00Z</time></trkpt>
<trkpt lat="43.818553" lon="5.448463"><ele>955.9</ele><time>2011-02-06T10:04:05Z</time></trkpt>
<trkpt lat="43.818505" lon="5.448543"><ele>956.5</ele><time>2011-02-06T10:04:10Z</time></trkpt>
<trkpt lat="43.818462" lon="5.448627"><ele>957.2</ele><time>2011-02-06T10:04:15Z</time></trkpt>
<trkpt lat="43.818452" lon="5.448750"><ele>957.6</ele><time>2011-02-06T10:04:20Z</time></trkpt>
<trkpt lat="43.818440" lon="5.448870"><ele>958.2</ele><time>2011-02-06T10:04:25Z</time></trkpt>
<trkpt lat="43.818413" lon="5.448983"><ele>958.8</ele><time>2011-02-06T10:04:30Z</time></trkpt>
<trkpt lat="43.818382" lon="5.449100"><ele>959.3</ele><time>2011-02-06T10:04:35Z</time></trkpt>
<trkpt lat="43.818348" lon="5.449218"><ele>959.9</ele><time>2011-02-06T10:04:40Z</time></trkpt>
<trkpt lat="43.818313" lon="5.449332"><ele>960.5</ele><time>2011-02-06T10:04:45Z</time></trkpt>
<trkpt lat="43.818280" lon="5.449447"><ele>961.1</ele><time>2011-02-06T10:04:50Z</time></trkpt>
<trkpt lat="43.818245" lon="5.449558"><ele>961.6</ele><time>2011-02-06T10:04:55Z</time></trkpt>
<trkpt lat="43.818218" lon="5.449672"><ele>962</ele><time>2011-02-06T10:05:00Z</time></trkpt>
<trkpt lat="43.818198" lon="5.449790"><ele>962.4</ele><time>2011-02-06T10:05:05Z</time></trkpt>
<trkpt lat="43.818188" lon="5.449903"><ele>962.8</ele><time>2011-02-06T10:05:10Z</time></trkpt>
<trkpt lat="43.818172" lon="5.450023"><ele>963.4</ele><time>2011-02-06T10:05:15Z</time></trkpt>
<trkpt lat="43.818203" lon="5.450148"><ele>964.1</ele><time>2011-02-06T10:05:20Z</time></trkpt>
<trkpt lat="43.818268" lon="5.450257"><ele>964.8</ele><time>2011-02-06T10:05:25Z</time></trkpt>
<trkpt lat="43.818337" lon="5.450330"><ele>965.5</ele><time>2011-02-06T10:05:30Z</time></trkpt>
<trkpt lat="43.818428" lon="5.450405"><ele>966.2</ele><time>2011-02-06T10:05:35Z</time></trkpt>
<trkpt lat="43.818508" lon="5.450500"><ele>966.9</ele><time>2011-02-06T10:05:40Z</time></trkpt>
<trkpt lat="43.818588" lon="5.450603"><ele>967.5</ele><time>2011-02-06T10:05:45Z</time></trkpt>
<trkpt lat="43.818660" lon="5.450710"><ele>968.2</ele><time>2011-02-06T10:05:50Z</time></trkpt>
<trkpt lat="43.818725" lon="5.450825"><ele>968.9</ele><time>2011-02-06T10:05:55Z</time></trkpt>
<trkpt lat="43.818790" lon="5.450948"><ele>969.4</ele><time>2011-02-06T10:06:00Z</time></trkpt>
<trkpt lat="43.818843" lon="5.451082"><ele>970</ele><time>2011-02-06T10:06:05Z</time></trkpt>
<trkpt lat="43.818893" lon="5.451217"><ele>970.6</ele><time>2011-02-06T10:06:10Z</time></trkpt>
<trkpt lat="43.818940" lon="5.451360"><ele>971.1</ele><time>2011-02-06T10:06:15Z</time></trkpt>
<trkpt lat="43.818977" lon="5.451507"><ele>971.6</ele><time>2011-02-06T10:06:20Z</time></trkpt>
<trkpt lat="43.818993" lon="5.451658"><ele>972.1</ele><time>2011-02-06T10:06:25Z</time></trkpt>
<trkpt lat="43.819050" lon="5.451797"><ele>972.6</ele><time>2011-02-06T10:06:30Z</time></trkpt>
<trkpt lat="43.819080" lon="5.451948"><ele>973.2</ele><time>2011-02-06T10:06:35Z</time></trkpt>
<trkpt lat="43.819100" lon="5.452103"><ele>973.7</ele><time>2011-02-06T10:06:40Z</time></trkpt>
<trkpt lat="43.819107" lon="5.452258"><ele>974.1</ele><time>2011-02-06T10:06:45Z</time></trkpt>
<trkpt lat="43.819107" lon="5.452415"><ele>974.6</ele><time>2011-02-06T10:06:50Z</time></trkpt>
<trkpt lat="43.819122" lon="5.452558"><ele>975</ele><time>2011-02-06T10:06:55Z</time></trkpt>
<trkpt lat="43.819130" lon="5.452712"><ele>975.4</ele><time>2011-02-06T10:07:00Z</time></trkpt>
<trkpt lat="43.819148" lon="5.452867"><ele>975.8</ele><time>2011-02-06T10:07:05Z</time></trkpt>
<trkpt lat="43.819172" lon="5.453023"><ele>976.2</ele><time>2011-02-06T10:07:10Z</time></trkpt>
<trkpt lat="43.819207" lon="5.453173"><ele>976.8</ele><time>2011-02-06T10:07:15Z</time></trkpt>
<trkpt lat="43.819248" lon="5.453318"><ele>977.3</ele><time>2011-02-06T10:07:20Z</time></trkpt>
<trkpt lat="43.819317" lon="5.453453"><ele>977.8</ele><time>2011-02-06T10:07:25Z</time></trkpt>
<trkpt lat="43.819352" lon="5.453612"><ele>978.2</ele><time>2011-02-06T10:07:30Z</time></trkpt>
<trkpt lat="43.819382" lon="5.453765"><ele>978.7</ele><time>2011-02-06T10:07:35Z</time></trkpt>
<trkpt lat="43.819397" lon="5.453918"><ele>979.1</ele><time>2011-02-06T10:07:40Z</time></trkpt>
<trkpt lat="43.819390" lon="5.454075"><ele>979.8</ele><time>2011-02-06T10:07:45Z</time></trkpt>
<trkpt lat="43.819417" lon="5.454230"><ele>980.3</ele><time>2011-02-06T10:07:50Z</time></trkpt>
<trkpt lat="43.819462" lon="5.454385"><ele>980.8</ele><time>2011-02-06T10:07:55Z</time></trkpt>
<trkpt lat="43.819488" lon="5.454542"><ele>981.3</ele><time>2011-02-06T10:08:00Z</time></trkpt>
<trkpt lat="43.819485" lon="5.454703"><ele>981.8</ele><time>2011-02-06T10:08:05Z</time></trkpt>
<trkpt lat="43.819482" lon="5.454858"><ele>982.5</ele><time>2011-02-06T10:08:10Z</time></trkpt>
<trkpt lat="43.819473" lon="5.455007"><ele>983.2</ele><time>2011-02-06T10:08:15Z</time></trkpt>
<trkpt lat="43.819458" lon="5.455148"><ele>984</ele><time>2011-02-06T10:08:20Z</time></trkpt>
<trkpt lat="43.819447" lon="5.455272"><ele>984.5</ele><time>2011-02-06T10:08:25Z</time></trkpt>
<trkpt lat="43.819423" lon="5.455392"><ele>985.1</ele><time>2011-02-06T10:08:30Z</time></trkpt>
<trkpt lat="43.819412" lon="5.455520"><ele>985.7</ele><time>2011-02-06T10:08:35Z</time></trkpt>
<trkpt lat="43.819412" lon="5.455647"><ele>986.6</ele><time>2011-02-06T10:08:40Z</time></trkpt>
<trkpt lat="43.819420" lon="5.455773"><ele>987.4</ele><time>2011-02-06T10:08:45Z</time></trkpt>
<trkpt lat="43.819435" lon="5.455902"><ele>988.1</ele><time>2011-02-06T10:08:50Z</time></trkpt>
<trkpt lat="43.819465" lon="5.456028"><ele>988.7</ele><time>2011-02-06T10:08:55Z</time></trkpt>
<trkpt lat="43.819508" lon="5.456145"><ele>989.5</ele><time>2011-02-06T10:09:00Z</time></trkpt>
<trkpt lat="43.819545" lon="5.456258"><ele>990.4</ele><time>2011-02-06T10:09:05Z</time></trkpt>
<trkpt lat="43.819568" lon="5.456387"><ele>991.4</ele><time>2011-02-06T10:09:10Z</time></trkpt>
<trkpt lat="43.819580" lon="5.456515"><ele>992.2</ele><time>2011-02-06T10:09:15Z</time></trkpt>
<trkpt lat="43.819580" lon="5.456648"><ele>992.9</ele><time>2011-02-06T10:09:20Z</time></trkpt>
<trkpt lat="43.819572" lon="5.456778"><ele>993.7</ele><time>2011-02-06T10:09:25Z</time></trkpt>
<trkpt lat="43.819542" lon="5.456903"><ele>994.3</ele><time>2011-02-06T10:09:30Z</time></trkpt>
<trkpt lat="43.819488" lon="5.457002"><ele>994.8</ele><time>2011-02-06T10:09:35Z</time></trkpt>
<trkpt lat="43.819438" lon="5.457097"><ele>995.5</ele><time>2011-02-06T10:09:40Z</time></trkpt>
<trkpt lat="43.819417" lon="5.457192"><ele>995.9</ele><time>2011-02-06T10:09:45Z</time></trkpt>
<trkpt lat="43.819378" lon="5.457287"><ele>996.4</ele><time>2011-02-06T10:09:50Z</time></trkpt>
<trkpt lat="43.819343" lon="5.457390"><ele>996.9</ele><time>2011-02-06T10:09:55Z</time></trkpt>
<trkpt lat="43.819310" lon="5.457502"><ele>997.6</ele><time>2011-02-06T10:10:00Z</time></trkpt>
<trkpt lat="43.819272" lon="5.457612"><ele>998.3</ele><time>2011-02-06T10:10:05Z</time></trkpt>
<trkpt lat="43.819233" lon="5.457717"><ele>999</ele><time>2011-02-06T10:10:10Z</time></trkpt>
<trkpt lat="43.819187" lon="5.457822"><ele>999.8</ele><time>2011-02-06T10:10:15Z</time></trkpt>
<trkpt lat="43.819148" lon="5.457917"><ele>1000.5</ele><time>2011-02-06T10:10:20Z</time></trkpt>
<trkpt lat="43.819112" lon="5.458000"><ele>1001.1</ele><time>2011-02-06T10:10:25Z</time></trkpt>
<trkpt lat="43.819065" lon="5.458082"><ele>1001.6</ele><time>2011-02-06T10:10:30Z</time></trkpt>
<trkpt lat="43.819030" lon="5.458165"><ele>1002.1</ele><time>2011-02-06T10:10:35Z</time></trkpt>
<trkpt lat="43.818997" lon="5.458257"><ele>1002.5</ele><time>2011-02-06T10:10:40Z</time></trkpt>
<trkpt lat="43.818955" lon="5.458347"><ele>1002.9</ele><time>2011-02-06T10:10:45Z</time></trkpt>
<trkpt lat="43.818940" lon="5.458463"><ele>1003.3</ele><time>2011-02-06T10:10:50Z</time></trkpt>
<trkpt lat="43.818947" lon="5.458588"><ele>1003.7</ele><time>2011-02-06T10:10:55Z</time></trkpt>
<trkpt lat="43.818950" lon="5.458718"><ele>1004.2</ele><time>2011-02-06T10:11:00Z</time></trkpt>
<trkpt lat="43.818955" lon="5.458862"><ele>1004.6</ele><time>2011-02-06T10:11:05Z</time></trkpt>
<trkpt lat="43.818962" lon="5.459013"><ele>1005.3</ele><time>2011-02-06T10:11:10Z</time></trkpt>
<trkpt lat="43.818985" lon="5.459162"><ele>1005.9</ele><time>2011-02-06T10:11:15Z</time></trkpt>
<trkpt lat="43.819015" lon="5.459307"><ele>1006.4</ele><time>2011-02-06T10:11:20Z</time></trkpt>
<trkpt lat="43.819050" lon="5.459452"><ele>1007</ele><time>2011-02-06T10:11:25Z</time></trkpt>
<trkpt lat="43.819092" lon="5.459613"><ele>1007.5</ele><time>2011-02-06T10:11:30Z</time></trkpt>
<trkpt lat="43.819145" lon="5.459782"><ele>1007.9</ele><time>2011-02-06T10:11:35Z</time></trkpt>
<trkpt lat="43.819198" lon="5.459952"><ele>1008.1</ele><time>2011-02-06T10:11:40Z</time></trkpt>
<trkpt lat="43.819252" lon="5.460127"><ele>1008.2</ele><time>2011-02-06T10:11:45Z</time></trkpt>
<trkpt lat="43.819320" lon="5.460303"><ele>1008.4</ele><time>2011-02-06T10:11:50Z</time></trkpt>
<trkpt lat="43.819385" lon="5.460490"><ele>1008.5</ele><time>2011-02-06T10:11:55Z</time></trkpt>
<trkpt lat="43.819423" lon="5.460690"><ele>1008.4</ele><time>2011-02-06T10:12:00Z</time></trkpt>
<trkpt lat="43.819485" lon="5.460887"><ele>1008.5</ele><time>2011-02-06T10:12:05Z</time></trkpt>
<trkpt lat="43.819508" lon="5.461082"><ele>1008.6</ele><time>2011-02-06T10:12:10Z</time></trkpt>
<trkpt lat="43.819492" lon="5.461252"><ele>1009.2</ele><time>2011-02-06T10:12:15Z</time></trkpt>
<trkpt lat="43.819497" lon="5.461418"><ele>1009.9</ele><time>2011-02-06T10:12:20Z</time></trkpt>
<trkpt lat="43.819508" lon="5.461560"><ele>1010.9</ele><time>2011-02-06T10:12:25Z</time></trkpt>
<trkpt lat="43.819527" lon="5.461677"><ele>1011.8</ele><time>2011-02-06T10:12:30Z</time></trkpt>
<trkpt lat="43.819542" lon="5.461782"><ele>1012.8</ele><time>2011-02-06T10:12:35Z</time></trkpt>
<trkpt lat="43.819562" lon="5.461860"><ele>1013.6</ele><time>2011-02-06T10:12:40Z</time></trkpt>
<trkpt lat="43.819580" lon="5.461957"><ele>1014.6</ele><time>2011-02-06T10:12:45Z</time></trkpt>
<trkpt lat="43.819580" lon="5.461965"><ele>1014.6</ele><time>2011-02-06T10:12:50Z</time></trkpt>
<trkpt lat="43.819583" lon="5.461980"><ele>1015</ele><time>2011-02-06T10:12:55Z</time></trkpt>
<trkpt lat="43.819592" lon="5.462038"><ele>1015.8</ele><time>2011-02-06T10:13:00Z</time></trkpt>
<trkpt lat="43.819598" lon="5.462047"><ele>1016.6</ele><time>2011-02-06T10:13:05Z</time></trkpt>
<trkpt lat="43.819603" lon="5.462060"><ele>1016.8</ele><time>2011-02-06T10:13:10Z</time></trkpt>
<trkpt lat="43.819610" lon="5.462068"><ele>1017.3</ele><time>2011-02-06T10:13:15Z</time></trkpt>
<trkpt lat="43.819618" lon="5.462102"><ele>1017.4</ele><time>2011-02-06T10:13:20Z</time></trkpt>
<trkpt lat="43.819622" lon="5.462172"><ele>1017.5</ele><time>2011-02-06T10:13:25Z</time></trkpt>
<trkpt lat="43.819648" lon="5.462222"><ele>1017.9</ele><time>2011-02-06T10:13:30Z</time></trkpt>
<trkpt lat="43.819672" lon="5.462297"><ele>1018.7</ele><time>2011-02-06T10:13:35Z</time></trkpt>
<trkpt lat="43.819702" lon="5.462375"><ele>1019.1</ele><time>2011-02-06T10:13:40Z</time></trkpt>
<trkpt lat="43.819733" lon="5.462458"><ele>1019.8</ele><time>2011-02-06T10:13:45Z</time></trkpt>
<trkpt lat="43.819767" lon="5.462547"><ele>1020.3</ele><time>2011-02-06T10:13:50Z</time></trkpt>
<trkpt lat="43.819802" lon="5.462632"><ele>1021</ele><time>2011-02-06T10:13:55Z</time></trkpt>
<trkpt lat="43.819835" lon="5.462720"><ele>1021.5</ele><time>2011-02-06T10:14:00Z</time></trkpt>
<trkpt lat="43.819862" lon="5.462815"><ele>1022.1</ele><time>2011-02-06T10:14:05Z</time></trkpt>
<trkpt lat="43.819882" lon="5.462903"><ele>1023.9</ele><time>2011-02-06T10:14:10Z</time></trkpt>
<trkpt lat="43.819900" lon="5.462977"><ele>1026</ele><time>2011-02-06T10:14:15Z</time></trkpt>
<trkpt lat="43.819900" lon="5.463055"><ele>1026.8</ele><time>2011-02-06T10:14:20Z</time></trkpt>
<trkpt lat="43.819908" lon="5.463165"><ele>1026.4</ele><time>2011-02-06T10:14:25Z</time></trkpt>
<trkpt lat="43.819920" lon="5.463280"><ele>1026.1</ele><time>2011-02-06T10:14:30Z</time></trkpt>
<trkpt lat="43.819915" lon="5.463397"><ele>1025.7</ele><time>2011-02-06T10:14:35Z</time></trkpt>
<trkpt lat="43.819900" lon="5.463502"><ele>1026.5</ele><time>2011-02-06T10:14:40Z</time></trkpt>
<trkpt lat="43.819888" lon="5.463600"><ele>1027.5</ele><time>2011-02-06T10:14:45Z</time></trkpt>
<trkpt lat="43.819878" lon="5.463672"><ele>1028.4</ele><time>2011-02-06T10:14:50Z</time></trkpt>
<trkpt lat="43.819855" lon="5.463718"><ele>1030.2</ele><time>2011-02-06T10:14:55Z</time></trkpt>
<trkpt lat="43.819858" lon="5.463732"><ele>1030.3</ele><time>2011-02-06T10:15:00Z</time></trkpt>
<trkpt lat="43.819862" lon="5.463748"><ele>1030.3</ele><time>2011-02-06T10:15:05Z</time></trkpt>
<trkpt lat="43.819858" lon="5.463798"><ele>1030.3</ele><time>2011-02-06T10:15:10Z</time></trkpt>
<trkpt lat="43.819835" lon="5.463823"><ele>1029.7</ele><time>2011-02-06T10:15:15Z</time></trkpt>
<trkpt lat="43.819793" lon="5.463895"><ele>1029.9</ele><time>2011-02-06T10:15:20Z</time></trkpt>
<trkpt lat="43.819752" lon="5.463982"><ele>1029.6</ele><time>2011-02-06T10:15:25Z</time></trkpt>
<trkpt lat="43.819725" lon="5.464072"><ele>1030.4</ele><time>2011-02-06T10:15:30Z</time></trkpt>
<trkpt lat="43.819695" lon="5.464157"><ele>1030.8</ele><time>2011-02-06T10:15:35Z</time></trkpt>
<trkpt lat="43.819660" lon="5.464232"><ele>1030.9</ele><time>2011-02-06T10:15:40Z</time></trkpt>
<trkpt lat="43.819653" lon="5.464258"><ele>1031.3</ele><time>2011-02-06T10:15:45Z</time></trkpt>
<trkpt lat="43.819637" lon="5.464290"><ele>1031.7</ele><time>2011-02-06T10:15:50Z</time></trkpt>
<trkpt lat="43.819618" lon="5.464307"><ele>1032</ele><time>2011-02-06T10:15:55Z</time></trkpt>
<trkpt lat="43.819603" lon="5.464362"><ele>1032.5</ele><time>2011-02-06T10:16:00Z</time></trkpt>
<trkpt lat="43.819595" lon="5.464398"><ele>1033.5</ele><time>2011-02-06T10:16:05Z</time></trkpt>
<trkpt lat="43.819583" lon="5.464425"><ele>1033.6</ele><time>2011-02-06T10:16:10Z</time></trkpt>
<trkpt lat="43.819557" lon="5.464495"><ele>1034.5</ele><time>2011-02-06T10:16:15Z</time></trkpt>
<trkpt lat="43.819538" lon="5.464570"><ele>1034.4</ele><time>2011-02-06T10:16:20Z</time></trkpt>
<trkpt lat="43.819542" lon="5.464583"><ele>1034</ele><time>2011-02-06T10:16:25Z</time></trkpt>
<trkpt lat="43.819530" lon="5.464620"><ele>1034.5</ele><time>2011-02-06T10:16:30Z</time></trkpt>
<trkpt lat="43.819527" lon="5.464667"><ele>1034.8</ele><time>2011-02-06T10:16:35Z</time></trkpt>
<trkpt lat="43.819515" lon="5.464720"><ele>1034.8</ele><time>2011-02-06T10:16:40Z</time></trkpt>
<trkpt lat="43.819508" lon="5.464775"><ele>1035.5</ele><time>2011-02-06T10:16:45Z</time></trkpt>
<trkpt lat="43.819497" lon="5.464840"><ele>1036.1</ele><time>2011-02-06T10:16:50Z</time></trkpt>
<trkpt lat="43.819485" lon="5.464897"><ele>1036.8</ele><time>2011-02-06T10:16:55Z</time></trkpt>
<trkpt lat="43.819482" lon="5.464957"><ele>1037.3</ele><time>2011-02-06T10:17:00Z</time></trkpt>
<trkpt lat="43.819477" lon="5.465017"><ele>1037.7</ele><time>2011-02-06T10:17:05Z</time></trkpt>
<trkpt lat="43.819477" lon="5.465083"><ele>1038.5</ele><time>2011-02-06T10:17:10Z</time></trkpt>
<trkpt lat="43.819477" lon="5.465137"><ele>1040.5</ele><time>2011-02-06T10:17:15Z</time></trkpt>
<trkpt lat="43.819473" lon="5.465175"><ele>1043.7</ele><time>2011-02-06T10:17:20Z</time></trkpt>
<trkpt lat="43.819485" lon="5.465205"><ele>1047.6</ele><time>2011-02-06T10:17:25Z</time></trkpt>
<trkpt lat="43.819473" lon="5.465243"><ele>1050.6</ele><time>2011-02-06T10:17:30Z</time></trkpt>
<trkpt lat="43.819497" lon="5.465352"><ele>1052.7</ele><time>2011-02-06T10:17:35Z</time></trkpt>
<trkpt lat="43.819523" lon="5.465453"><ele>1056.8</ele><time>2011-02-06T10:17:40Z</time></trkpt>
<trkpt lat="43.819577" lon="5.465568"><ele>1058.9</ele><time>2011-02-06T10:17:45Z</time></trkpt>
<trkpt lat="43.819603" lon="5.465653"><ele>1062.2</ele><time>2011-02-06T10:17:50Z</time></trkpt>
<trkpt lat="43.819622" lon="5.465735"><ele>1063.4</ele><time>2011-02-06T10:17:55Z</time></trkpt>
<trkpt lat="43.819663" lon="5.465817"><ele>1065</ele><time>2011-02-06T10:18:00Z</time></trkpt>
<trkpt lat="43.819687" lon="5.465903"><ele>1063.8</ele><time>2011-02-06T10:18:05Z</time></trkpt>
<trkpt lat="43.819707" lon="5.465990"><ele>1063.6</ele><time>2011-02-06T10:18:10Z</time></trkpt>
<trkpt lat="43.819713" lon="5.466058"><ele>1063.8</ele><time>2011-02-06T10:18:15Z</time></trkpt>
<trkpt lat="43.819737" lon="5.466147"><ele>1063.5</ele><time>2011-02-06T10:18:20Z</time></trkpt>
<trkpt lat="43.819770" lon="5.466275"><ele>1058.9</ele><time>2011-02-06T10:18:25Z</time></trkpt>
<trkpt lat="43.819787" lon="5.466378"><ele>1056.9</ele><time>2011-02-06T10:18:30Z</time></trkpt>
<trkpt lat="43.819793" lon="5.466483"><ele>1055.7</ele><time>2011-02-06T10:18:35Z</time></trkpt>
<trkpt lat="43.819802" lon="5.466583"><ele>1055.5</ele><time>2011-02-06T10:18:40Z</time></trkpt>
<trkpt lat="43.819813" lon="5.466603"><ele>1054</ele><time>2011-02-06T10:18:45Z</time></trkpt>
<trkpt lat="43.819813" lon="5.466640"><ele>1053.6</ele><time>2011-02-06T10:18:50Z</time></trkpt>
<trkpt lat="43.819802" lon="5.466712"><ele>1053.8</ele><time>2011-02-06T10:18:55Z</time></trkpt>
<trkpt lat="43.819782" lon="5.466780"><ele>1054.1</ele><time>2011-02-06T10:19:00Z</time></trkpt>
<trkpt lat="43.819760" lon="5.466840"><ele>1054.1</ele><time>2011-02-06T10:19:05Z</time></trkpt>
<trkpt lat="43.819733" lon="5.466903"><ele>1054.2</ele><time>2011-02-06T10:19:10Z</time></trkpt>
<trkpt lat="43.819702" lon="5.466957"><ele>1054.2</ele><time>2011-02-06T10:19:15Z</time></trkpt>
<trkpt lat="43.819672" lon="5.467020"><ele>1054.3</ele><time>2011-02-06T10:19:20Z</time></trkpt>
<trkpt lat="43.819637" lon="5.467083"><ele>1054.6</ele><time>2011-02-06T10:19:25Z</time></trkpt>
<trkpt lat="43.819598" lon="5.467140"><ele>1055</ele><time>2011-02-06T10:19:30Z</time></trkpt>
<trkpt lat="43.819562" lon="5.467195"><ele>1055.2</ele><time>2011-02-06T10:19:35Z</time></trkpt>
<trkpt lat="43.819518" lon="5.467238"><ele>1055.2</ele><time>2011-02-06T10:19:40Z</time></trkpt>
<trkpt lat="43.819482" lon="5.467288"><ele>1055.5</ele><time>2011-02-06T10:19:45Z</time></trkpt>
<trkpt lat="43.819443" lon="5.467335"><ele>1055.6</ele><time>2011-02-06T10:19:50Z</time></trkpt>
<trkpt lat="43.819438" lon="5.467350"><ele>1055.5</ele><time>2011-02-06T10:19:55Z</time></trkpt>
<trkpt lat="43.819435" lon="5.467352"><ele>1055.4</ele><time>2011-02-06T10:20:00Z</time></trkpt>
<trkpt lat="43.819378" lon="5.467392"><ele>1055.3</ele><time>2011-02-06T10:20:05Z</time></trkpt>
<trkpt lat="43.819328" lon="5.467432"><ele>1055.7</ele><time>2011-02-06T10:20:10Z</time></trkpt>
<trkpt lat="43.819263" lon="5.467483"><ele>1056.1</ele><time>2011-02-06T10:20:15Z</time></trkpt>
<trkpt lat="43.819198" lon="5.467535"><ele>1056.6</ele><time>2011-02-06T10:20:20Z</time></trkpt>
<trkpt lat="43.819130" lon="5.467573"><ele>1057.2</ele><time>2011-02-06T10:20:25Z</time></trkpt>
<trkpt lat="43.819057" lon="5.467615"><ele>1058</ele><time>2011-02-06T10:20:30Z</time></trkpt>
<trkpt lat="43.818988" lon="5.467655"><ele>1058.7</ele><time>2011-02-06T10:20:35Z</time></trkpt>
<trkpt lat="43.818917" lon="5.467693"><ele>1059.5</ele><time>2011-02-06T10:20:40Z</time></trkpt>
<trkpt lat="43.818840" lon="5.467732"><ele>1060.3</ele><time>2011-02-06T10:20:45Z</time></trkpt>
<trkpt lat="43.818768" lon="5.467772"><ele>1061.3</ele><time>2011-02-06T10:20:50Z</time></trkpt>
<trkpt lat="43.818695" lon="5.467805"><ele>1062.1</ele><time>2011-02-06T10:20:55Z</time></trkpt>
<trkpt lat="43.818627" lon="5.467828"><ele>1062.8</ele><time>2011-02-06T10:21:00Z</time></trkpt>
<trkpt lat="43.818550" lon="5.467842"><ele>1063.1</ele><time>2011-02-06T10:21:05Z</time></trkpt>
<trkpt lat="43.818478" lon="5.467857"><ele>1063.7</ele><time>2011-02-06T10:21:10Z</time></trkpt>
<trkpt lat="43.818405" lon="5.467870"><ele>1064</ele><time>2011-02-06T10:21:15Z</time></trkpt>
<trkpt lat="43.818337" lon="5.467893"><ele>1064.8</ele><time>2011-02-06T10:21:20Z</time></trkpt>
<trkpt lat="43.818263" lon="5.467898"><ele>1065.7</ele><time>2011-02-06T10:21:25Z</time></trkpt>
<trkpt lat="43.818183" lon="5.467913"><ele>1067.1</ele><time>2011-02-06T10:21:30Z</time></trkpt>
<trkpt lat="43.818108" lon="5.467927"><ele>1068.6</ele><time>2011-02-06T10:21:35Z</time></trkpt>
<trkpt lat="43.818038" lon="5.467945"><ele>1070.3</ele><time>2011-02-06T10:21:40Z</time></trkpt>
<trkpt lat="43.817963" lon="5.467957"><ele>1070.9</ele><time>2011-02-06T10:21:45Z</time></trkpt>
<trkpt lat="43.817887" lon="5.467973"><ele>1072</ele><time>2011-02-06T10:21:50Z</time></trkpt>
<trkpt lat="43.817813" lon="5.467993"><ele>1072.6</ele><time>2011-02-06T10:21:55Z</time></trkpt>
<trkpt lat="43.817738" lon="5.468003"><ele>1073.4</ele><time>2011-02-06T10:22:00Z</time></trkpt>
<trkpt lat="43.817665" lon="5.468030"><ele>1074.6</ele><time>2011-02-06T10:22:05Z</time></trkpt>
<trkpt lat="43.817588" lon="5.468053"><ele>1075</ele><time>2011-02-06T10:22:10Z</time></trkpt>
<trkpt lat="43.817520" lon="5.468087"><ele>1076</ele><time>2011-02-06T10:22:15Z</time></trkpt>
<trkpt lat="43.817448" lon="5.468112"><ele>1076.5</ele><time>2011-02-06T10:22:20Z</time></trkpt>
<trkpt lat="43.817387" lon="5.468137"><ele>1076.8</ele><time>2011-02-06T10:22:25Z</time></trkpt>
<trkpt lat="43.817325" lon="5.468167"><ele>1076.9</ele><time>2011-02-06T10:22:30Z</time></trkpt>
<trkpt lat="43.817260" lon="5.468195"><ele>1077.7</ele><time>2011-02-06T10:22:35Z</time></trkpt>
<trkpt lat="43.817197" lon="5.468220"><ele>1078.7</ele><time>2011-02-06T10:22:40Z</time></trkpt>
<trkpt lat="43.817123" lon="5.468253"><ele>1079.5</ele><time>2011-02-06T10:22:45Z</time></trkpt>
<trkpt lat="43.817055" lon="5.468283"><ele>1080.3</ele><time>2011-02-06T10:22:50Z</time></trkpt>
<trkpt lat="43.816982" lon="5.468320"><ele>1081.1</ele><time>2011-02-06T10:22:55Z</time></trkpt>
<trkpt lat="43.816913" lon="5.468358"><ele>1081.9</ele><time>2011-02-06T10:23:00Z</time></trkpt>
<trkpt lat="43.816853" lon="5.468397"><ele>1082.8</ele><time>2011-02-06T10:23:05Z</time></trkpt>
<trkpt lat="43.816795" lon="5.468433"><ele>1083.5</ele><time>2011-02-06T10:23:10Z</time></trkpt>
<trkpt lat="43.816735" lon="5.468477"><ele>1084</ele><time>2011-02-06T10:23:15Z</time></trkpt>
<trkpt lat="43.816673" lon="5.468522"><ele>1084.4</ele><time>2011-02-06T10:23:20Z</time></trkpt>
<trkpt lat="43.816635" lon="5.468555"><ele>1084.6</ele><time>2011-02-06T10:23:25Z</time></trkpt>
<trkpt lat="43.816628" lon="5.468563"><ele>1084.4</ele><time>2011-02-06T10:23:30Z</time></trkpt>
<trkpt lat="43.816620" lon="5.468580"><ele>1084.2</ele><time>2011-02-06T10:23:35Z</time></trkpt>
<trkpt lat="43.816582" lon="5.468612"><ele>1084.4</ele><time>2011-02-06T10:23:40Z</time></trkpt>
<trkpt lat="43.816540" lon="5.468648"><ele>1084.7</ele><time>2011-02-06T10:23:45Z</time></trkpt>
<trkpt lat="43.816493" lon="5.468683"><ele>1085.1</ele><time>2011-02-06T10:23:50Z</time></trkpt>
<trkpt lat="43.816452" lon="5.468712"><ele>1085.6</ele><time>2011-02-06T10:23:55Z</time></trkpt>
<trkpt lat="43.816452" lon="5.468718"><ele>1085.6</ele><time>2011-02-06T10:24:00Z</time></trkpt>
<trkpt lat="43.816437" lon="5.468745"><ele>1086.1</ele><time>2011-02-06T10:24:05Z</time></trkpt>
<trkpt lat="43.816437" lon="5.468745"><ele>1086.5</ele><time>2011-02-06T10:24:10Z</time></trkpt>
<trkpt lat="43.816437" lon="5.468745"><ele>1086.8</ele><time>2011-02-06T10:24:15Z</time></trkpt>
<trkpt lat="43.816437" lon="5.468742"><ele>1086.7</ele><time>2011-02-06T10:24:20Z</time></trkpt>
<trkpt lat="43.816437" lon="5.468743"><ele>1086.7</ele><time>2011-02-06T10:24:25Z</time></trkpt>
<trkpt lat="43.816440" lon="5.468742"><ele>1086.3</ele><time>2011-02-06T10:24:30Z</time></trkpt>
<trkpt lat="43.816440" lon="5.468738"><ele>1086</ele><time>2011-02-06T10:24:35Z</time></trkpt>
<trkpt lat="43.816445" lon="5.468738"><ele>1085.5</ele><time>2011-02-06T10:24:40Z</time></trkpt>
<trkpt lat="43.816445" lon="5.468738"><ele>1085.4</ele><time>2011-02-06T10:24:45Z</time></trkpt>
<trkpt lat="43.816445" lon="5.468742"><ele>1085.5</ele><time>2011-02-06T10:24:50Z</time></trkpt>
<trkpt lat="43.816448" lon="5.468742"><ele>1085.5</ele><time>2011-02-06T10:24:55Z</time></trkpt>
<trkpt lat="43.816448" lon="5.468745"><ele>1085.8</ele><time>2011-02-06T10:25:00Z</time></trkpt>
<trkpt lat="43.816452" lon="5.468752"><ele>1086.4</ele><time>2011-02-06T10:25:05Z</time></trkpt>
<trkpt lat="43.816452" lon="5.468763"><ele>1087.8</ele><time>2011-02-06T10:25:10Z</time></trkpt>
<trkpt lat="43.816448" lon="5.468772"><ele>1089</ele><time>2011-02-06T10:25:15Z</time></trkpt>
<trkpt lat="43.816452" lon="5.468775"><ele>1089.7</ele><time>2011-02-06T10:25:20Z</time></trkpt>
<trkpt lat="43.816452" lon="5.468775"><ele>1089.9</ele><time>2011-02-06T10:25:25Z</time></trkpt>
<trkpt lat="43.816452" lon="5.468780"><ele>1090.6</ele><time>2011-02-06T10:25:30Z</time></trkpt>
<trkpt lat="43.816452" lon="5.468780"><ele>1091</ele><time>2011-02-06T10:25:35Z</time></trkpt>
<trkpt lat="43.816452" lon="5.468777"><ele>1091.1</ele><time>2011-02-06T10:25:40Z</time></trkpt>
<trkpt lat="43.816452" lon="5.468792"><ele>1092.2</ele><time>2011-02-06T10:25:45Z</time></trkpt>
<trkpt lat="43.816452" lon="5.468803"><ele>1093.5</ele><time>2011-02-06T10:25:50Z</time></trkpt>
<trkpt lat="43.816448" lon="5.468810"><ele>1093.9</ele><time>2011-02-06T10:25:55Z</time></trkpt>
<trkpt lat="43.816448" lon="5.468803"><ele>1093.7</ele><time>2011-02-06T10:26:00Z</time></trkpt>
<trkpt lat="43.816452" lon="5.468798"><ele>1093.5</ele><time>2011-02-06T10:26:05Z</time></trkpt>
<trkpt lat="43.816452" lon="5.468798"><ele>1094.1</ele><time>2011-02-06T10:26:10Z</time></trkpt>
<trkpt lat="43.816452" lon="5.468808"><ele>1095.6</ele><time>2011-02-06T10:26:15Z</time></trkpt>
<trkpt lat="43.816452" lon="5.468833"><ele>1098.3</ele><time>2011-02-06T10:26:20Z</time></trkpt>
<trkpt lat="43.816448" lon="5.468858"><ele>1100.9</ele><time>2011-02-06T10:26:25Z</time></trkpt>
<trkpt lat="43.816445" lon="5.468870"><ele>1101.4</ele><time>2011-02-06T10:26:30Z</time></trkpt>
<trkpt lat="43.816445" lon="5.468880"><ele>1102.3</ele><time>2011-02-06T10:26:35Z</time></trkpt>
<trkpt lat="43.816440" lon="5.468887"><ele>1102.9</ele><time>2011-02-06T10:26:40Z</time></trkpt>
<trkpt lat="43.816445" lon="5.468870"><ele>1102</ele><time>2011-02-06T10:26:45Z</time></trkpt>
<trkpt lat="43.816448" lon="5.468847"><ele>1100.2</ele><time>2011-02-06T10:26:50Z</time></trkpt>
<trkpt lat="43.816448" lon="5.468832"><ele>1099</ele><time>2011-02-06T10:26:55Z</time></trkpt>
<trkpt lat="43.816448" lon="5.468823"><ele>1097.3</ele><time>2011-02-06T10:27:00Z</time></trkpt>
<trkpt lat="43.816457" lon="5.468823"><ele>1096.3</ele><time>2011-02-06T10:27:05Z</time></trkpt>
<trkpt lat="43.816452" lon="5.468817"><ele>1095.3</ele><time>2011-02-06T10:27:10Z</time></trkpt>
<trkpt lat="43.816452" lon="5.468813"><ele>1094.5</ele><time>2011-02-06T10:27:15Z</time></trkpt>
<trkpt lat="43.816440" lon="5.468813"><ele>1093.9</ele><time>2011-02-06T10:27:20Z</time></trkpt>
<trkpt lat="43.816410" lon="5.468837"><ele>1093.6</ele><time>2011-02-06T10:27:25Z</time></trkpt>
<trkpt lat="43.816383" lon="5.468867"><ele>1094.4</ele><time>2011-02-06T10:27:30Z</time></trkpt>
<trkpt lat="43.816357" lon="5.468883"><ele>1094.8</ele><time>2011-02-06T10:27:35Z</time></trkpt>
<trkpt lat="43.816307" lon="5.468937"><ele>1096.8</ele><time>2011-02-06T10:27:40Z</time></trkpt>
<trkpt lat="43.816227" lon="5.468995"><ele>1096.1</ele><time>2011-02-06T10:27:45Z</time></trkpt>
<trkpt lat="43.816150" lon="5.469048"><ele>1095.7</ele><time>2011-02-06T10:27:50Z</time></trkpt>
<trkpt lat="43.816070" lon="5.469110"><ele>1095.4</ele><time>2011-02-06T10:27:55Z</time></trkpt>
<trkpt lat="43.815998" lon="5.469178"><ele>1095</ele><time>2011-02-06T10:28:00Z</time></trkpt>
<trkpt lat="43.815922" lon="5.469255"><ele>1094.7</ele><time>2011-02-06T10:28:05Z</time></trkpt>
<trkpt lat="43.815827" lon="5.469315"><ele>1094.5</ele><time>2011-02-06T10:28:10Z</time></trkpt>
<trkpt lat="43.815738" lon="5.469370"><ele>1094.4</ele><time>2011-02-06T10:28:15Z</time></trkpt>
<trkpt lat="43.815667" lon="5.469425"><ele>1094.3</ele><time>2011-02-06T10:28:20Z</time></trkpt>
<trkpt lat="43.815602" lon="5.469470"><ele>1094.3</ele><time>2011-02-06T10:28:25Z</time></trkpt>
<trkpt lat="43.815578" lon="5.469483"><ele>1094.1</ele><time>2011-02-06T10:28:30Z</time></trkpt>
<trkpt lat="43.815578" lon="5.469483"><ele>1093.8</ele><time>2011-02-06T10:28:35Z</time></trkpt>
<trkpt lat="43.815582" lon="5.469485"><ele>1093.8</ele><time>2011-02-06T10:28:40Z</time></trkpt>
<trkpt lat="43.815582" lon="5.469483"><ele>1093.8</ele><time>2011-02-06T10:28:45Z</time></trkpt>
<trkpt lat="43.815570" lon="5.469498"><ele>1093.8</ele><time>2011-02-06T10:28:50Z</time></trkpt>
<trkpt lat="43.815567" lon="5.469555"><ele>1094.1</ele><time>2011-02-06T10:28:55Z</time></trkpt>
<trkpt lat="43.815563" lon="5.469663"><ele>1094.7</ele><time>2011-02-06T10:29:00Z</time></trkpt>
<trkpt lat="43.815563" lon="5.469773"><ele>1095.8</ele><time>2011-02-06T10:29:05Z</time></trkpt>
<trkpt lat="43.815540" lon="5.469877"><ele>1097</ele><time>2011-02-06T10:29:10Z</time></trkpt>
<trkpt lat="43.815522" lon="5.469988"><ele>1098.3</ele><time>2011-02-06T10:29:15Z</time></trkpt>
<trkpt lat="43.815510" lon="5.470097"><ele>1099.3</ele><time>2011-02-06T10:29:20Z</time></trkpt>
<trkpt lat="43.815502" lon="5.470208"><ele>1100.1</ele><time>2011-02-06T10:29:25Z</time></trkpt>
<trkpt lat="43.815483" lon="5.470310"><ele>1100.6</ele><time>2011-02-06T10:29:30Z</time></trkpt>
<trkpt lat="43.815483" lon="5.470317"><ele>1100.6</ele><time>2011-02-06T10:29:35Z</time></trkpt>
<trkpt lat="43.815483" lon="5.470320"><ele>1100.7</ele><time>2011-02-06T10:29:40Z</time></trkpt>
<trkpt lat="43.815433" lon="5.470355"><ele>1100.4</ele><time>2011-02-06T10:29:45Z</time></trkpt>
<trkpt lat="43.815418" lon="5.470378"><ele>1100.1</ele><time>2011-02-06T10:29:50Z</time></trkpt>
<trkpt lat="43.815418" lon="5.470380"><ele>1100.1</ele><time>2011-02-06T10:29:55Z</time></trkpt>
<trkpt lat="43.815418" lon="5.470378"><ele>1100.1</ele><time>2011-02-06T10:30:00Z</time></trkpt>
<trkpt lat="43.815418" lon="5.470380"><ele>1099.7</ele><time>2011-02-06T10:30:05Z</time></trkpt>
<trkpt lat="43.815418" lon="5.470380"><ele>1099.5</ele><time>2011-02-06T10:30:10Z</time></trkpt>
<trkpt lat="43.815418" lon="5.470383"><ele>1099.1</ele><time>2011-02-06T10:30:15Z</time></trkpt>
<trkpt lat="43.815418" lon="5.470385"><ele>1098.9</ele><time>2011-02-06T10:30:20Z</time></trkpt>
<trkpt lat="43.815418" lon="5.470385"><ele>1098.8</ele><time>2011-02-06T10:30:25Z</time></trkpt>
<trkpt lat="43.815415" lon="5.470393"><ele>1099.2</ele><time>2011-02-06T10:30:30Z</time></trkpt>
<trkpt lat="43.815415" lon="5.470393"><ele>1099.6</ele><time>2011-02-06T10:30:35Z</time></trkpt>
<trkpt lat="43.815415" lon="5.470392"><ele>1099.9</ele><time>2011-02-06T10:30:40Z</time></trkpt>
<trkpt lat="43.815418" lon="5.470390"><ele>1100.2</ele><time>2011-02-06T10:30:45Z</time></trkpt>
<trkpt lat="43.815415" lon="5.470392"><ele>1100.4</ele><time>2011-02-06T10:30:50Z</time></trkpt>
<trkpt lat="43.815415" lon="5.470392"><ele>1100.7</ele><time>2011-02-06T10:30:55Z</time></trkpt>
<trkpt lat="43.815415" lon="5.470393"><ele>1100.8</ele><time>2011-02-06T10:31:00Z</time></trkpt>
<trkpt lat="43.815415" lon="5.470392"><ele>1101.1</ele><time>2011-02-06T10:31:05Z</time></trkpt>
<trkpt lat="43.815410" lon="5.470392"><ele>1101.3</ele><time>2011-02-06T10:31:10Z</time></trkpt>
<trkpt lat="43.815415" lon="5.470390"><ele>1101.5</ele><time>2011-02-06T10:31:15Z</time></trkpt>
<trkpt lat="43.815415" lon="5.470390"><ele>1101.6</ele><time>2011-02-06T10:31:20Z</time></trkpt>
<trkpt lat="43.815415" lon="5.470388"><ele>1101.7</ele><time>2011-02-06T10:31:25Z</time></trkpt>
<trkpt lat="43.815415" lon="5.470388"><ele>1102</ele><time>2011-02-06T10:31:30Z</time></trkpt>
<trkpt lat="43.815410" lon="5.470387"><ele>1102.2</ele><time>2011-02-06T10:31:35Z</time></trkpt>
<trkpt lat="43.815410" lon="5.470387"><ele>1102.4</ele><time>2011-02-06T10:31:40Z</time></trkpt>
<trkpt lat="43.815410" lon="5.470387"><ele>1102.7</ele><time>2011-02-06T10:31:45Z</time></trkpt>
<trkpt lat="43.815407" lon="5.470387"><ele>1102.8</ele><time>2011-02-06T10:31:50Z</time></trkpt>
<trkpt lat="43.815410" lon="5.470388"><ele>1102.9</ele><time>2011-02-06T10:31:55Z</time></trkpt>
<trkpt lat="43.815407" lon="5.470387"><ele>1103.1</ele><time>2011-02-06T10:32:00Z</time></trkpt>
<trkpt lat="43.815407" lon="5.470387"><ele>1103.2</ele><time>2011-02-06T10:32:05Z</time></trkpt>
<trkpt lat="43.815407" lon="5.470387"><ele>1103.3</ele><time>2011-02-06T10:32:10Z</time></trkpt>
<trkpt lat="43.815407" lon="5.470387"><ele>1103.5</ele><time>2011-02-06T10:32:15Z</time></trkpt>
<trkpt lat="43.815407" lon="5.470387"><ele>1103.6</ele><time>2011-02-06T10:32:20Z</time></trkpt>
<trkpt lat="43.815407" lon="5.470387"><ele>1103.7</ele><time>2011-02-06T10:32:25Z</time></trkpt>
<trkpt lat="43.815407" lon="5.470387"><ele>1103.7</ele><time>2011-02-06T10:32:30Z</time></trkpt>
<trkpt lat="43.815403" lon="5.470385"><ele>1104.2</ele><time>2011-02-06T10:32:35Z</time></trkpt>
<trkpt lat="43.815400" lon="5.470385"><ele>1104.4</ele><time>2011-02-06T10:32:40Z</time></trkpt>
<trkpt lat="43.815400" lon="5.470383"><ele>1104.7</ele><time>2011-02-06T10:32:45Z</time></trkpt>
<trkpt lat="43.815400" lon="5.470382"><ele>1105</ele><time>2011-02-06T10:32:50Z</time></trkpt>
<trkpt lat="43.815395" lon="5.470380"><ele>1105.4</ele><time>2011-02-06T10:32:55Z</time></trkpt>
<trkpt lat="43.815395" lon="5.470380"><ele>1105.6</ele><time>2011-02-06T10:33:00Z</time></trkpt>
<trkpt lat="43.815418" lon="5.470410"><ele>1105.8</ele><time>2011-02-06T10:33:05Z</time></trkpt>
<trkpt lat="43.815475" lon="5.470377"><ele>1106.3</ele><time>2011-02-06T10:33:10Z</time></trkpt>
<trkpt lat="43.815517" lon="5.470325"><ele>1106.4</ele><time>2011-02-06T10:33:15Z</time></trkpt>
<trkpt lat="43.815578" lon="5.470257"><ele>1106.1</ele><time>2011-02-06T10:33:20Z</time></trkpt>
<trkpt lat="43.815578" lon="5.470170"><ele>1105.5</ele><time>2011-02-06T10:33:25Z</time></trkpt>
<trkpt lat="43.815567" lon="5.470062"><ele>1104.4</ele><time>2011-02-06T10:33:30Z</time></trkpt>
<trkpt lat="43.815563" lon="5.469928"><ele>1102.6</ele><time>2011-02-06T10:33:35Z</time></trkpt>
<trkpt lat="43.815510" lon="5.469738"><ele>1099.9</ele><time>2011-02-06T10:33:40Z</time></trkpt>
<trkpt lat="43.815448" lon="5.469555"><ele>1097.9</ele><time>2011-02-06T10:33:45Z</time></trkpt>
<trkpt lat="43.815377" lon="5.469448"><ele>1097.8</ele><time>2011-02-06T10:33:50Z</time></trkpt>
<trkpt lat="43.815318" lon="5.469388"><ele>1098.4</ele><time>2011-02-06T10:33:55Z</time></trkpt>
<trkpt lat="43.815277" lon="5.469303"><ele>1099</ele><time>2011-02-06T10:34:00Z</time></trkpt>
<trkpt lat="43.815238" lon="5.469225"><ele>1099.5</ele><time>2011-02-06T10:34:05Z</time></trkpt>
<trkpt lat="43.815190" lon="5.469152"><ele>1100.1</ele><time>2011-02-06T10:34:10Z</time></trkpt>
<trkpt lat="43.815140" lon="5.469078"><ele>1100.8</ele><time>2011-02-06T10:34:15Z</time></trkpt>
<trkpt lat="43.815083" lon="5.469015"><ele>1101.6</ele><time>2011-02-06T10:34:20Z</time></trkpt>
<trkpt lat="43.815033" lon="5.468958"><ele>1102.8</ele><time>2011-02-06T10:34:25Z</time></trkpt>
<trkpt lat="43.814980" lon="5.468910"><ele>1103.8</ele><time>2011-02-06T10:34:30Z</time></trkpt>
<trkpt lat="43.814933" lon="5.468843"><ele>1105</ele><time>2011-02-06T10:34:35Z</time></trkpt>
<trkpt lat="43.814880" lon="5.468785"><ele>1106</ele><time>2011-02-06T10:34:40Z</time></trkpt>
<trkpt lat="43.814835" lon="5.468715"><ele>1107</ele><time>2011-02-06T10:34:45Z</time></trkpt>
<trkpt lat="43.814785" lon="5.468645"><ele>1108.3</ele><time>2011-02-06T10:34:50Z</time></trkpt>
<trkpt lat="43.814728" lon="5.468587"><ele>1109.4</ele><time>2011-02-06T10:34:55Z</time></trkpt>
<trkpt lat="43.814675" lon="5.468517"><ele>1110.4</ele><time>2011-02-06T10:35:00Z</time></trkpt>
<trkpt lat="43.814625" lon="5.468435"><ele>1111.3</ele><time>2011-02-06T10:35:05Z</time></trkpt>
<trkpt lat="43.814578" lon="5.468358"><ele>1112.3</ele><time>2011-02-06T10:35:10Z</time></trkpt>
<trkpt lat="43.814533" lon="5.468277"><ele>1113.2</ele><time>2011-02-06T10:35:15Z</time></trkpt>
<trkpt lat="43.814492" lon="5.468188"><ele>1114.1</ele><time>2011-02-06T10:35:20Z</time></trkpt>
<trkpt lat="43.814457" lon="5.468097"><ele>1114.8</ele><time>2011-02-06T10:35:25Z</time></trkpt>
<trkpt lat="43.814433" lon="5.468003"><ele>1114.9</ele><time>2011-02-06T10:35:30Z</time></trkpt>
<trkpt lat="43.814427" lon="5.467905"><ele>1115.1</ele><time>2011-02-06T10:35:35Z</time></trkpt>
<trkpt lat="43.814415" lon="5.467813"><ele>1115.2</ele><time>2011-02-06T10:35:40Z</time></trkpt>
<trkpt lat="43.814430" lon="5.467715"><ele>1115.3</ele><time>2011-02-06T10:35:45Z</time></trkpt>
<trkpt lat="43.814450" lon="5.467613"><ele>1115.8</ele><time>2011-02-06T10:35:50Z</time></trkpt>
<trkpt lat="43.814468" lon="5.467522"><ele>1116.5</ele><time>2011-02-06T10:35:55Z</time></trkpt>
<trkpt lat="43.814498" lon="5.467447"><ele>1117.2</ele><time>2011-02-06T10:36:00Z</time></trkpt>
<trkpt lat="43.814530" lon="5.467365"><ele>1117.5</ele><time>2011-02-06T10:36:05Z</time></trkpt>
<trkpt lat="43.814578" lon="5.467287"><ele>1118.1</ele><time>2011-02-06T10:36:10Z</time></trkpt>
<trkpt lat="43.814632" lon="5.467210"><ele>1118.4</ele><time>2011-02-06T10:36:15Z</time></trkpt>
<trkpt lat="43.814697" lon="5.467143"><ele>1118.7</ele><time>2011-02-06T10:36:20Z</time></trkpt>
<trkpt lat="43.814770" lon="5.467097"><ele>1119.1</ele><time>2011-02-06T10:36:25Z</time></trkpt>
<trkpt lat="43.814842" lon="5.467055"><ele>1119.7</ele><time>2011-02-06T10:36:30Z</time></trkpt>
<trkpt lat="43.814915" lon="5.467027"><ele>1120.4</ele><time>2011-02-06T10:36:35Z</time></trkpt>
<trkpt lat="43.814992" lon="5.467000"><ele>1121.1</ele><time>2011-02-06T10:36:40Z</time></trkpt>
<trkpt lat="43.815072" lon="5.466983"><ele>1121.7</ele><time>2011-02-06T10:36:45Z</time></trkpt>
<trkpt lat="43.815140" lon="5.466978"><ele>1122.1</ele><time>2011-02-06T10:36:50Z</time></trkpt>
<trkpt lat="43.815163" lon="5.467072"><ele>1123.1</ele><time>2011-02-06T10:36:55Z</time></trkpt>
<trkpt lat="43.815167" lon="5.467168"><ele>1124.4</ele><time>2011-02-06T10:37:00Z</time></trkpt>
<trkpt lat="43.815158" lon="5.467270"><ele>1125.4</ele><time>2011-02-06T10:37:05Z</time></trkpt>
<trkpt lat="43.815155" lon="5.467365"><ele>1126</ele><time>2011-02-06T10:37:10Z</time></trkpt>
<trkpt lat="43.815173" lon="5.467475"><ele>1126.7</ele><time>2011-02-06T10:37:15Z</time></trkpt>
<trkpt lat="43.815212" lon="5.467568"><ele>1126.8</ele><time>2011-02-06T10:37:20Z</time></trkpt>
<trkpt lat="43.815217" lon="5.467603"><ele>1126.5</ele><time>2011-02-06T10:37:25Z</time></trkpt>
<trkpt lat="43.815217" lon="5.467615"><ele>1127</ele><time>2011-02-06T10:37:30Z</time></trkpt>
<trkpt lat="43.815212" lon="5.467625"><ele>1127.8</ele><time>2011-02-06T10:37:35Z</time></trkpt>
<trkpt lat="43.815220" lon="5.467625"><ele>1128.2</ele><time>2011-02-06T10:37:40Z</time></trkpt>
<trkpt lat="43.815205" lon="5.467605"><ele>1129.3</ele><time>2011-02-06T10:37:45Z</time></trkpt>
<trkpt lat="43.815205" lon="5.467608"><ele>1130.2</ele><time>2011-02-06T10:37:50Z</time></trkpt>
<trkpt lat="43.815193" lon="5.467603"><ele>1130.8</ele><time>2011-02-06T10:37:55Z</time></trkpt>
<trkpt lat="43.815193" lon="5.467605"><ele>1130.9</ele><time>2011-02-06T10:38:00Z</time></trkpt>
<trkpt lat="43.815193" lon="5.467607"><ele>1130.8</ele><time>2011-02-06T10:38:05Z</time></trkpt>
<trkpt lat="43.815197" lon="5.467613"><ele>1130.8</ele><time>2011-02-06T10:38:10Z</time></trkpt>
<trkpt lat="43.815197" lon="5.467612"><ele>1131.2</ele><time>2011-02-06T10:38:15Z</time></trkpt>
<trkpt lat="43.815200" lon="5.467620"><ele>1131</ele><time>2011-02-06T10:38:20Z</time></trkpt>
<trkpt lat="43.815212" lon="5.467607"><ele>1131</ele><time>2011-02-06T10:38:25Z</time></trkpt>
<trkpt lat="43.815212" lon="5.467607"><ele>1130.9</ele><time>2011-02-06T10:38:30Z</time></trkpt>
<trkpt lat="43.815212" lon="5.467612"><ele>1131</ele><time>2011-02-06T10:38:35Z</time></trkpt>
<trkpt lat="43.815212" lon="5.467612"><ele>1130.8</ele><time>2011-02-06T10:38:40Z</time></trkpt>
<trkpt lat="43.815212" lon="5.467610"><ele>1130.8</ele><time>2011-02-06T10:38:45Z</time></trkpt>
<trkpt lat="43.815212" lon="5.467610"><ele>1130.6</ele><time>2011-02-06T10:38:50Z</time></trkpt>
<trkpt lat="43.815200" lon="5.467637"><ele>1130.5</ele><time>2011-02-06T10:38:55Z</time></trkpt>
<trkpt lat="43.815170" lon="5.467597"><ele>1130.8</ele><time>2011-02-06T10:39:00Z</time></trkpt>
<trkpt lat="43.815167" lon="5.467600"><ele>1130.8</ele><time>2011-02-06T10:39:05Z</time></trkpt>
<trkpt lat="43.815167" lon="5.467602"><ele>1130.7</ele><time>2011-02-06T10:39:10Z</time></trkpt>
<trkpt lat="43.815167" lon="5.467602"><ele>1130.7</ele><time>2011-02-06T10:39:15Z</time></trkpt>
<trkpt lat="43.815167" lon="5.467602"><ele>1130.6</ele><time>2011-02-06T10:39:20Z</time></trkpt>
<trkpt lat="43.815167" lon="5.467602"><ele>1130.4</ele><time>2011-02-06T10:39:25Z</time></trkpt>
<trkpt lat="43.815167" lon="5.467600"><ele>1129.9</ele><time>2011-02-06T10:39:30Z</time></trkpt>
<trkpt lat="43.815167" lon="5.467600"><ele>1129.8</ele><time>2011-02-06T10:39:35Z</time></trkpt>
<trkpt lat="43.815167" lon="5.467598"><ele>1129.7</ele><time>2011-02-06T10:39:40Z</time></trkpt>
<trkpt lat="43.815167" lon="5.467597"><ele>1129</ele><time>2011-02-06T10:39:45Z</time></trkpt>
<trkpt lat="43.815167" lon="5.467595"><ele>1128.6</ele><time>2011-02-06T10:39:50Z</time></trkpt>
<trkpt lat="43.815167" lon="5.467593"><ele>1128.3</ele><time>2011-02-06T10:39:55Z</time></trkpt>
<trkpt lat="43.815173" lon="5.467573"><ele>1128.1</ele><time>2011-02-06T10:40:00Z</time></trkpt>
<trkpt lat="43.815167" lon="5.467488"><ele>1127.1</ele><time>2011-02-06T10:40:05Z</time></trkpt>
<trkpt lat="43.815155" lon="5.467405"><ele>1125.9</ele><time>2011-02-06T10:40:10Z</time></trkpt>
<trkpt lat="43.815125" lon="5.467430"><ele>1125.4</ele><time>2011-02-06T10:40:15Z</time></trkpt>
<trkpt lat="43.815143" lon="5.467520"><ele>1125.5</ele><time>2011-02-06T10:40:20Z</time></trkpt>
<trkpt lat="43.815182" lon="5.467578"><ele>1125.7</ele><time>2011-02-06T10:40:25Z</time></trkpt>
<trkpt lat="43.815200" lon="5.467602"><ele>1125.7</ele><time>2011-02-06T10:40:30Z</time></trkpt>
<trkpt lat="43.815200" lon="5.467602"><ele>1125.8</ele><time>2011-02-06T10:40:35Z</time></trkpt>
<trkpt lat="43.815200" lon="5.467602"><ele>1126</ele><time>2011-02-06T10:40:40Z</time></trkpt>
<trkpt lat="43.815200" lon="5.467602"><ele>1126.2</ele><time>2011-02-06T10:40:45Z</time></trkpt>
<trkpt lat="43.815200" lon="5.467602"><ele>1126.4</ele><time>2011-02-06T10:40:50Z</time></trkpt>
<trkpt lat="43.815200" lon="5.467602"><ele>1126.7</ele><time>2011-02-06T10:40:55Z</time></trkpt>
<trkpt lat="43.815200" lon="5.467600"><ele>1126.9</ele><time>2011-02-06T10:41:00Z</time></trkpt>
<trkpt lat="43.815212" lon="5.467647"><ele>1126.2</ele><time>2011-02-06T10:41:05Z</time></trkpt>
<trkpt lat="43.815247" lon="5.467755"><ele>1124.6</ele><time>2011-02-06T10:41:10Z</time></trkpt>
<trkpt lat="43.815185" lon="5.467880"><ele>1122.1</ele><time>2011-02-06T10:41:15Z</time></trkpt>
<trkpt lat="43.815190" lon="5.467923"><ele>1121</ele><time>2011-02-06T10:41:20Z</time></trkpt>
<trkpt lat="43.815182" lon="5.468043"><ele>1118.7</ele><time>2011-02-06T10:41:25Z</time></trkpt>
<trkpt lat="43.815182" lon="5.468183"><ele>1115.9</ele><time>2011-02-06T10:41:30Z</time></trkpt>
<trkpt lat="43.815178" lon="5.468318"><ele>1113</ele><time>2011-02-06T10:41:35Z</time></trkpt>
<trkpt lat="43.815182" lon="5.468442"><ele>1109.5</ele><time>2011-02-06T10:41:40Z</time></trkpt>
<trkpt lat="43.815193" lon="5.468563"><ele>1106.4</ele><time>2011-02-06T10:41:45Z</time></trkpt>
<trkpt lat="43.815193" lon="5.468698"><ele>1103.3</ele><time>2011-02-06T10:41:50Z</time></trkpt>
<trkpt lat="43.815197" lon="5.468848"><ele>1100.1</ele><time>2011-02-06T10:41:55Z</time></trkpt>
<trkpt lat="43.815190" lon="5.469000"><ele>1097.5</ele><time>2011-02-06T10:42:00Z</time></trkpt>
<trkpt lat="43.815190" lon="5.469127"><ele>1095.2</ele><time>2011-02-06T10:42:05Z</time></trkpt>
<trkpt lat="43.815262" lon="5.469247"><ele>1093.8</ele><time>2011-02-06T10:42:10Z</time></trkpt>
<trkpt lat="43.815335" lon="5.469372"><ele>1092.8</ele><time>2011-02-06T10:42:15Z</time></trkpt>
<trkpt lat="43.815437" lon="5.469505"><ele>1091.8</ele><time>2011-02-06T10:42:20Z</time></trkpt>
<trkpt lat="43.815578" lon="5.469502"><ele>1091.6</ele><time>2011-02-06T10:42:25Z</time></trkpt>
<trkpt lat="43.815693" lon="5.469423"><ele>1091.3</ele><time>2011-02-06T10:42:30Z</time></trkpt>
<trkpt lat="43.815807" lon="5.469333"><ele>1090.9</ele><time>2011-02-06T10:42:35Z</time></trkpt>
<trkpt lat="43.815942" lon="5.469230"><ele>1090.1</ele><time>2011-02-06T10:42:40Z</time></trkpt>
<trkpt lat="43.816055" lon="5.469117"><ele>1089.1</ele><time>2011-02-06T10:42:45Z</time></trkpt>
<trkpt lat="43.816167" lon="5.468990"><ele>1088.8</ele><time>2011-02-06T10:42:50Z</time></trkpt>
<trkpt lat="43.816280" lon="5.468887"><ele>1087.7</ele><time>2011-02-06T10:42:55Z</time></trkpt>
<trkpt lat="43.816392" lon="5.468775"><ele>1086.9</ele><time>2011-02-06T10:43:00Z</time></trkpt>
<trkpt lat="43.816467" lon="5.468700"><ele>1086</ele><time>2011-02-06T10:43:05Z</time></trkpt>
<trkpt lat="43.816510" lon="5.468653"><ele>1085.4</ele><time>2011-02-06T10:43:10Z</time></trkpt>
<trkpt lat="43.816552" lon="5.468607"><ele>1085</ele><time>2011-02-06T10:43:15Z</time></trkpt>
<trkpt lat="43.816620" lon="5.468552"><ele>1084.3</ele><time>2011-02-06T10:43:20Z</time></trkpt>
<trkpt lat="43.816708" lon="5.468487"><ele>1083.7</ele><time>2011-02-06T10:43:25Z</time></trkpt>
<trkpt lat="43.816807" lon="5.468402"><ele>1083</ele><time>2011-02-06T10:43:30Z</time></trkpt>
<trkpt lat="43.816917" lon="5.468345"><ele>1082.2</ele><time>2011-02-06T10:43:35Z</time></trkpt>
<trkpt lat="43.817032" lon="5.468283"><ele>1080.8</ele><time>2011-02-06T10:43:40Z</time></trkpt>
<trkpt lat="43.817177" lon="5.468212"><ele>1079.3</ele><time>2011-02-06T10:43:45Z</time></trkpt>
<trkpt lat="43.817322" lon="5.468152"><ele>1077.9</ele><time>2011-02-06T10:43:50Z</time></trkpt>
<trkpt lat="43.817432" lon="5.468103"><ele>1076.9</ele><time>2011-02-06T10:43:55Z</time></trkpt>
<trkpt lat="43.817555" lon="5.468043"><ele>1075.9</ele><time>2011-02-06T10:44:00Z</time></trkpt>
<trkpt lat="43.817677" lon="5.468000"><ele>1074.3</ele><time>2011-02-06T10:44:05Z</time></trkpt>
<trkpt lat="43.817802" lon="5.467965"><ele>1072.5</ele><time>2011-02-06T10:44:10Z</time></trkpt>
<trkpt lat="43.817932" lon="5.467935"><ele>1071.1</ele><time>2011-02-06T10:44:15Z</time></trkpt>
<trkpt lat="43.818047" lon="5.467917"><ele>1069.7</ele><time>2011-02-06T10:44:20Z</time></trkpt>
<trkpt lat="43.818172" lon="5.467907"><ele>1068.3</ele><time>2011-02-06T10:44:25Z</time></trkpt>
<trkpt lat="43.818310" lon="5.467897"><ele>1067.2</ele><time>2011-02-06T10:44:30Z</time></trkpt>
<trkpt lat="43.818455" lon="5.467877"><ele>1065.5</ele><time>2011-02-06T10:44:35Z</time></trkpt>
<trkpt lat="43.818603" lon="5.467838"><ele>1063.8</ele><time>2011-02-06T10:44:40Z</time></trkpt>
<trkpt lat="43.818733" lon="5.467792"><ele>1062.3</ele><time>2011-02-06T10:44:45Z</time></trkpt>
<trkpt lat="43.818875" lon="5.467727"><ele>1060.8</ele><time>2011-02-06T10:44:50Z</time></trkpt>
<trkpt lat="43.819027" lon="5.467645"><ele>1058.6</ele><time>2011-02-06T10:44:55Z</time></trkpt>
<trkpt lat="43.819142" lon="5.467577"><ele>1057.4</ele><time>2011-02-06T10:45:00Z</time></trkpt>
<trkpt lat="43.819267" lon="5.467490"><ele>1055.8</ele><time>2011-02-06T10:45:05Z</time></trkpt>
<trkpt lat="43.819363" lon="5.467412"><ele>1054.2</ele><time>2011-02-06T10:45:10Z</time></trkpt>
<trkpt lat="43.819370" lon="5.467410"><ele>1054</ele><time>2011-02-06T10:45:15Z</time></trkpt>
<trkpt lat="43.819373" lon="5.467413"><ele>1054</ele><time>2011-02-06T10:45:20Z</time></trkpt>
<trkpt lat="43.819378" lon="5.467418"><ele>1053.8</ele><time>2011-02-06T10:45:25Z</time></trkpt>
<trkpt lat="43.819382" lon="5.467423"><ele>1053.6</ele><time>2011-02-06T10:45:30Z</time></trkpt>
<trkpt lat="43.819382" lon="5.467427"><ele>1053.4</ele><time>2011-02-06T10:45:35Z</time></trkpt>
<trkpt lat="43.819385" lon="5.467428"><ele>1053.5</ele><time>2011-02-06T10:45:40Z</time></trkpt>
<trkpt lat="43.819390" lon="5.467425"><ele>1053.7</ele><time>2011-02-06T10:45:45Z</time></trkpt>
<trkpt lat="43.819390" lon="5.467422"><ele>1053.6</ele><time>2011-02-06T10:45:50Z</time></trkpt>
<trkpt lat="43.819390" lon="5.467420"><ele>1053.7</ele><time>2011-02-06T10:45:55Z</time></trkpt>
<trkpt lat="43.819385" lon="5.467420"><ele>1053.5</ele><time>2011-02-06T10:46:00Z</time></trkpt>
<trkpt lat="43.819385" lon="5.467422"><ele>1053.5</ele><time>2011-02-06T10:46:05Z</time></trkpt>
<trkpt lat="43.819385" lon="5.467422"><ele>1053.5</ele><time>2011-02-06T10:46:10Z</time></trkpt>
<trkpt lat="43.819385" lon="5.467422"><ele>1053.5</ele><time>2011-02-06T10:46:15Z</time></trkpt>
<trkpt lat="43.819382" lon="5.467423"><ele>1053.5</ele><time>2011-02-06T10:46:20Z</time></trkpt>
<trkpt lat="43.819382" lon="5.467422"><ele>1053.4</ele><time>2011-02-06T10:46:25Z</time></trkpt>
<trkpt lat="43.819382" lon="5.467422"><ele>1053.4</ele><time>2011-02-06T10:46:30Z</time></trkpt>
<trkpt lat="43.819378" lon="5.467422"><ele>1053.5</ele><time>2011-02-06T10:46:35Z</time></trkpt>
<trkpt lat="43.819378" lon="5.467422"><ele>1053.7</ele><time>2011-02-06T10:46:40Z</time></trkpt>
<trkpt lat="43.819378" lon="5.467422"><ele>1053.8</ele><time>2011-02-06T10:46:45Z</time></trkpt>
<trkpt lat="43.819378" lon="5.467422"><ele>1053.9</ele><time>2011-02-06T10:46:50Z</time></trkpt>
<trkpt lat="43.819378" lon="5.467422"><ele>1053.9</ele><time>2011-02-06T10:46:55Z</time></trkpt>
<trkpt lat="43.819378" lon="5.467420"><ele>1054.1</ele><time>2011-02-06T10:47:00Z</time></trkpt>
<trkpt lat="43.819378" lon="5.467422"><ele>1054.3</ele><time>2011-02-06T10:47:05Z</time></trkpt>
<trkpt lat="43.819378" lon="5.467413"><ele>1054.1</ele><time>2011-02-06T10:47:10Z</time></trkpt>
<trkpt lat="43.819432" lon="5.467362"><ele>1053.4</ele><time>2011-02-06T10:47:15Z</time></trkpt>
<trkpt lat="43.819518" lon="5.467272"><ele>1052.2</ele><time>2011-02-06T10:47:20Z</time></trkpt>
<trkpt lat="43.819627" lon="5.467130"><ele>1050.5</ele><time>2011-02-06T10:47:25Z</time></trkpt>
<trkpt lat="43.819710" lon="5.466992"><ele>1049.3</ele><time>2011-02-06T10:47:30Z</time></trkpt>
<trkpt lat="43.819770" lon="5.466880"><ele>1048.3</ele><time>2011-02-06T10:47:35Z</time></trkpt>
<trkpt lat="43.819805" lon="5.466747"><ele>1047.7</ele><time>2011-02-06T10:47:40Z</time></trkpt>
<trkpt lat="43.819825" lon="5.466610"><ele>1047.6</ele><time>2011-02-06T10:47:45Z</time></trkpt>
<trkpt lat="43.819805" lon="5.466438"><ele>1045.9</ele><time>2011-02-06T10:47:50Z</time></trkpt>
<trkpt lat="43.819760" lon="5.466332"><ele>1043.9</ele><time>2011-02-06T10:47:55Z</time></trkpt>
<trkpt lat="43.819707" lon="5.466215"><ele>1043.3</ele><time>2011-02-06T10:48:00Z</time></trkpt>
<trkpt lat="43.819637" lon="5.466060"><ele>1042.5</ele><time>2011-02-06T10:48:05Z</time></trkpt>
<trkpt lat="43.819577" lon="5.465878"><ele>1042</ele><time>2011-02-06T10:48:10Z</time></trkpt>
<trkpt lat="43.819500" lon="5.465657"><ele>1040.9</ele><time>2011-02-06T10:48:15Z</time></trkpt>
<trkpt lat="43.819458" lon="5.465400"><ele>1040.2</ele><time>2011-02-06T10:48:20Z</time></trkpt>
<trkpt lat="43.819447" lon="5.465182"><ele>1039.4</ele><time>2011-02-06T10:48:25Z</time></trkpt>
<trkpt lat="43.819458" lon="5.465037"><ele>1036.6</ele><time>2011-02-06T10:48:30Z</time></trkpt>
<trkpt lat="43.819477" lon="5.464952"><ele>1035.4</ele><time>2011-02-06T10:48:35Z</time></trkpt>
<trkpt lat="43.819508" lon="5.464797"><ele>1035.2</ele><time>2011-02-06T10:48:40Z</time></trkpt>
<trkpt lat="43.819545" lon="5.464628"><ele>1035</ele><time>2011-02-06T10:48:45Z</time></trkpt>
<trkpt lat="43.819603" lon="5.464472"><ele>1034.2</ele><time>2011-02-06T10:48:50Z</time></trkpt>
<trkpt lat="43.819660" lon="5.464317"><ele>1035.2</ele><time>2011-02-06T10:48:55Z</time></trkpt>
<trkpt lat="43.819722" lon="5.464158"><ele>1034.5</ele><time>2011-02-06T10:49:00Z</time></trkpt>
<trkpt lat="43.819767" lon="5.464028"><ele>1033.9</ele><time>2011-02-06T10:49:05Z</time></trkpt>
<trkpt lat="43.819808" lon="5.463908"><ele>1032.4</ele><time>2011-02-06T10:49:10Z</time></trkpt>
<trkpt lat="43.819855" lon="5.463720"><ele>1031.4</ele><time>2011-02-06T10:49:15Z</time></trkpt>
<trkpt lat="43.819885" lon="5.463590"><ele>1031.3</ele><time>2011-02-06T10:49:20Z</time></trkpt>
<trkpt lat="43.819912" lon="5.463417"><ele>1030.1</ele><time>2011-02-06T10:49:25Z</time></trkpt>
<trkpt lat="43.819920" lon="5.463210"><ele>1026.4</ele><time>2011-02-06T10:49:30Z</time></trkpt>
<trkpt lat="43.819885" lon="5.463000"><ele>1022.8</ele><time>2011-02-06T10:49:35Z</time></trkpt>
<trkpt lat="43.819835" lon="5.462817"><ele>1020.5</ele><time>2011-02-06T10:49:40Z</time></trkpt>
<trkpt lat="43.819787" lon="5.462650"><ele>1019.4</ele><time>2011-02-06T10:49:45Z</time></trkpt>
<trkpt lat="43.819717" lon="5.462472"><ele>1018.1</ele><time>2011-02-06T10:49:50Z</time></trkpt>
<trkpt lat="43.819648" lon="5.462290"><ele>1017.3</ele><time>2011-02-06T10:49:55Z</time></trkpt>
<trkpt lat="43.819583" lon="5.462078"><ele>1015.8</ele><time>2011-02-06T10:50:00Z</time></trkpt>
<trkpt lat="43.819542" lon="5.461857"><ele>1014.3</ele><time>2011-02-06T10:50:05Z</time></trkpt>
<trkpt lat="43.819500" lon="5.461605"><ele>1011.9</ele><time>2011-02-06T10:50:10Z</time></trkpt>
<trkpt lat="43.819477" lon="5.461312"><ele>1010.3</ele><time>2011-02-06T10:50:15Z</time></trkpt>
<trkpt lat="43.819497" lon="5.461060"><ele>1009.1</ele><time>2011-02-06T10:50:20Z</time></trkpt>
<trkpt lat="43.819477" lon="5.460897"><ele>1008.7</ele><time>2011-02-06T10:50:25Z</time></trkpt>
<trkpt lat="43.819443" lon="5.460732"><ele>1008.4</ele><time>2011-02-06T10:50:30Z</time></trkpt>
<trkpt lat="43.819385" lon="5.460548"><ele>1008.2</ele><time>2011-02-06T10:50:35Z</time></trkpt>
<trkpt lat="43.819337" lon="5.460338"><ele>1008.1</ele><time>2011-02-06T10:50:40Z</time></trkpt>
<trkpt lat="43.819252" lon="5.460122"><ele>1008.2</ele><time>2011-02-06T10:50:45Z</time></trkpt>
<trkpt lat="43.819168" lon="5.459877"><ele>1008.2</ele><time>2011-02-06T10:50:50Z</time></trkpt>
<trkpt lat="43.819085" lon="5.459612"><ele>1007.8</ele><time>2011-02-06T10:50:55Z</time></trkpt>
<trkpt lat="43.819020" lon="5.459333"><ele>1007.1</ele><time>2011-02-06T10:51:00Z</time></trkpt>
<trkpt lat="43.818970" lon="5.459045"><ele>1006.1</ele><time>2011-02-06T10:51:05Z</time></trkpt>
<trkpt lat="43.818947" lon="5.458737"><ele>1004.9</ele><time>2011-02-06T10:51:10Z</time></trkpt>
<trkpt lat="43.818958" lon="5.458413"><ele>1003.7</ele><time>2011-02-06T10:51:15Z</time></trkpt>
<trkpt lat="43.819015" lon="5.458192"><ele>1002.5</ele><time>2011-02-06T10:51:20Z</time></trkpt>
<trkpt lat="43.819092" lon="5.458010"><ele>1001.1</ele><time>2011-02-06T10:51:25Z</time></trkpt>
<trkpt lat="43.819195" lon="5.457787"><ele>999.2</ele><time>2011-02-06T10:51:30Z</time></trkpt>
<trkpt lat="43.819313" lon="5.457487"><ele>997</ele><time>2011-02-06T10:51:35Z</time></trkpt>
<trkpt lat="43.819417" lon="5.457225"><ele>995.4</ele><time>2011-02-06T10:51:40Z</time></trkpt>
<trkpt lat="43.819508" lon="5.456983"><ele>993.9</ele><time>2011-02-06T10:51:45Z</time></trkpt>
<trkpt lat="43.819583" lon="5.456688"><ele>992.2</ele><time>2011-02-06T10:51:50Z</time></trkpt>
<trkpt lat="43.819568" lon="5.456320"><ele>990.2</ele><time>2011-02-06T10:51:55Z</time></trkpt>
<trkpt lat="43.819492" lon="5.455967"><ele>988.3</ele><time>2011-02-06T10:52:00Z</time></trkpt>
<trkpt lat="43.819450" lon="5.455682"><ele>986.7</ele><time>2011-02-06T10:52:05Z</time></trkpt>
<trkpt lat="43.819443" lon="5.455372"><ele>984.9</ele><time>2011-02-06T10:52:10Z</time></trkpt>
<trkpt lat="43.819470" lon="5.455022"><ele>982.8</ele><time>2011-02-06T10:52:15Z</time></trkpt>
<trkpt lat="43.819477" lon="5.454615"><ele>980.8</ele><time>2011-02-06T10:52:20Z</time></trkpt>
<trkpt lat="43.819432" lon="5.454232"><ele>979.3</ele><time>2011-02-06T10:52:25Z</time></trkpt>
<trkpt lat="43.819390" lon="5.453865"><ele>977.6</ele><time>2011-02-06T10:52:30Z</time></trkpt>
<trkpt lat="43.819337" lon="5.453503"><ele>976.2</ele><time>2011-02-06T10:52:35Z</time></trkpt>
<trkpt lat="43.819210" lon="5.453160"><ele>974.9</ele><time>2011-02-06T10:52:40Z</time></trkpt>
<trkpt lat="43.819145" lon="5.452792"><ele>973.4</ele><time>2011-02-06T10:52:45Z</time></trkpt>
<trkpt lat="43.819103" lon="5.452433"><ele>972.2</ele><time>2011-02-06T10:52:50Z</time></trkpt>
<trkpt lat="43.819088" lon="5.452087"><ele>970.9</ele><time>2011-02-06T10:52:55Z</time></trkpt>
<trkpt lat="43.819030" lon="5.451720"><ele>969.7</ele><time>2011-02-06T10:53:00Z</time></trkpt>
<trkpt lat="43.818928" lon="5.451308"><ele>968.4</ele><time>2011-02-06T10:53:05Z</time></trkpt>
<trkpt lat="43.818783" lon="5.450912"><ele>967</ele><time>2011-02-06T10:53:10Z</time></trkpt>
<trkpt lat="43.818573" lon="5.450555"><ele>965.2</ele><time>2011-02-06T10:53:15Z</time></trkpt>
<trkpt lat="43.818302" lon="5.450248"><ele>963.4</ele><time>2011-02-06T10:53:20Z</time></trkpt>
<trkpt lat="43.818150" lon="5.449877"><ele>961.9</ele><time>2011-02-06T10:53:25Z</time></trkpt>
<trkpt lat="43.818218" lon="5.449455"><ele>959.8</ele><time>2011-02-06T10:53:30Z</time></trkpt>
<trkpt lat="43.818367" lon="5.449093"><ele>957.7</ele><time>2011-02-06T10:53:35Z</time></trkpt>
<trkpt lat="43.818455" lon="5.448698"><ele>955.6</ele><time>2011-02-06T10:53:40Z</time></trkpt>
<trkpt lat="43.818428" lon="5.448460"><ele>954.8</ele><time>2011-02-06T10:53:45Z</time></trkpt>
<trkpt lat="43.818413" lon="5.448445"><ele>954.7</ele><time>2011-02-06T10:53:50Z</time></trkpt>
<trkpt lat="43.818408" lon="5.448462"><ele>954.7</ele><time>2011-02-06T10:53:55Z</time></trkpt>
<trkpt lat="43.818408" lon="5.448462"><ele>954.8</ele><time>2011-02-06T10:54:00Z</time></trkpt>
<trkpt lat="43.818408" lon="5.448465"><ele>954.6</ele><time>2011-02-06T10:54:05Z</time></trkpt>
<trkpt lat="43.818408" lon="5.448468"><ele>954.3</ele><time>2011-02-06T10:54:10Z</time></trkpt>
<trkpt lat="43.818413" lon="5.448477"><ele>954.3</ele><time>2011-02-06T10:54:15Z</time></trkpt>
<trkpt lat="43.818402" lon="5.448463"><ele>953.8</ele><time>2011-02-06T10:54:20Z</time></trkpt>
<trkpt lat="43.818393" lon="5.448458"><ele>953.2</ele><time>2011-02-06T10:54:25Z</time></trkpt>
<trkpt lat="43.818393" lon="5.448465"><ele>953.3</ele><time>2011-02-06T10:54:30Z</time></trkpt>
<trkpt lat="43.818393" lon="5.448467"><ele>953.3</ele><time>2011-02-06T10:54:35Z</time></trkpt>
<trkpt lat="43.818398" lon="5.448470"><ele>953.3</ele><time>2011-02-06T10:54:40Z</time></trkpt>
<trkpt lat="43.818398" lon="5.448472"><ele>953.3</ele><time>2011-02-06T10:54:45Z</time></trkpt>
<trkpt lat="43.818402" lon="5.448475"><ele>953.2</ele><time>2011-02-06T10:54:50Z</time></trkpt>
<trkpt lat="43.818402" lon="5.448477"><ele>953.1</ele><time>2011-02-06T10:54:55Z</time></trkpt>
<trkpt lat="43.818402" lon="5.448478"><ele>953.1</ele><time>2011-02-06T10:55:00Z</time></trkpt>
<trkpt lat="43.818402" lon="5.448480"><ele>953.1</ele><time>2011-02-06T10:55:05Z</time></trkpt>
<trkpt lat="43.818402" lon="5.448480"><ele>953.1</ele><time>2011-02-06T10:55:10Z</time></trkpt>
<trkpt lat="43.818402" lon="5.448480"><ele>953.6</ele><time>2011-02-06T10:55:15Z</time></trkpt>
<trkpt lat="43.818413" lon="5.448468"><ele>954.9</ele><time>2011-02-06T10:55:20Z</time></trkpt>
<trkpt lat="43.818420" lon="5.448493"><ele>954.8</ele><time>2011-02-06T10:55:25Z</time></trkpt>
<trkpt lat="43.818420" lon="5.448493"><ele>954.7</ele><time>2011-02-06T10:55:30Z</time></trkpt>
<trkpt lat="43.818420" lon="5.448493"><ele>954.6</ele><time>2011-02-06T10:55:35Z</time></trkpt>
<trkpt lat="43.818420" lon="5.448492"><ele>954.8</ele><time>2011-02-06T10:55:40Z</time></trkpt>
<trkpt lat="43.818425" lon="5.448493"><ele>954.9</ele><time>2011-02-06T10:55:45Z</time></trkpt>
<trkpt lat="43.818420" lon="5.448495"><ele>955.3</ele><time>2011-02-06T10:55:50Z</time></trkpt>
<trkpt lat="43.818420" lon="5.448485"><ele>955.2</ele><time>2011-02-06T10:55:55Z</time></trkpt>
<trkpt lat="43.818420" lon="5.448488"><ele>955</ele><time>2011-02-06T10:56:00Z</time></trkpt>
<trkpt lat="43.818425" lon="5.448487"><ele>954.4</ele><time>2011-02-06T10:56:05Z</time></trkpt>
<trkpt lat="43.818455" lon="5.448465"><ele>954.7</ele><time>2011-02-06T10:56:10Z</time></trkpt>
<trkpt lat="43.818505" lon="5.448443"><ele>954.9</ele><time>2011-02-06T10:56:15Z</time></trkpt>
<trkpt lat="43.818592" lon="5.448482"><ele>954.4</ele><time>2011-02-06T10:56:20Z</time></trkpt>
<trkpt lat="43.818698" lon="5.448548"><ele>953.6</ele><time>2011-02-06T10:56:25Z</time></trkpt>
<trkpt lat="43.818790" lon="5.448612"><ele>952.8</ele><time>2011-02-06T10:56:30Z</time></trkpt>
<trkpt lat="43.818897" lon="5.448688"><ele>951.7</ele><time>2011-02-06T10:56:35Z</time></trkpt>
<trkpt lat="43.819020" lon="5.448775"><ele>950.5</ele><time>2011-02-06T10:56:40Z</time></trkpt>
<trkpt lat="43.819192" lon="5.448872"><ele>948.8</ele><time>2011-02-06T10:56:45Z</time></trkpt>
<trkpt lat="43.819347" lon="5.448973"><ele>947.4</ele><time>2011-02-06T10:56:50Z</time></trkpt>
<trkpt lat="43.819530" lon="5.449107"><ele>945.9</ele><time>2011-02-06T10:56:55Z</time></trkpt>
<trkpt lat="43.819748" lon="5.449207"><ele>943.9</ele><time>2011-02-06T10:57:00Z</time></trkpt>
<trkpt lat="43.820027" lon="5.449222"><ele>941.6</ele><time>2011-02-06T10:57:05Z</time></trkpt>
<trkpt lat="43.820270" lon="5.449202"><ele>939.3</ele><time>2011-02-06T10:57:10Z</time></trkpt>
<trkpt lat="43.820500" lon="5.449202"><ele>937</ele><time>2011-02-06T10:57:15Z</time></trkpt>
<trkpt lat="43.820767" lon="5.449153"><ele>934.1</ele><time>2011-02-06T10:57:20Z</time></trkpt>
<trkpt lat="43.821022" lon="5.449055"><ele>931.5</ele><time>2011-02-06T10:57:25Z</time></trkpt>
<trkpt lat="43.821293" lon="5.448942"><ele>929</ele><time>2011-02-06T10:57:30Z</time></trkpt>
<trkpt lat="43.821540" lon="5.448832"><ele>926.5</ele><time>2011-02-06T10:57:35Z</time></trkpt>
<trkpt lat="43.821755" lon="5.448723"><ele>924.1</ele><time>2011-02-06T10:57:40Z</time></trkpt>
<trkpt lat="43.821922" lon="5.448663"><ele>922.5</ele><time>2011-02-06T10:57:45Z</time></trkpt>
<trkpt lat="43.822125" lon="5.448633"><ele>920.8</ele><time>2011-02-06T10:57:50Z</time></trkpt>
<trkpt lat="43.822335" lon="5.448635"><ele>918.8</ele><time>2011-02-06T10:57:55Z</time></trkpt>
<trkpt lat="43.822563" lon="5.448588"><ele>916.4</ele><time>2011-02-06T10:58:00Z</time></trkpt>
<trkpt lat="43.822803" lon="5.448488"><ele>913.9</ele><time>2011-02-06T10:58:05Z</time></trkpt>
<trkpt lat="43.823055" lon="5.448328"><ele>911</ele><time>2011-02-06T10:58:10Z</time></trkpt>
<trkpt lat="43.823353" lon="5.448112"><ele>907.8</ele><time>2011-02-06T10:58:15Z</time></trkpt>
<trkpt lat="43.823670" lon="5.447883"><ele>904.8</ele><time>2011-02-06T10:58:20Z</time></trkpt>
<trkpt lat="43.823990" lon="5.447692"><ele>901.5</ele><time>2011-02-06T10:58:25Z</time></trkpt>
<trkpt lat="43.824303" lon="5.447445"><ele>898.2</ele><time>2011-02-06T10:58:30Z</time></trkpt>
<trkpt lat="43.824597" lon="5.447145"><ele>895</ele><time>2011-02-06T10:58:35Z</time></trkpt>
<trkpt lat="43.824828" lon="5.446910"><ele>892.4</ele><time>2011-02-06T10:58:40Z</time></trkpt>
<trkpt lat="43.825035" lon="5.446750"><ele>890</ele><time>2011-02-06T10:58:45Z</time></trkpt>
<trkpt lat="43.825260" lon="5.446743"><ele>887.8</ele><time>2011-02-06T10:58:50Z</time></trkpt>
<trkpt lat="43.825387" lon="5.446843"><ele>886.1</ele><time>2011-02-06T10:58:55Z</time></trkpt>
<trkpt lat="43.825520" lon="5.446988"><ele>884.3</ele><time>2011-02-06T10:59:00Z</time></trkpt>
<trkpt lat="43.825638" lon="5.447128"><ele>882.9</ele><time>2011-02-06T10:59:05Z</time></trkpt>
<trkpt lat="43.825748" lon="5.447253"><ele>881.6</ele><time>2011-02-06T10:59:10Z</time></trkpt>
<trkpt lat="43.825867" lon="5.447385"><ele>880.3</ele><time>2011-02-06T10:59:15Z</time></trkpt>
<trkpt lat="43.825988" lon="5.447525"><ele>878.9</ele><time>2011-02-06T10:59:20Z</time></trkpt>
<trkpt lat="43.826095" lon="5.447708"><ele>877.1</ele><time>2011-02-06T10:59:25Z</time></trkpt>
<trkpt lat="43.826175" lon="5.447920"><ele>875.4</ele><time>2011-02-06T10:59:30Z</time></trkpt>
<trkpt lat="43.826222" lon="5.448135"><ele>873.9</ele><time>2011-02-06T10:59:35Z</time></trkpt>
<trkpt lat="43.826225" lon="5.448220"><ele>872.7</ele><time>2011-02-06T10:59:40Z</time></trkpt>
<trkpt lat="43.826222" lon="5.448222"><ele>872.7</ele><time>2011-02-06T10:59:45Z</time></trkpt>
<trkpt lat="43.826222" lon="5.448227"><ele>872.6</ele><time>2011-02-06T10:59:50Z</time></trkpt>
<trkpt lat="43.826218" lon="5.448230"><ele>872.8</ele><time>2011-02-06T10:59:55Z</time></trkpt>
<trkpt lat="43.826240" lon="5.448257"><ele>872.8</ele><time>2011-02-06T11:00:00Z</time></trkpt>
<trkpt lat="43.826248" lon="5.448273"><ele>872.8</ele><time>2011-02-06T11:00:05Z</time></trkpt>
<trkpt lat="43.826248" lon="5.448275"><ele>872.8</ele><time>2011-02-06T11:00:10Z</time></trkpt>
<trkpt lat="43.826252" lon="5.448287"><ele>873.1</ele><time>2011-02-06T11:00:15Z</time></trkpt>
<trkpt lat="43.826255" lon="5.448387"><ele>872.7</ele><time>2011-02-06T11:00:20Z</time></trkpt>
<trkpt lat="43.826260" lon="5.448502"><ele>872</ele><time>2011-02-06T11:00:25Z</time></trkpt>
<trkpt lat="43.826267" lon="5.448610"><ele>871.4</ele><time>2011-02-06T11:00:30Z</time></trkpt>
<trkpt lat="43.826272" lon="5.448768"><ele>870.3</ele><time>2011-02-06T11:00:35Z</time></trkpt>
<trkpt lat="43.826283" lon="5.448937"><ele>869.2</ele><time>2011-02-06T11:00:40Z</time></trkpt>
<trkpt lat="43.826290" lon="5.449082"><ele>867.9</ele><time>2011-02-06T11:00:45Z</time></trkpt>
<trkpt lat="43.826298" lon="5.449192"><ele>866.9</ele><time>2011-02-06T11:00:50Z</time></trkpt>
<trkpt lat="43.826317" lon="5.449340"><ele>865.8</ele><time>2011-02-06T11:00:55Z</time></trkpt>
<trkpt lat="43.826347" lon="5.449513"><ele>864.5</ele><time>2011-02-06T11:01:00Z</time></trkpt>
<trkpt lat="43.826382" lon="5.449637"><ele>863.7</ele><time>2011-02-06T11:01:05Z</time></trkpt>
<trkpt lat="43.826432" lon="5.449793"><ele>862.7</ele><time>2011-02-06T11:01:10Z</time></trkpt>
<trkpt lat="43.826485" lon="5.449977"><ele>861.6</ele><time>2011-02-06T11:01:15Z</time></trkpt>
<trkpt lat="43.826482" lon="5.449993"><ele>861.5</ele><time>2011-02-06T11:01:20Z</time></trkpt>
<trkpt lat="43.826482" lon="5.449992"><ele>861.5</ele><time>2011-02-06T11:01:25Z</time></trkpt>
<trkpt lat="43.826482" lon="5.449993"><ele>861.5</ele><time>2011-02-06T11:01:30Z</time></trkpt>
<trkpt lat="43.826482" lon="5.449992"><ele>861.8</ele><time>2011-02-06T11:01:35Z</time></trkpt>
<trkpt lat="43.826482" lon="5.449990"><ele>861.9</ele><time>2011-02-06T11:01:40Z</time></trkpt>
<trkpt lat="43.826482" lon="5.449997"><ele>861.8</ele><time>2011-02-06T11:01:45Z</time></trkpt>
<trkpt lat="43.826482" lon="5.449992"><ele>861.8</ele><time>2011-02-06T11:01:50Z</time></trkpt>
<trkpt lat="43.826477" lon="5.449988"><ele>861.3</ele><time>2011-02-06T11:01:55Z</time></trkpt>
<trkpt lat="43.826477" lon="5.449990"><ele>861</ele><time>2011-02-06T11:02:00Z</time></trkpt>
<trkpt lat="43.826477" lon="5.449990"><ele>861.2</ele><time>2011-02-06T11:02:05Z</time></trkpt>
<trkpt lat="43.826477" lon="5.449988"><ele>861.2</ele><time>2011-02-06T11:02:10Z</time></trkpt>
<trkpt lat="43.826473" lon="5.449987"><ele>861</ele><time>2011-02-06T11:02:15Z</time></trkpt>
<trkpt lat="43.826477" lon="5.449987"><ele>861</ele><time>2011-02-06T11:02:20Z</time></trkpt>
<trkpt lat="43.826477" lon="5.449987"><ele>861.1</ele><time>2011-02-06T11:02:25Z</time></trkpt>
<trkpt lat="43.826477" lon="5.450020"><ele>861.1</ele><time>2011-02-06T11:02:30Z</time></trkpt>
<trkpt lat="43.826420" lon="5.450182"><ele>859.9</ele><time>2011-02-06T11:02:35Z</time></trkpt>
<trkpt lat="43.826397" lon="5.450222"><ele>859.3</ele><time>2011-02-06T11:02:40Z</time></trkpt>
<trkpt lat="43.826393" lon="5.450223"><ele>859.3</ele><time>2011-02-06T11:02:45Z</time></trkpt>
<trkpt lat="43.826382" lon="5.450233"><ele>859.2</ele><time>2011-02-06T11:02:50Z</time></trkpt>
<trkpt lat="43.826290" lon="5.450323"><ele>858</ele><time>2011-02-06T11:02:55Z</time></trkpt>
<trkpt lat="43.826198" lon="5.450425"><ele>856.9</ele><time>2011-02-06T11:03:00Z</time></trkpt>
<trkpt lat="43.826127" lon="5.450535"><ele>855.9</ele><time>2011-02-06T11:03:05Z</time></trkpt>
<trkpt lat="43.826042" lon="5.450652"><ele>854.9</ele><time>2011-02-06T11:03:10Z</time></trkpt>
<trkpt lat="43.825973" lon="5.450803"><ele>853.6</ele><time>2011-02-06T11:03:15Z</time></trkpt>
<trkpt lat="43.825897" lon="5.450962"><ele>852.3</ele><time>2011-02-06T11:03:20Z</time></trkpt>
<trkpt lat="43.825813" lon="5.451130"><ele>850.9</ele><time>2011-02-06T11:03:25Z</time></trkpt>
<trkpt lat="43.825718" lon="5.451315"><ele>849.1</ele><time>2011-02-06T11:03:30Z</time></trkpt>
<trkpt lat="43.825603" lon="5.451497"><ele>847.2</ele><time>2011-02-06T11:03:35Z</time></trkpt>
<trkpt lat="43.825447" lon="5.451650"><ele>845.3</ele><time>2011-02-06T11:03:40Z</time></trkpt>
<trkpt lat="43.825295" lon="5.451803"><ele>843.4</ele><time>2011-02-06T11:03:45Z</time></trkpt>
<trkpt lat="43.825092" lon="5.451923"><ele>841.6</ele><time>2011-02-06T11:03:50Z</time></trkpt>
<trkpt lat="43.824883" lon="5.451912"><ele>840.1</ele><time>2011-02-06T11:03:55Z</time></trkpt>
<trkpt lat="43.824638" lon="5.451970"><ele>838.2</ele><time>2011-02-06T11:04:00Z</time></trkpt>
<trkpt lat="43.824437" lon="5.452047"><ele>837</ele><time>2011-02-06T11:04:05Z</time></trkpt>
<trkpt lat="43.824257" lon="5.452150"><ele>836</ele><time>2011-02-06T11:04:10Z</time></trkpt>
<trkpt lat="43.824100" lon="5.452277"><ele>835.2</ele><time>2011-02-06T11:04:15Z</time></trkpt>
<trkpt lat="43.824008" lon="5.452453"><ele>834.5</ele><time>2011-02-06T11:04:20Z</time></trkpt>
<trkpt lat="43.824138" lon="5.452593"><ele>831.5</ele><time>2011-02-06T11:04:25Z</time></trkpt>
<trkpt lat="43.824352" lon="5.452627"><ele>828.5</ele><time>2011-02-06T11:04:30Z</time></trkpt>
<trkpt lat="43.824573" lon="5.452728"><ele>824.9</ele><time>2011-02-06T11:04:35Z</time></trkpt>
<trkpt lat="43.824825" lon="5.452837"><ele>822.1</ele><time>2011-02-06T11:04:40Z</time></trkpt>
<trkpt lat="43.825097" lon="5.453008"><ele>819.2</ele><time>2011-02-06T11:04:45Z</time></trkpt>
<trkpt lat="43.825405" lon="5.453127"><ele>816</ele><time>2011-02-06T11:04:50Z</time></trkpt>
<trkpt lat="43.825692" lon="5.453115"><ele>813.5</ele><time>2011-02-06T11:04:55Z</time></trkpt>
<trkpt lat="43.825982" lon="5.452990"><ele>810.5</ele><time>2011-02-06T11:05:00Z</time></trkpt>
<trkpt lat="43.826287" lon="5.452852"><ele>807.5</ele><time>2011-02-06T11:05:05Z</time></trkpt>
<trkpt lat="43.826595" lon="5.452687"><ele>804.5</ele><time>2011-02-06T11:05:10Z</time></trkpt>
<trkpt lat="43.826893" lon="5.452563"><ele>802.4</ele><time>2011-02-06T11:05:15Z</time></trkpt>
<trkpt lat="43.827072" lon="5.452807"><ele>800.7</ele><time>2011-02-06T11:05:20Z</time></trkpt>
<trkpt lat="43.827050" lon="5.452973"><ele>800</ele><time>2011-02-06T11:05:25Z</time></trkpt>
<trkpt lat="43.826997" lon="5.453090"><ele>799.6</ele><time>2011-02-06T11:05:30Z</time></trkpt>
<trkpt lat="43.826973" lon="5.453192"><ele>799.2</ele><time>2011-02-06T11:05:35Z</time></trkpt>
<trkpt lat="43.826973" lon="5.453325"><ele>798.5</ele><time>2011-02-06T11:05:40Z</time></trkpt>
<trkpt lat="43.827027" lon="5.453465"><ele>798</ele><time>2011-02-06T11:05:45Z</time></trkpt>
<trkpt lat="43.827195" lon="5.453463"><ele>796.6</ele><time>2011-02-06T11:05:50Z</time></trkpt>
<trkpt lat="43.827430" lon="5.453288"><ele>794.2</ele><time>2011-02-06T11:05:55Z</time></trkpt>
<trkpt lat="43.827687" lon="5.453193"><ele>791.8</ele><time>2011-02-06T11:06:00Z</time></trkpt>
<trkpt lat="43.827877" lon="5.453378"><ele>789.3</ele><time>2011-02-06T11:06:05Z</time></trkpt>
<trkpt lat="43.827930" lon="5.453553"><ele>787.9</ele><time>2011-02-06T11:06:10Z</time></trkpt>
<trkpt lat="43.827972" lon="5.453682"><ele>787.1</ele><time>2011-02-06T11:06:15Z</time></trkpt>
<trkpt lat="43.828018" lon="5.453823"><ele>786.2</ele><time>2011-02-06T11:06:20Z</time></trkpt>
<trkpt lat="43.828048" lon="5.453968"><ele>785.3</ele><time>2011-02-06T11:06:25Z</time></trkpt>
<trkpt lat="43.828083" lon="5.454138"><ele>784.2</ele><time>2011-02-06T11:06:30Z</time></trkpt>
<trkpt lat="43.828113" lon="5.454318"><ele>783</ele><time>2011-02-06T11:06:35Z</time></trkpt>
<trkpt lat="43.828140" lon="5.454483"><ele>782.1</ele><time>2011-02-06T11:06:40Z</time></trkpt>
<trkpt lat="43.828193" lon="5.454638"><ele>781.7</ele><time>2011-02-06T11:06:45Z</time></trkpt>
<trkpt lat="43.828327" lon="5.454652"><ele>781.1</ele><time>2011-02-06T11:06:50Z</time></trkpt>
<trkpt lat="43.828358" lon="5.454435"><ele>779.4</ele><time>2011-02-06T11:06:55Z</time></trkpt>
<trkpt lat="43.828285" lon="5.454273"><ele>778.1</ele><time>2011-02-06T11:07:00Z</time></trkpt>
<trkpt lat="43.828258" lon="5.454162"><ele>777.2</ele><time>2011-02-06T11:07:05Z</time></trkpt>
<trkpt lat="43.828235" lon="5.454035"><ele>776.4</ele><time>2011-02-06T11:07:10Z</time></trkpt>
<trkpt lat="43.828217" lon="5.453922"><ele>775.6</ele><time>2011-02-06T11:07:15Z</time></trkpt>
<trkpt lat="43.828213" lon="5.453773"><ele>774.5</ele><time>2011-02-06T11:07:20Z</time></trkpt>
<trkpt lat="43.828217" lon="5.453590"><ele>773.2</ele><time>2011-02-06T11:07:25Z</time></trkpt>
<trkpt lat="43.828252" lon="5.453413"><ele>771.7</ele><time>2011-02-06T11:07:30Z</time></trkpt>
<trkpt lat="43.828320" lon="5.453160"><ele>770.1</ele><time>2011-02-06T11:07:35Z</time></trkpt>
<trkpt lat="43.828305" lon="5.452837"><ele>768.5</ele><time>2011-02-06T11:07:40Z</time></trkpt>
<trkpt lat="43.828140" lon="5.452557"><ele>766.6</ele><time>2011-02-06T11:07:45Z</time></trkpt>
<trkpt lat="43.828072" lon="5.452288"><ele>765.5</ele><time>2011-02-06T11:07:50Z</time></trkpt>
<trkpt lat="43.828213" lon="5.452172"><ele>764.5</ele><time>2011-02-06T11:07:55Z</time></trkpt>
<trkpt lat="43.828338" lon="5.452327"><ele>763.1</ele><time>2011-02-06T11:08:00Z</time></trkpt>
<trkpt lat="43.828442" lon="5.452568"><ele>761.2</ele><time>2011-02-06T11:08:05Z</time></trkpt>
<trkpt lat="43.828587" lon="5.452857"><ele>759.7</ele><time>2011-02-06T11:08:10Z</time></trkpt>
<trkpt lat="43.828602" lon="5.453167"><ele>758.3</ele><time>2011-02-06T11:08:15Z</time></trkpt>
<trkpt lat="43.828572" lon="5.453253"><ele>757.7</ele><time>2011-02-06T11:08:20Z</time></trkpt>
<trkpt lat="43.828548" lon="5.453350"><ele>757.3</ele><time>2011-02-06T11:08:25Z</time></trkpt>
<trkpt lat="43.828568" lon="5.453508"><ele>756.9</ele><time>2011-02-06T11:08:30Z</time></trkpt>
<trkpt lat="43.828685" lon="5.453618"><ele>756.2</ele><time>2011-02-06T11:08:35Z</time></trkpt>
<trkpt lat="43.828830" lon="5.453467"><ele>754.4</ele><time>2011-02-06T11:08:40Z</time></trkpt>
<trkpt lat="43.828823" lon="5.453187"><ele>752</ele><time>2011-02-06T11:08:45Z</time></trkpt>
<trkpt lat="43.828868" lon="5.452882"><ele>750</ele><time>2011-02-06T11:08:50Z</time></trkpt>
<trkpt lat="43.828942" lon="5.452598"><ele>747.8</ele><time>2011-02-06T11:08:55Z</time></trkpt>
<trkpt lat="43.829033" lon="5.452332"><ele>745.5</ele><time>2011-02-06T11:09:00Z</time></trkpt>
<trkpt lat="43.829163" lon="5.452023"><ele>742.8</ele><time>2011-02-06T11:09:05Z</time></trkpt>
<trkpt lat="43.829300" lon="5.451663"><ele>739.1</ele><time>2011-02-06T11:09:10Z</time></trkpt>
<trkpt lat="43.829487" lon="5.451380"><ele>736.3</ele><time>2011-02-06T11:09:15Z</time></trkpt>
<trkpt lat="43.829597" lon="5.451103"><ele>733.9</ele><time>2011-02-06T11:09:20Z</time></trkpt>
<trkpt lat="43.829617" lon="5.450830"><ele>732</ele><time>2011-02-06T11:09:25Z</time></trkpt>
<trkpt lat="43.829628" lon="5.450545"><ele>731.4</ele><time>2011-02-06T11:09:30Z</time></trkpt>
<trkpt lat="43.829628" lon="5.450285"><ele>731.6</ele><time>2011-02-06T11:09:35Z</time></trkpt>
<trkpt lat="43.829682" lon="5.450093"><ele>731.5</ele><time>2011-02-06T11:09:40Z</time></trkpt>
<trkpt lat="43.829742" lon="5.450005"><ele>731.9</ele><time>2011-02-06T11:09:45Z</time></trkpt>
<trkpt lat="43.829860" lon="5.449965"><ele>731.2</ele><time>2011-02-06T11:09:50Z</time></trkpt>
<trkpt lat="43.829963" lon="5.450145"><ele>729.3</ele><time>2011-02-06T11:09:55Z</time></trkpt>
<trkpt lat="43.829933" lon="5.450395"><ele>726.8</ele><time>2011-02-06T11:10:00Z</time></trkpt>
<trkpt lat="43.829925" lon="5.450628"><ele>724.4</ele><time>2011-02-06T11:10:05Z</time></trkpt>
<trkpt lat="43.829960" lon="5.450935"><ele>722</ele><time>2011-02-06T11:10:10Z</time></trkpt>
<trkpt lat="43.830040" lon="5.451215"><ele>720.1</ele><time>2011-02-06T11:10:15Z</time></trkpt>
<trkpt lat="43.830162" lon="5.451478"><ele>718.2</ele><time>2011-02-06T11:10:20Z</time></trkpt>
<trkpt lat="43.830247" lon="5.451683"><ele>716.5</ele><time>2011-02-06T11:10:25Z</time></trkpt>
<trkpt lat="43.830295" lon="5.451807"><ele>715.7</ele><time>2011-02-06T11:10:30Z</time></trkpt>
<trkpt lat="43.830418" lon="5.452003"><ele>714.5</ele><time>2011-02-06T11:10:35Z</time></trkpt>
<trkpt lat="43.830650" lon="5.452140"><ele>712.4</ele><time>2011-02-06T11:10:40Z</time></trkpt>
<trkpt lat="43.830952" lon="5.452097"><ele>709.7</ele><time>2011-02-06T11:10:45Z</time></trkpt>
<trkpt lat="43.831212" lon="5.451778"><ele>707</ele><time>2011-02-06T11:10:50Z</time></trkpt>
<trkpt lat="43.831375" lon="5.451392"><ele>704.7</ele><time>2011-02-06T11:10:55Z</time></trkpt>
<trkpt lat="43.831570" lon="5.451108"><ele>702.2</ele><time>2011-02-06T11:11:00Z</time></trkpt>
<trkpt lat="43.831748" lon="5.450808"><ele>699.4</ele><time>2011-02-06T11:11:05Z</time></trkpt>
<trkpt lat="43.831952" lon="5.450495"><ele>697.4</ele><time>2011-02-06T11:11:10Z</time></trkpt>
<trkpt lat="43.832183" lon="5.450310"><ele>696.8</ele><time>2011-02-06T11:11:15Z</time></trkpt>
<trkpt lat="43.832313" lon="5.450240"><ele>697.1</ele><time>2011-02-06T11:11:20Z</time></trkpt>
<trkpt lat="43.832432" lon="5.450215"><ele>697.1</ele><time>2011-02-06T11:11:25Z</time></trkpt>
<trkpt lat="43.832585" lon="5.450260"><ele>697.1</ele><time>2011-02-06T11:11:30Z</time></trkpt>
<trkpt lat="43.832713" lon="5.450425"><ele>696.8</ele><time>2011-02-06T11:11:35Z</time></trkpt>
<trkpt lat="43.832813" lon="5.450610"><ele>696.3</ele><time>2011-02-06T11:11:40Z</time></trkpt>
<trkpt lat="43.832932" lon="5.450785"><ele>695.2</ele><time>2011-02-06T11:11:45Z</time></trkpt>
<trkpt lat="43.833103" lon="5.450940"><ele>693.2</ele><time>2011-02-06T11:11:50Z</time></trkpt>
<trkpt lat="43.833287" lon="5.451058"><ele>691.1</ele><time>2011-02-06T11:11:55Z</time></trkpt>
<trkpt lat="43.833482" lon="5.451225"><ele>688.8</ele><time>2011-02-06T11:12:00Z</time></trkpt>
<trkpt lat="43.833660" lon="5.451378"><ele>686.6</ele><time>2011-02-06T11:12:05Z</time></trkpt>
<trkpt lat="43.833885" lon="5.451663"><ele>683</ele><time>2011-02-06T11:12:10Z</time></trkpt>
<trkpt lat="43.834098" lon="5.452012"><ele>679.4</ele><time>2011-02-06T11:12:15Z</time></trkpt>
<trkpt lat="43.834293" lon="5.452363"><ele>675.6</ele><time>2011-02-06T11:12:20Z</time></trkpt>
<trkpt lat="43.834557" lon="5.452608"><ele>672.2</ele><time>2011-02-06T11:12:25Z</time></trkpt>
<trkpt lat="43.834853" lon="5.452853"><ele>668.8</ele><time>2011-02-06T11:12:30Z</time></trkpt>
<trkpt lat="43.835182" lon="5.452978"><ele>665.6</ele><time>2011-02-06T11:12:35Z</time></trkpt>
<trkpt lat="43.835507" lon="5.452970"><ele>662.5</ele><time>2011-02-06T11:12:40Z</time></trkpt>
<trkpt lat="43.835815" lon="5.453007"><ele>660.5</ele><time>2011-02-06T11:12:45Z</time></trkpt>
<trkpt lat="43.836147" lon="5.453180"><ele>657.6</ele><time>2011-02-06T11:12:50Z</time></trkpt>
<trkpt lat="43.836442" lon="5.453407"><ele>654.4</ele><time>2011-02-06T11:12:55Z</time></trkpt>
<trkpt lat="43.836667" lon="5.453518"><ele>652.4</ele><time>2011-02-06T11:13:00Z</time></trkpt>
<trkpt lat="43.836940" lon="5.453627"><ele>650.1</ele><time>2011-02-06T11:13:05Z</time></trkpt>
<trkpt lat="43.837250" lon="5.453680"><ele>647.2</ele><time>2011-02-06T11:13:10Z</time></trkpt>
<trkpt lat="43.837585" lon="5.453793"><ele>644.1</ele><time>2011-02-06T11:13:15Z</time></trkpt>
<trkpt lat="43.837880" lon="5.453875"><ele>641</ele><time>2011-02-06T11:13:20Z</time></trkpt>
<trkpt lat="43.838093" lon="5.453970"><ele>638.8</ele><time>2011-02-06T11:13:25Z</time></trkpt>
<trkpt lat="43.838245" lon="5.454070"><ele>637.1</ele><time>2011-02-06T11:13:30Z</time></trkpt>
<trkpt lat="43.838413" lon="5.454162"><ele>635.5</ele><time>2011-02-06T11:13:35Z</time></trkpt>
<trkpt lat="43.838547" lon="5.454245"><ele>634</ele><time>2011-02-06T11:13:40Z</time></trkpt>
<trkpt lat="43.838692" lon="5.454327"><ele>632.7</ele><time>2011-02-06T11:13:45Z</time></trkpt>
<trkpt lat="43.838867" lon="5.454425"><ele>631.5</ele><time>2011-02-06T11:13:50Z</time></trkpt>
<trkpt lat="43.839070" lon="5.454560"><ele>629.4</ele><time>2011-02-06T11:13:55Z</time></trkpt>
<trkpt lat="43.839257" lon="5.454677"><ele>627.3</ele><time>2011-02-06T11:14:00Z</time></trkpt>
<trkpt lat="43.839417" lon="5.454800"><ele>625.5</ele><time>2011-02-06T11:14:05Z</time></trkpt>
<trkpt lat="43.839577" lon="5.454893"><ele>623.9</ele><time>2011-02-06T11:14:10Z</time></trkpt>
<trkpt lat="43.839725" lon="5.454975"><ele>622.1</ele><time>2011-02-06T11:14:15Z</time></trkpt>
<trkpt lat="43.839878" lon="5.455037"><ele>620.2</ele><time>2011-02-06T11:14:20Z</time></trkpt>
<trkpt lat="43.840015" lon="5.455075"><ele>618.6</ele><time>2011-02-06T11:14:25Z</time></trkpt>
<trkpt lat="43.840160" lon="5.455127"><ele>616.6</ele><time>2011-02-06T11:14:30Z</time></trkpt>
<trkpt lat="43.840340" lon="5.455182"><ele>614.3</ele><time>2011-02-06T11:14:35Z</time></trkpt>
<trkpt lat="43.840518" lon="5.455230"><ele>612.1</ele><time>2011-02-06T11:14:40Z</time></trkpt>
<trkpt lat="43.840760" lon="5.455330"><ele>609.1</ele><time>2011-02-06T11:14:45Z</time></trkpt>
<trkpt lat="43.840905" lon="5.455598"><ele>607.2</ele><time>2011-02-06T11:14:50Z</time></trkpt>
<trkpt lat="43.840897" lon="5.455923"><ele>604.9</ele><time>2011-02-06T11:14:55Z</time></trkpt>
<trkpt lat="43.840858" lon="5.456132"><ele>603</ele><time>2011-02-06T11:15:00Z</time></trkpt>
<trkpt lat="43.840797" lon="5.456188"><ele>602.1</ele><time>2011-02-06T11:15:05Z</time></trkpt>
<trkpt lat="43.840797" lon="5.456183"><ele>601.7</ele><time>2011-02-06T11:15:10Z</time></trkpt>
<trkpt lat="43.840797" lon="5.456178"><ele>601.4</ele><time>2011-02-06T11:15:15Z</time></trkpt>
<trkpt lat="43.840797" lon="5.456178"><ele>601</ele><time>2011-02-06T11:15:20Z</time></trkpt>
<trkpt lat="43.840797" lon="5.456178"><ele>600.7</ele><time>2011-02-06T11:15:25Z</time></trkpt>
<trkpt lat="43.840797" lon="5.456178"><ele>600.5</ele><time>2011-02-06T11:15:30Z</time></trkpt>
<trkpt lat="43.840797" lon="5.456172"><ele>601</ele><time>2011-02-06T11:15:35Z</time></trkpt>
<trkpt lat="43.840797" lon="5.456167"><ele>601.2</ele><time>2011-02-06T11:15:40Z</time></trkpt>
<trkpt lat="43.840797" lon="5.456167"><ele>600.9</ele><time>2011-02-06T11:15:45Z</time></trkpt>
<trkpt lat="43.840797" lon="5.456170"><ele>600.9</ele><time>2011-02-06T11:15:50Z</time></trkpt>
<trkpt lat="43.840828" lon="5.456218"><ele>600.6</ele><time>2011-02-06T11:15:55Z</time></trkpt>
<trkpt lat="43.840840" lon="5.456407"><ele>599.7</ele><time>2011-02-06T11:16:00Z</time></trkpt>
<trkpt lat="43.840953" lon="5.456530"><ele>600.5</ele><time>2011-02-06T11:16:05Z</time></trkpt>
<trkpt lat="43.841083" lon="5.456637"><ele>601.5</ele><time>2011-02-06T11:16:10Z</time></trkpt>
<trkpt lat="43.841213" lon="5.456743"><ele>602.6</ele><time>2011-02-06T11:16:15Z</time></trkpt>
<trkpt lat="43.841362" lon="5.456817"><ele>603.6</ele><time>2011-02-06T11:16:20Z</time></trkpt>
<trkpt lat="43.841518" lon="5.456840"><ele>604.7</ele><time>2011-02-06T11:16:25Z</time></trkpt>
<trkpt lat="43.841667" lon="5.456787"><ele>605.8</ele><time>2011-02-06T11:16:30Z</time></trkpt>
<trkpt lat="43.841805" lon="5.456668"><ele>606.6</ele><time>2011-02-06T11:16:35Z</time></trkpt>
<trkpt lat="43.841923" lon="5.456517"><ele>607.4</ele><time>2011-02-06T11:16:40Z</time></trkpt>
<trkpt lat="43.842037" lon="5.456358"><ele>608.1</ele><time>2011-02-06T11:16:45Z</time></trkpt>
<trkpt lat="43.842163" lon="5.456205"><ele>608.8</ele><time>2011-02-06T11:16:50Z</time></trkpt>
<trkpt lat="43.842297" lon="5.456028"><ele>609.6</ele><time>2011-02-06T11:16:55Z</time></trkpt>
<trkpt lat="43.842427" lon="5.455833"><ele>610.4</ele><time>2011-02-06T11:17:00Z</time></trkpt>
<trkpt lat="43.842533" lon="5.455612"><ele>611.3</ele><time>2011-02-06T11:17:05Z</time></trkpt>
<trkpt lat="43.842613" lon="5.455363"><ele>612.1</ele><time>2011-02-06T11:17:10Z</time></trkpt>
<trkpt lat="43.842670" lon="5.455102"><ele>612.7</ele><time>2011-02-06T11:17:15Z</time></trkpt>
<trkpt lat="43.842723" lon="5.454837"><ele>613.4</ele><time>2011-02-06T11:17:20Z</time></trkpt>
<trkpt lat="43.842785" lon="5.454573"><ele>614.1</ele><time>2011-02-06T11:17:25Z</time></trkpt>
<trkpt lat="43.842850" lon="5.454318"><ele>615</ele><time>2011-02-06T11:17:30Z</time></trkpt>
<trkpt lat="43.842907" lon="5.454067"><ele>615.8</ele><time>2011-02-06T11:17:35Z</time></trkpt>
<trkpt lat="43.842965" lon="5.453823"><ele>616.5</ele><time>2011-02-06T11:17:40Z</time></trkpt>
<trkpt lat="43.843022" lon="5.453558"><ele>616.9</ele><time>2011-02-06T11:17:45Z</time></trkpt>
<trkpt lat="43.843082" lon="5.453272"><ele>617.2</ele><time>2011-02-06T11:17:50Z</time></trkpt>
<trkpt lat="43.843147" lon="5.452968"><ele>617.4</ele><time>2011-02-06T11:17:55Z</time></trkpt>
<trkpt lat="43.843178" lon="5.452647"><ele>617.5</ele><time>2011-02-06T11:18:00Z</time></trkpt>
<trkpt lat="43.843158" lon="5.452315"><ele>617.6</ele><time>2011-02-06T11:18:05Z</time></trkpt>
<trkpt lat="43.843093" lon="5.451987"><ele>617.8</ele><time>2011-02-06T11:18:10Z</time></trkpt>
<trkpt lat="43.843022" lon="5.451643"><ele>617.8</ele><time>2011-02-06T11:18:15Z</time></trkpt>
<trkpt lat="43.842957" lon="5.451313"><ele>618</ele><time>2011-02-06T11:18:20Z</time></trkpt>
<trkpt lat="43.842888" lon="5.450978"><ele>618</ele><time>2011-02-06T11:18:25Z</time></trkpt>
<trkpt lat="43.842820" lon="5.450620"><ele>617.9</ele><time>2011-02-06T11:18:30Z</time></trkpt>
<trkpt lat="43.842782" lon="5.450248"><ele>617.9</ele><time>2011-02-06T11:18:35Z</time></trkpt>
<trkpt lat="43.842800" lon="5.449873"><ele>618.3</ele><time>2011-02-06T11:18:40Z</time></trkpt>
<trkpt lat="43.842853" lon="5.449510"><ele>618.4</ele><time>2011-02-06T11:18:45Z</time></trkpt>
<trkpt lat="43.842907" lon="5.449143"><ele>618.4</ele><time>2011-02-06T11:18:50Z</time></trkpt>
<trkpt lat="43.842953" lon="5.448777"><ele>618.6</ele><time>2011-02-06T11:18:55Z</time></trkpt>
<trkpt lat="43.843007" lon="5.448412"><ele>618.9</ele><time>2011-02-06T11:19:00Z</time></trkpt>
<trkpt lat="43.843055" lon="5.448048"><ele>619.5</ele><time>2011-02-06T11:19:05Z</time></trkpt>
<trkpt lat="43.843108" lon="5.447690"><ele>620.2</ele><time>2011-02-06T11:19:10Z</time></trkpt>
<trkpt lat="43.843137" lon="5.447322"><ele>620.5</ele><time>2011-02-06T11:19:15Z</time></trkpt>
<trkpt lat="43.843102" lon="5.446948"><ele>620.6</ele><time>2011-02-06T11:19:20Z</time></trkpt>
<trkpt lat="43.843018" lon="5.446582"><ele>620.9</ele><time>2011-02-06T11:19:25Z</time></trkpt>
<trkpt lat="43.842948" lon="5.446212"><ele>621.3</ele><time>2011-02-06T11:19:30Z</time></trkpt>
<trkpt lat="43.842895" lon="5.445822"><ele>621.3</ele><time>2011-02-06T11:19:35Z</time></trkpt>
<trkpt lat="43.842895" lon="5.445413"><ele>621.6</ele><time>2011-02-06T11:19:40Z</time></trkpt>
<trkpt lat="43.842945" lon="5.445008"><ele>621.7</ele><time>2011-02-06T11:19:45Z</time></trkpt>
<trkpt lat="43.843022" lon="5.444608"><ele>621.3</ele><time>2011-02-06T11:19:50Z</time></trkpt>
<trkpt lat="43.843102" lon="5.444193"><ele>621.4</ele><time>2011-02-06T11:19:55Z</time></trkpt>
<trkpt lat="43.843132" lon="5.443750"><ele>621.9</ele><time>2011-02-06T11:20:00Z</time></trkpt>
<trkpt lat="43.843143" lon="5.443285"><ele>622</ele><time>2011-02-06T11:20:05Z</time></trkpt>
<trkpt lat="43.843220" lon="5.442832"><ele>622.1</ele><time>2011-02-06T11:20:10Z</time></trkpt>
<trkpt lat="43.843362" lon="5.442377"><ele>621.3</ele><time>2011-02-06T11:20:15Z</time></trkpt>
<trkpt lat="43.843507" lon="5.441885"><ele>619.7</ele><time>2011-02-06T11:20:20Z</time></trkpt>
<trkpt lat="43.843655" lon="5.441383"><ele>618.1</ele><time>2011-02-06T11:20:25Z</time></trkpt>
<trkpt lat="43.843815" lon="5.440890"><ele>616.9</ele><time>2011-02-06T11:20:30Z</time></trkpt>
<trkpt lat="43.844090" lon="5.440538"><ele>616.3</ele><time>2011-02-06T11:20:35Z</time></trkpt>
<trkpt lat="43.844395" lon="5.440280"><ele>615.9</ele><time>2011-02-06T11:20:40Z</time></trkpt>
<trkpt lat="43.844692" lon="5.440048"><ele>615.9</ele><time>2011-02-06T11:20:45Z</time></trkpt>
<trkpt lat="43.844978" lon="5.439880"><ele>616.5</ele><time>2011-02-06T11:20:50Z</time></trkpt>
<trkpt lat="43.845230" lon="5.439605"><ele>615.8</ele><time>2011-02-06T11:20:55Z</time></trkpt>
<trkpt lat="43.845467" lon="5.439228"><ele>613.8</ele><time>2011-02-06T11:21:00Z</time></trkpt>
<trkpt lat="43.845860" lon="5.439077"><ele>611</ele><time>2011-02-06T11:21:05Z</time></trkpt>
<trkpt lat="43.846263" lon="5.438858"><ele>607.9</ele><time>2011-02-06T11:21:10Z</time></trkpt>
<trkpt lat="43.846692" lon="5.438627"><ele>604.8</ele><time>2011-02-06T11:21:15Z</time></trkpt>
<trkpt lat="43.847133" lon="5.438642"><ele>601.9</ele><time>2011-02-06T11:21:20Z</time></trkpt>
<trkpt lat="43.847557" lon="5.438888"><ele>598.8</ele><time>2011-02-06T11:21:25Z</time></trkpt>
<trkpt lat="43.848003" lon="5.438747"><ele>596</ele><time>2011-02-06T11:21:30Z</time></trkpt>
<trkpt lat="43.848392" lon="5.438432"><ele>593.4</ele><time>2011-02-06T11:21:35Z</time></trkpt>
<trkpt lat="43.848770" lon="5.438113"><ele>591.9</ele><time>2011-02-06T11:21:40Z</time></trkpt>
<trkpt lat="43.849128" lon="5.437805"><ele>590.5</ele><time>2011-02-06T11:21:45Z</time></trkpt>
<trkpt lat="43.849477" lon="5.437502"><ele>588.3</ele><time>2011-02-06T11:21:50Z</time></trkpt>
<trkpt lat="43.849827" lon="5.437198"><ele>586.4</ele><time>2011-02-06T11:21:55Z</time></trkpt>
<trkpt lat="43.850170" lon="5.436907"><ele>584.6</ele><time>2011-02-06T11:22:00Z</time></trkpt>
<trkpt lat="43.850495" lon="5.436622"><ele>583.2</ele><time>2011-02-06T11:22:05Z</time></trkpt>
<trkpt lat="43.850792" lon="5.436365"><ele>582.4</ele><time>2011-02-06T11:22:10Z</time></trkpt>
<trkpt lat="43.851058" lon="5.436133"><ele>581.9</ele><time>2011-02-06T11:22:15Z</time></trkpt>
<trkpt lat="43.851295" lon="5.435928"><ele>581.6</ele><time>2011-02-06T11:22:20Z</time></trkpt>
<trkpt lat="43.851505" lon="5.435737"><ele>581.1</ele><time>2011-02-06T11:22:25Z</time></trkpt>
<trkpt lat="43.851712" lon="5.435562"><ele>580.5</ele><time>2011-02-06T11:22:30Z</time></trkpt>
<trkpt lat="43.851762" lon="5.435477"><ele>580.4</ele><time>2011-02-06T11:22:35Z</time></trkpt>
<trkpt lat="43.851665" lon="5.435550"><ele>580.6</ele><time>2011-02-06T11:22:40Z</time></trkpt>
<trkpt lat="43.851525" lon="5.435563"><ele>581.2</ele><time>2011-02-06T11:22:45Z</time></trkpt>
<trkpt lat="43.851380" lon="5.435535"><ele>582</ele><time>2011-02-06T11:22:50Z</time></trkpt>
<trkpt lat="43.851227" lon="5.435510"><ele>582.8</ele><time>2011-02-06T11:22:55Z</time></trkpt>
<trkpt lat="43.851063" lon="5.435472"><ele>583.7</ele><time>2011-02-06T11:23:00Z</time></trkpt>
<trkpt lat="43.850898" lon="5.435438"><ele>584.6</ele><time>2011-02-06T11:23:05Z</time></trkpt>
<trkpt lat="43.850723" lon="5.435405"><ele>585.2</ele><time>2011-02-06T11:23:10Z</time></trkpt>
<trkpt lat="43.850543" lon="5.435365"><ele>585.6</ele><time>2011-02-06T11:23:15Z</time></trkpt>
<trkpt lat="43.850362" lon="5.435332"><ele>586.4</ele><time>2011-02-06T11:23:20Z</time></trkpt>
<trkpt lat="43.850182" lon="5.435295"><ele>587.6</ele><time>2011-02-06T11:23:25Z</time></trkpt>
<trkpt lat="43.849987" lon="5.435257"><ele>588.4</ele><time>2011-02-06T11:23:30Z</time></trkpt>
<trkpt lat="43.849770" lon="5.435207"><ele>588.6</ele><time>2011-02-06T11:23:35Z</time></trkpt>
<trkpt lat="43.849557" lon="5.435162"><ele>588.6</ele><time>2011-02-06T11:23:40Z</time></trkpt>
<trkpt lat="43.849332" lon="5.435110"><ele>588.6</ele><time>2011-02-06T11:23:45Z</time></trkpt>
<trkpt lat="43.849107" lon="5.435058"><ele>588.5</ele><time>2011-02-06T11:23:50Z</time></trkpt>
<trkpt lat="43.848862" lon="5.435002"><ele>587.9</ele><time>2011-02-06T11:23:55Z</time></trkpt>
<trkpt lat="43.848563" lon="5.434943"><ele>587.4</ele><time>2011-02-06T11:24:00Z</time></trkpt>
<trkpt lat="43.848263" lon="5.434877"><ele>587.6</ele><time>2011-02-06T11:24:05Z</time></trkpt>
<trkpt lat="43.847988" lon="5.434812"><ele>588.9</ele><time>2011-02-06T11:24:10Z</time></trkpt>
<trkpt lat="43.847787" lon="5.434768"><ele>590.8</ele><time>2011-02-06T11:24:15Z</time></trkpt>
<trkpt lat="43.847603" lon="5.434722"><ele>592.2</ele><time>2011-02-06T11:24:20Z</time></trkpt>
<trkpt lat="43.847405" lon="5.434680"><ele>593.7</ele><time>2011-02-06T11:24:25Z</time></trkpt>
<trkpt lat="43.847187" lon="5.434630"><ele>594</ele><time>2011-02-06T11:24:30Z</time></trkpt>
<trkpt lat="43.846932" lon="5.434543"><ele>593.4</ele><time>2011-02-06T11:24:35Z</time></trkpt>
<trkpt lat="43.846665" lon="5.434393"><ele>592.3</ele><time>2011-02-06T11:24:40Z</time></trkpt>
<trkpt lat="43.846462" lon="5.434130"><ele>592</ele><time>2011-02-06T11:24:45Z</time></trkpt>
<trkpt lat="43.846302" lon="5.433832"><ele>592.1</ele><time>2011-02-06T11:24:50Z</time></trkpt>
<trkpt lat="43.846150" lon="5.433538"><ele>592.6</ele><time>2011-02-06T11:24:55Z</time></trkpt>
<trkpt lat="43.845978" lon="5.433235"><ele>592.3</ele><time>2011-02-06T11:25:00Z</time></trkpt>
<trkpt lat="43.845787" lon="5.432915"><ele>592.4</ele><time>2011-02-06T11:25:05Z</time></trkpt>
<trkpt lat="43.845603" lon="5.432575"><ele>591.9</ele><time>2011-02-06T11:25:10Z</time></trkpt>
<trkpt lat="43.845410" lon="5.432218"><ele>591</ele><time>2011-02-06T11:25:15Z</time></trkpt>
<trkpt lat="43.845203" lon="5.431845"><ele>590</ele><time>2011-02-06T11:25:20Z</time></trkpt>
<trkpt lat="43.845142" lon="5.431400"><ele>589.5</ele><time>2011-02-06T11:25:25Z</time></trkpt>
<trkpt lat="43.845180" lon="5.430965"><ele>590</ele><time>2011-02-06T11:25:30Z</time></trkpt>
<trkpt lat="43.845207" lon="5.430538"><ele>591</ele><time>2011-02-06T11:25:35Z</time></trkpt>
<trkpt lat="43.845233" lon="5.430122"><ele>592</ele><time>2011-02-06T11:25:40Z</time></trkpt>
<trkpt lat="43.845272" lon="5.429688"><ele>591.4</ele><time>2011-02-06T11:25:45Z</time></trkpt>
<trkpt lat="43.845310" lon="5.429253"><ele>590.7</ele><time>2011-02-06T11:25:50Z</time></trkpt>
<trkpt lat="43.845340" lon="5.428810"><ele>590.2</ele><time>2011-02-06T11:25:55Z</time></trkpt>
<trkpt lat="43.845383" lon="5.428353"><ele>589.4</ele><time>2011-02-06T11:26:00Z</time></trkpt>
<trkpt lat="43.845422" lon="5.427900"><ele>588.8</ele><time>2011-02-06T11:26:05Z</time></trkpt>
<trkpt lat="43.845455" lon="5.427460"><ele>588.5</ele><time>2011-02-06T11:26:10Z</time></trkpt>
<trkpt lat="43.845478" lon="5.427013"><ele>587.9</ele><time>2011-02-06T11:26:15Z</time></trkpt>
<trkpt lat="43.845493" lon="5.426562"><ele>587.3</ele><time>2011-02-06T11:26:20Z</time></trkpt>
<trkpt lat="43.845512" lon="5.426070"><ele>586.2</ele><time>2011-02-06T11:26:25Z</time></trkpt>
<trkpt lat="43.845547" lon="5.425547"><ele>585</ele><time>2011-02-06T11:26:30Z</time></trkpt>
<trkpt lat="43.845573" lon="5.425000"><ele>583.7</ele><time>2011-02-06T11:26:35Z</time></trkpt>
<trkpt lat="43.845588" lon="5.424455"><ele>582.8</ele><time>2011-02-06T11:26:40Z</time></trkpt>
<trkpt lat="43.845612" lon="5.423925"><ele>582.1</ele><time>2011-02-06T11:26:45Z</time></trkpt>
<trkpt lat="43.845630" lon="5.423398"><ele>581.5</ele><time>2011-02-06T11:26:50Z</time></trkpt>
<trkpt lat="43.845662" lon="5.422873"><ele>580.9</ele><time>2011-02-06T11:26:55Z</time></trkpt>
<trkpt lat="43.845688" lon="5.422347"><ele>580.3</ele><time>2011-02-06T11:27:00Z</time></trkpt>
<trkpt lat="43.845700" lon="5.421805"><ele>579.8</ele><time>2011-02-06T11:27:05Z</time></trkpt>
<trkpt lat="43.845710" lon="5.421270"><ele>579.3</ele><time>2011-02-06T11:27:10Z</time></trkpt>
<trkpt lat="43.845727" lon="5.420782"><ele>579.1</ele><time>2011-02-06T11:27:15Z</time></trkpt>
<trkpt lat="43.845742" lon="5.420345"><ele>578.9</ele><time>2011-02-06T11:27:20Z</time></trkpt>
<trkpt lat="43.845757" lon="5.419908"><ele>578.3</ele><time>2011-02-06T11:27:25Z</time></trkpt>
<trkpt lat="43.845783" lon="5.419642"><ele>578.3</ele><time>2011-02-06T11:27:30Z</time></trkpt>
<trkpt lat="43.845798" lon="5.419617"><ele>578.5</ele><time>2011-02-06T11:27:35Z</time></trkpt>
<trkpt lat="43.845798" lon="5.419437"><ele>578.3</ele><time>2011-02-06T11:27:40Z</time></trkpt>
<trkpt lat="43.845787" lon="5.419110"><ele>577.8</ele><time>2011-02-06T11:27:45Z</time></trkpt>
<trkpt lat="43.845802" lon="5.418652"><ele>577.4</ele><time>2011-02-06T11:27:50Z</time></trkpt>
<trkpt lat="43.845822" lon="5.418148"><ele>577</ele><time>2011-02-06T11:27:55Z</time></trkpt>
<trkpt lat="43.845840" lon="5.417660"><ele>576.9</ele><time>2011-02-06T11:28:00Z</time></trkpt>
<trkpt lat="43.845855" lon="5.417175"><ele>576.7</ele><time>2011-02-06T11:28:05Z</time></trkpt>
<trkpt lat="43.845875" lon="5.416687"><ele>576.2</ele><time>2011-02-06T11:28:10Z</time></trkpt>
<trkpt lat="43.845893" lon="5.416180"><ele>575.9</ele><time>2011-02-06T11:28:15Z</time></trkpt>
<trkpt lat="43.845913" lon="5.415672"><ele>575.4</ele><time>2011-02-06T11:28:20Z</time></trkpt>
<trkpt lat="43.845932" lon="5.415162"><ele>574.5</ele><time>2011-02-06T11:28:25Z</time></trkpt>
<trkpt lat="43.845952" lon="5.414662"><ele>573.7</ele><time>2011-02-06T11:28:30Z</time></trkpt>
<trkpt lat="43.845967" lon="5.414177"><ele>573.4</ele><time>2011-02-06T11:28:35Z</time></trkpt>
<trkpt lat="43.845985" lon="5.413705"><ele>573</ele><time>2011-02-06T11:28:40Z</time></trkpt>
<trkpt lat="43.846000" lon="5.413285"><ele>572</ele><time>2011-02-06T11:28:45Z</time></trkpt>
<trkpt lat="43.846020" lon="5.413117"><ele>571.7</ele><time>2011-02-06T11:28:50Z</time></trkpt>
<trkpt lat="43.846017" lon="5.412895"><ele>571.4</ele><time>2011-02-06T11:28:55Z</time></trkpt>
<trkpt lat="43.846027" lon="5.412548"><ele>570.9</ele><time>2011-02-06T11:29:00Z</time></trkpt>
<trkpt lat="43.846043" lon="5.412167"><ele>570.5</ele><time>2011-02-06T11:29:05Z</time></trkpt>
<trkpt lat="43.846058" lon="5.411762"><ele>570</ele><time>2011-02-06T11:29:10Z</time></trkpt>
<trkpt lat="43.846073" lon="5.411323"><ele>570</ele><time>2011-02-06T11:29:15Z</time></trkpt>
<trkpt lat="43.846065" lon="5.410840"><ele>569.3</ele><time>2011-02-06T11:29:20Z</time></trkpt>
<trkpt lat="43.846038" lon="5.410322"><ele>568.8</ele><time>2011-02-06T11:29:25Z</time></trkpt>
<trkpt lat="43.846012" lon="5.409797"><ele>568.2</ele><time>2011-02-06T11:29:30Z</time></trkpt>
<trkpt lat="43.845990" lon="5.409278"><ele>567.8</ele><time>2011-02-06T11:29:35Z</time></trkpt>
<trkpt lat="43.845970" lon="5.408758"><ele>567.1</ele><time>2011-02-06T11:29:40Z</time></trkpt>
<trkpt lat="43.845947" lon="5.408233"><ele>566.5</ele><time>2011-02-06T11:29:45Z</time></trkpt>
<trkpt lat="43.845917" lon="5.407692"><ele>565.7</ele><time>2011-02-06T11:29:50Z</time></trkpt>
<trkpt lat="43.845890" lon="5.407158"><ele>565</ele><time>2011-02-06T11:29:55Z</time></trkpt>
<trkpt lat="43.845872" lon="5.406622"><ele>563.7</ele><time>2011-02-06T11:30:00Z</time></trkpt>
<trkpt lat="43.845848" lon="5.406073"><ele>562.4</ele><time>2011-02-06T11:30:05Z</time></trkpt>
<trkpt lat="43.845818" lon="5.405535"><ele>562.1</ele><time>2011-02-06T11:30:10Z</time></trkpt>
<trkpt lat="43.845795" lon="5.405023"><ele>561.7</ele><time>2011-02-06T11:30:15Z</time></trkpt>
<trkpt lat="43.845772" lon="5.404517"><ele>560.9</ele><time>2011-02-06T11:30:20Z</time></trkpt>
<trkpt lat="43.845748" lon="5.404030"><ele>560.2</ele><time>2011-02-06T11:30:25Z</time></trkpt>
<trkpt lat="43.845722" lon="5.403522"><ele>559.3</ele><time>2011-02-06T11:30:30Z</time></trkpt>
<trkpt lat="43.845707" lon="5.402987"><ele>558.5</ele><time>2011-02-06T11:30:35Z</time></trkpt>
<trkpt lat="43.845703" lon="5.402453"><ele>557.6</ele><time>2011-02-06T11:30:40Z</time></trkpt>
<trkpt lat="43.845700" lon="5.401925"><ele>556.4</ele><time>2011-02-06T11:30:45Z</time></trkpt>
<trkpt lat="43.845695" lon="5.401367"><ele>554.9</ele><time>2011-02-06T11:30:50Z</time></trkpt>
<trkpt lat="43.845692" lon="5.400790"><ele>553.4</ele><time>2011-02-06T11:30:55Z</time></trkpt>
<trkpt lat="43.845688" lon="5.400222"><ele>552.9</ele><time>2011-02-06T11:31:00Z</time></trkpt>
<trkpt lat="43.845688" lon="5.399683"><ele>552.9</ele><time>2011-02-06T11:31:05Z</time></trkpt>
<trkpt lat="43.845688" lon="5.399172"><ele>552.4</ele><time>2011-02-06T11:31:10Z</time></trkpt>
<trkpt lat="43.845700" lon="5.398623"><ele>551</ele><time>2011-02-06T11:31:15Z</time></trkpt>
<trkpt lat="43.845710" lon="5.398037"><ele>549.3</ele><time>2011-02-06T11:31:20Z</time></trkpt>
<trkpt lat="43.845718" lon="5.397472"><ele>548.5</ele><time>2011-02-06T11:31:25Z</time></trkpt>
<trkpt lat="43.845730" lon="5.396915"><ele>548.1</ele><time>2011-02-06T11:31:30Z</time></trkpt>
<trkpt lat="43.845722" lon="5.396368"><ele>548</ele><time>2011-02-06T11:31:35Z</time></trkpt>
<trkpt lat="43.845653" lon="5.395845"><ele>547.4</ele><time>2011-02-06T11:31:40Z</time></trkpt>
<trkpt lat="43.845555" lon="5.395335"><ele>546.8</ele><time>2011-02-06T11:31:45Z</time></trkpt>
<trkpt lat="43.845452" lon="5.394850"><ele>546.4</ele><time>2011-02-06T11:31:50Z</time></trkpt>
<trkpt lat="43.845345" lon="5.394365"><ele>546.1</ele><time>2011-02-06T11:31:55Z</time></trkpt>
<trkpt lat="43.845238" lon="5.393860"><ele>545.6</ele><time>2011-02-06T11:32:00Z</time></trkpt>
<trkpt lat="43.845127" lon="5.393342"><ele>544.9</ele><time>2011-02-06T11:32:05Z</time></trkpt>
<trkpt lat="43.845013" lon="5.392820"><ele>543.8</ele><time>2011-02-06T11:32:10Z</time></trkpt>
<trkpt lat="43.844907" lon="5.392307"><ele>542.9</ele><time>2011-02-06T11:32:15Z</time></trkpt>
<trkpt lat="43.844803" lon="5.391820"><ele>542.2</ele><time>2011-02-06T11:32:20Z</time></trkpt>
<trkpt lat="43.844700" lon="5.391340"><ele>541.5</ele><time>2011-02-06T11:32:25Z</time></trkpt>
<trkpt lat="43.844597" lon="5.390860"><ele>540.8</ele><time>2011-02-06T11:32:30Z</time></trkpt>
<trkpt lat="43.844498" lon="5.390385"><ele>540.2</ele><time>2011-02-06T11:32:35Z</time></trkpt>
<trkpt lat="43.844402" lon="5.389950"><ele>539.8</ele><time>2011-02-06T11:32:40Z</time></trkpt>
<trkpt lat="43.844360" lon="5.389593"><ele>539.9</ele><time>2011-02-06T11:32:45Z</time></trkpt>
<trkpt lat="43.844380" lon="5.389477"><ele>540.1</ele><time>2011-02-06T11:32:50Z</time></trkpt>
<trkpt lat="43.844288" lon="5.389327"><ele>540</ele><time>2011-02-06T11:32:55Z</time></trkpt>
<trkpt lat="43.844357" lon="5.389220"><ele>539.9</ele><time>2011-02-06T11:33:00Z</time></trkpt>
<trkpt lat="43.844478" lon="5.389155"><ele>540.1</ele><time>2011-02-06T11:33:05Z</time></trkpt>
<trkpt lat="43.844593" lon="5.389002"><ele>539.6</ele><time>2011-02-06T11:33:10Z</time></trkpt>
<trkpt lat="43.844692" lon="5.388870"><ele>539.4</ele><time>2011-02-06T11:33:15Z</time></trkpt>
<trkpt lat="43.844750" lon="5.388755"><ele>539.4</ele><time>2011-02-06T11:33:20Z</time></trkpt>
<trkpt lat="43.844830" lon="5.388627"><ele>539.4</ele><time>2011-02-06T11:33:25Z</time></trkpt>
<trkpt lat="43.844895" lon="5.388423"><ele>538.1</ele><time>2011-02-06T11:33:30Z</time></trkpt>
<trkpt lat="43.845002" lon="5.388185"><ele>535.8</ele><time>2011-02-06T11:33:35Z</time></trkpt>
<trkpt lat="43.845058" lon="5.388078"><ele>534.6</ele><time>2011-02-06T11:33:40Z</time></trkpt>
<trkpt lat="43.845062" lon="5.388062"><ele>534</ele><time>2011-02-06T11:33:45Z</time></trkpt>
<trkpt lat="43.845062" lon="5.387897"><ele>532.5</ele><time>2011-02-06T11:33:50Z</time></trkpt>
<trkpt lat="43.845097" lon="5.387743"><ele>530</ele><time>2011-02-06T11:33:55Z</time></trkpt>
<trkpt lat="43.845100" lon="5.387722"><ele>529</ele><time>2011-02-06T11:34:00Z</time></trkpt>
<trkpt lat="43.845093" lon="5.387738"><ele>529.6</ele><time>2011-02-06T11:34:05Z</time></trkpt>
<trkpt lat="43.845078" lon="5.387783"><ele>530.4</ele><time>2011-02-06T11:34:10Z</time></trkpt>
<trkpt lat="43.845062" lon="5.387848"><ele>531</ele><time>2011-02-06T11:34:15Z</time></trkpt>
<trkpt lat="43.845050" lon="5.387900"><ele>532.4</ele><time>2011-02-06T11:34:20Z</time></trkpt>
<trkpt lat="43.845055" lon="5.387937"><ele>532.8</ele><time>2011-02-06T11:34:25Z</time></trkpt>
<trkpt lat="43.845058" lon="5.387962"><ele>532.9</ele><time>2011-02-06T11:34:30Z</time></trkpt>
<trkpt lat="43.845055" lon="5.387960"><ele>532.7</ele><time>2011-02-06T11:34:35Z</time></trkpt>
<trkpt lat="43.845055" lon="5.387960"><ele>532.5</ele><time>2011-02-06T11:34:40Z</time></trkpt>
<trkpt lat="43.845055" lon="5.387963"><ele>532.3</ele><time>2011-02-06T11:34:45Z</time></trkpt>
<trkpt lat="43.845055" lon="5.387968"><ele>531.8</ele><time>2011-02-06T11:34:50Z</time></trkpt>
<trkpt lat="43.845058" lon="5.387972"><ele>532.1</ele><time>2011-02-06T11:34:55Z</time></trkpt>
<trkpt lat="43.845062" lon="5.387975"><ele>532.1</ele><time>2011-02-06T11:35:00Z</time></trkpt>
<trkpt lat="43.845058" lon="5.388007"><ele>532.6</ele><time>2011-02-06T11:35:05Z</time></trkpt>
<trkpt lat="43.845047" lon="5.388097"><ele>533.3</ele><time>2011-02-06T11:35:10Z</time></trkpt>
<trkpt lat="43.844990" lon="5.388213"><ele>533.5</ele><time>2011-02-06T11:35:15Z</time></trkpt>
<trkpt lat="43.844933" lon="5.388340"><ele>534.1</ele><time>2011-02-06T11:35:20Z</time></trkpt>
<trkpt lat="43.844878" lon="5.388488"><ele>534.9</ele><time>2011-02-06T11:35:25Z</time></trkpt>
<trkpt lat="43.844830" lon="5.388638"><ele>536.1</ele><time>2011-02-06T11:35:30Z</time></trkpt>
<trkpt lat="43.844750" lon="5.388757"><ele>536.9</ele><time>2011-02-06T11:35:35Z</time></trkpt>
<trkpt lat="43.844700" lon="5.388857"><ele>537.1</ele><time>2011-02-06T11:35:40Z</time></trkpt>
<trkpt lat="43.844620" lon="5.388933"><ele>537.2</ele><time>2011-02-06T11:35:45Z</time></trkpt>
<trkpt lat="43.844543" lon="5.389048"><ele>537.5</ele><time>2011-02-06T11:35:50Z</time></trkpt>
<trkpt lat="43.844460" lon="5.389170"><ele>537.8</ele><time>2011-02-06T11:35:55Z</time></trkpt>
<trkpt lat="43.844375" lon="5.389238"><ele>538</ele><time>2011-02-06T11:36:00Z</time></trkpt>
<trkpt lat="43.844295" lon="5.389235"><ele>538</ele><time>2011-02-06T11:36:05Z</time></trkpt>
<trkpt lat="43.844257" lon="5.389207"><ele>538.3</ele><time>2011-02-06T11:36:10Z</time></trkpt>
<trkpt lat="43.844242" lon="5.389215"><ele>538.6</ele><time>2011-02-06T11:36:15Z</time></trkpt>
<trkpt lat="43.844200" lon="5.389348"><ele>538.5</ele><time>2011-02-06T11:36:20Z</time></trkpt>
<trkpt lat="43.844203" lon="5.389425"><ele>538.6</ele><time>2011-02-06T11:36:25Z</time></trkpt>
<trkpt lat="43.844235" lon="5.389607"><ele>538.5</ele><time>2011-02-06T11:36:30Z</time></trkpt>
<trkpt lat="43.844318" lon="5.389827"><ele>538.5</ele><time>2011-02-06T11:36:35Z</time></trkpt>
<trkpt lat="43.844375" lon="5.390082"><ele>538.9</ele><time>2011-02-06T11:36:40Z</time></trkpt>
<trkpt lat="43.844440" lon="5.390373"><ele>539.2</ele><time>2011-02-06T11:36:45Z</time></trkpt>
<trkpt lat="43.844508" lon="5.390688"><ele>539.6</ele><time>2011-02-06T11:36:50Z</time></trkpt>
<trkpt lat="43.844578" lon="5.391008"><ele>540.1</ele><time>2011-02-06T11:36:55Z</time></trkpt>
<trkpt lat="43.844643" lon="5.391333"><ele>540.6</ele><time>2011-02-06T11:37:00Z</time></trkpt>
<trkpt lat="43.844715" lon="5.391652"><ele>541</ele><time>2011-02-06T11:37:05Z</time></trkpt>
<trkpt lat="43.844780" lon="5.391978"><ele>541.5</ele><time>2011-02-06T11:37:10Z</time></trkpt>
<trkpt lat="43.844852" lon="5.392310"><ele>542</ele><time>2011-02-06T11:37:15Z</time></trkpt>
<trkpt lat="43.844922" lon="5.392635"><ele>542.7</ele><time>2011-02-06T11:37:20Z</time></trkpt>
<trkpt lat="43.844993" lon="5.392965"><ele>543.1</ele><time>2011-02-06T11:37:25Z</time></trkpt>
<trkpt lat="43.845067" lon="5.393302"><ele>543.6</ele><time>2011-02-06T11:37:30Z</time></trkpt>
<trkpt lat="43.845135" lon="5.393642"><ele>544.1</ele><time>2011-02-06T11:37:35Z</time></trkpt>
<trkpt lat="43.845212" lon="5.393982"><ele>544.6</ele><time>2011-02-06T11:37:40Z</time></trkpt>
<trkpt lat="43.845283" lon="5.394327"><ele>545</ele><time>2011-02-06T11:37:45Z</time></trkpt>
<trkpt lat="43.845360" lon="5.394677"><ele>545.4</ele><time>2011-02-06T11:37:50Z</time></trkpt>
<trkpt lat="43.845440" lon="5.395035"><ele>545.8</ele><time>2011-02-06T11:37:55Z</time></trkpt>
<trkpt lat="43.845520" lon="5.395398"><ele>546</ele><time>2011-02-06T11:38:00Z</time></trkpt>
<trkpt lat="43.845597" lon="5.395773"><ele>546.2</ele><time>2011-02-06T11:38:05Z</time></trkpt>
<trkpt lat="43.845657" lon="5.396152"><ele>546.5</ele><time>2011-02-06T11:38:10Z</time></trkpt>
<trkpt lat="43.845692" lon="5.396538"><ele>546.6</ele><time>2011-02-06T11:38:15Z</time></trkpt>
<trkpt lat="43.845695" lon="5.396943"><ele>546.7</ele><time>2011-02-06T11:38:20Z</time></trkpt>
<trkpt lat="43.845688" lon="5.397330"><ele>547</ele><time>2011-02-06T11:38:25Z</time></trkpt>
<trkpt lat="43.845680" lon="5.397715"><ele>547.3</ele><time>2011-02-06T11:38:30Z</time></trkpt>
<trkpt lat="43.845668" lon="5.398115"><ele>547.5</ele><time>2011-02-06T11:38:35Z</time></trkpt>
<trkpt lat="43.845662" lon="5.398507"><ele>548.4</ele><time>2011-02-06T11:38:40Z</time></trkpt>
<trkpt lat="43.845653" lon="5.398865"><ele>549.5</ele><time>2011-02-06T11:38:45Z</time></trkpt>
<trkpt lat="43.845650" lon="5.399192"><ele>550.3</ele><time>2011-02-06T11:38:50Z</time></trkpt>
<trkpt lat="43.845647" lon="5.399528"><ele>550.9</ele><time>2011-02-06T11:38:55Z</time></trkpt>
<trkpt lat="43.845647" lon="5.399878"><ele>551.1</ele><time>2011-02-06T11:39:00Z</time></trkpt>
<trkpt lat="43.845650" lon="5.400242"><ele>550.9</ele><time>2011-02-06T11:39:05Z</time></trkpt>
<trkpt lat="43.845653" lon="5.400605"><ele>551.3</ele><time>2011-02-06T11:39:10Z</time></trkpt>
<trkpt lat="43.845653" lon="5.400950"><ele>551.8</ele><time>2011-02-06T11:39:15Z</time></trkpt>
<trkpt lat="43.845657" lon="5.401275"><ele>552.8</ele><time>2011-02-06T11:39:20Z</time></trkpt>
<trkpt lat="43.845657" lon="5.401580"><ele>553.8</ele><time>2011-02-06T11:39:25Z</time></trkpt>
<trkpt lat="43.845662" lon="5.401887"><ele>554.9</ele><time>2011-02-06T11:39:30Z</time></trkpt>
<trkpt lat="43.845665" lon="5.402188"><ele>555.9</ele><time>2011-02-06T11:39:35Z</time></trkpt>
<trkpt lat="43.845665" lon="5.402488"><ele>556.6</ele><time>2011-02-06T11:39:40Z</time></trkpt>
<trkpt lat="43.845665" lon="5.402765"><ele>557</ele><time>2011-02-06T11:39:45Z</time></trkpt>
<trkpt lat="43.845665" lon="5.403053"><ele>557.3</ele><time>2011-02-06T11:39:50Z</time></trkpt>
<trkpt lat="43.845673" lon="5.403343"><ele>557.6</ele><time>2011-02-06T11:39:55Z</time></trkpt>
<trkpt lat="43.845688" lon="5.403643"><ele>558.1</ele><time>2011-02-06T11:40:00Z</time></trkpt>
<trkpt lat="43.845700" lon="5.403940"><ele>558.6</ele><time>2011-02-06T11:40:05Z</time></trkpt>
<trkpt lat="43.845718" lon="5.404245"><ele>559.1</ele><time>2011-02-06T11:40:10Z</time></trkpt>
<trkpt lat="43.845733" lon="5.404567"><ele>559.3</ele><time>2011-02-06T11:40:15Z</time></trkpt>
<trkpt lat="43.845753" lon="5.404895"><ele>559.5</ele><time>2011-02-06T11:40:20Z</time></trkpt>
<trkpt lat="43.845768" lon="5.405223"><ele>559.8</ele><time>2011-02-06T11:40:25Z</time></trkpt>
<trkpt lat="43.845787" lon="5.405568"><ele>560.1</ele><time>2011-02-06T11:40:30Z</time></trkpt>
<trkpt lat="43.845802" lon="5.405928"><ele>560.2</ele><time>2011-02-06T11:40:35Z</time></trkpt>
<trkpt lat="43.845818" lon="5.406288"><ele>560.6</ele><time>2011-02-06T11:40:40Z</time></trkpt>
<trkpt lat="43.845833" lon="5.406638"><ele>561.1</ele><time>2011-02-06T11:40:45Z</time></trkpt>
<trkpt lat="43.845852" lon="5.406983"><ele>561.8</ele><time>2011-02-06T11:40:50Z</time></trkpt>
<trkpt lat="43.845867" lon="5.407330"><ele>562.4</ele><time>2011-02-06T11:40:55Z</time></trkpt>
<trkpt lat="43.845887" lon="5.407678"><ele>563</ele><time>2011-02-06T11:41:00Z</time></trkpt>
<trkpt lat="43.845905" lon="5.408025"><ele>563.5</ele><time>2011-02-06T11:41:05Z</time></trkpt>
<trkpt lat="43.845920" lon="5.408360"><ele>563.9</ele><time>2011-02-06T11:41:10Z</time></trkpt>
<trkpt lat="43.845932" lon="5.408663"><ele>564.2</ele><time>2011-02-06T11:41:15Z</time></trkpt>
<trkpt lat="43.845947" lon="5.408958"><ele>564.6</ele><time>2011-02-06T11:41:20Z</time></trkpt>
<trkpt lat="43.845955" lon="5.409262"><ele>564.9</ele><time>2011-02-06T11:41:25Z</time></trkpt>
<trkpt lat="43.845973" lon="5.409580"><ele>565.2</ele><time>2011-02-06T11:41:30Z</time></trkpt>
<trkpt lat="43.845985" lon="5.409910"><ele>565.3</ele><time>2011-02-06T11:41:35Z</time></trkpt>
<trkpt lat="43.846005" lon="5.410252"><ele>565.4</ele><time>2011-02-06T11:41:40Z</time></trkpt>
<trkpt lat="43.846017" lon="5.410593"><ele>565.8</ele><time>2011-02-06T11:41:45Z</time></trkpt>
<trkpt lat="43.846035" lon="5.410923"><ele>566.2</ele><time>2011-02-06T11:41:50Z</time></trkpt>
<trkpt lat="43.846043" lon="5.411253"><ele>567</ele><time>2011-02-06T11:41:55Z</time></trkpt>
<trkpt lat="43.846038" lon="5.411590"><ele>567.3</ele><time>2011-02-06T11:42:00Z</time></trkpt>
<trkpt lat="43.846023" lon="5.411918"><ele>567.6</ele><time>2011-02-06T11:42:05Z</time></trkpt>
<trkpt lat="43.846008" lon="5.412252"><ele>567.9</ele><time>2011-02-06T11:42:10Z</time></trkpt>
<trkpt lat="43.845990" lon="5.412583"><ele>568.2</ele><time>2011-02-06T11:42:15Z</time></trkpt>
<trkpt lat="43.845978" lon="5.412885"><ele>568.4</ele><time>2011-02-06T11:42:20Z</time></trkpt>
<trkpt lat="43.845943" lon="5.413133"><ele>568.7</ele><time>2011-02-06T11:42:25Z</time></trkpt>
<trkpt lat="43.845935" lon="5.413180"><ele>568.7</ele><time>2011-02-06T11:42:30Z</time></trkpt>
<trkpt lat="43.845917" lon="5.413248"><ele>569.2</ele><time>2011-02-06T11:42:35Z</time></trkpt>
<trkpt lat="43.845920" lon="5.413432"><ele>569.6</ele><time>2011-02-06T11:42:40Z</time></trkpt>
<trkpt lat="43.845947" lon="5.413675"><ele>569.9</ele><time>2011-02-06T11:42:45Z</time></trkpt>
<trkpt lat="43.845935" lon="5.413972"><ele>570.3</ele><time>2011-02-06T11:42:50Z</time></trkpt>
<trkpt lat="43.845920" lon="5.414275"><ele>570.7</ele><time>2011-02-06T11:42:55Z</time></trkpt>
<trkpt lat="43.845908" lon="5.414583"><ele>571.2</ele><time>2011-02-06T11:43:00Z</time></trkpt>
<trkpt lat="43.845902" lon="5.414897"><ele>571.5</ele><time>2011-02-06T11:43:05Z</time></trkpt>
<trkpt lat="43.845887" lon="5.415222"><ele>571.9</ele><time>2011-02-06T11:43:10Z</time></trkpt>
<trkpt lat="43.845878" lon="5.415555"><ele>572.2</ele><time>2011-02-06T11:43:15Z</time></trkpt>
<trkpt lat="43.845863" lon="5.415880"><ele>572.8</ele><time>2011-02-06T11:43:20Z</time></trkpt>
<trkpt lat="43.845855" lon="5.416202"><ele>573.2</ele><time>2011-02-06T11:43:25Z</time></trkpt>
<trkpt lat="43.845845" lon="5.416518"><ele>573.8</ele><time>2011-02-06T11:43:30Z</time></trkpt>
<trkpt lat="43.845837" lon="5.416828"><ele>574.5</ele><time>2011-02-06T11:43:35Z</time></trkpt>
<trkpt lat="43.845825" lon="5.417150"><ele>575</ele><time>2011-02-06T11:43:40Z</time></trkpt>
<trkpt lat="43.845813" lon="5.417468"><ele>575.1</ele><time>2011-02-06T11:43:45Z</time></trkpt>
<trkpt lat="43.845802" lon="5.417778"><ele>575.2</ele><time>2011-02-06T11:43:50Z</time></trkpt>
<trkpt lat="43.845792" lon="5.418105"><ele>575.5</ele><time>2011-02-06T11:43:55Z</time></trkpt>
<trkpt lat="43.845783" lon="5.418443"><ele>575.7</ele><time>2011-02-06T11:44:00Z</time></trkpt>
<trkpt lat="43.845763" lon="5.418787"><ele>575.9</ele><time>2011-02-06T11:44:05Z</time></trkpt>
<trkpt lat="43.845753" lon="5.419138"><ele>576.4</ele><time>2011-02-06T11:44:10Z</time></trkpt>
<trkpt lat="43.845760" lon="5.419497"><ele>576.6</ele><time>2011-02-06T11:44:15Z</time></trkpt>
<trkpt lat="43.845745" lon="5.419845"><ele>576.9</ele><time>2011-02-06T11:44:20Z</time></trkpt>
<trkpt lat="43.845727" lon="5.420203"><ele>577</ele><time>2011-02-06T11:44:25Z</time></trkpt>
<trkpt lat="43.845715" lon="5.420527"><ele>577.4</ele><time>2011-02-06T11:44:30Z</time></trkpt>
<trkpt lat="43.845707" lon="5.420835"><ele>577.7</ele><time>2011-02-06T11:44:35Z</time></trkpt>
<trkpt lat="43.845695" lon="5.421137"><ele>577.8</ele><time>2011-02-06T11:44:40Z</time></trkpt>
<trkpt lat="43.845688" lon="5.421452"><ele>577.9</ele><time>2011-02-06T11:44:45Z</time></trkpt>
<trkpt lat="43.845680" lon="5.421770"><ele>578.1</ele><time>2011-02-06T11:44:50Z</time></trkpt>
<trkpt lat="43.845668" lon="5.422095"><ele>578.4</ele><time>2011-02-06T11:44:55Z</time></trkpt>
<trkpt lat="43.845657" lon="5.422428"><ele>578.8</ele><time>2011-02-06T11:45:00Z</time></trkpt>
<trkpt lat="43.845647" lon="5.422757"><ele>579.2</ele><time>2011-02-06T11:45:05Z</time></trkpt>
<trkpt lat="43.845630" lon="5.423093"><ele>579.6</ele><time>2011-02-06T11:45:10Z</time></trkpt>
<trkpt lat="43.845615" lon="5.423438"><ele>580.1</ele><time>2011-02-06T11:45:15Z</time></trkpt>
<trkpt lat="43.845597" lon="5.423795"><ele>580.6</ele><time>2011-02-06T11:45:20Z</time></trkpt>
<trkpt lat="43.845585" lon="5.424148"><ele>581</ele><time>2011-02-06T11:45:25Z</time></trkpt>
<trkpt lat="43.845573" lon="5.424485"><ele>581.5</ele><time>2011-02-06T11:45:30Z</time></trkpt>
<trkpt lat="43.845558" lon="5.424807"><ele>581.8</ele><time>2011-02-06T11:45:35Z</time></trkpt>
<trkpt lat="43.845550" lon="5.425140"><ele>582.4</ele><time>2011-02-06T11:45:40Z</time></trkpt>
<trkpt lat="43.845535" lon="5.425473"><ele>583</ele><time>2011-02-06T11:45:45Z</time></trkpt>
<trkpt lat="43.845517" lon="5.425795"><ele>583.7</ele><time>2011-02-06T11:45:50Z</time></trkpt>
<trkpt lat="43.845493" lon="5.426075"><ele>584.3</ele><time>2011-02-06T11:45:55Z</time></trkpt>
<trkpt lat="43.845485" lon="5.426362"><ele>584.9</ele><time>2011-02-06T11:46:00Z</time></trkpt>
<trkpt lat="43.845475" lon="5.426655"><ele>585.5</ele><time>2011-02-06T11:46:05Z</time></trkpt>
<trkpt lat="43.845463" lon="5.426957"><ele>586.1</ele><time>2011-02-06T11:46:10Z</time></trkpt>
<trkpt lat="43.845455" lon="5.427268"><ele>586.5</ele><time>2011-02-06T11:46:15Z</time></trkpt>
<trkpt lat="43.845432" lon="5.427590"><ele>586.9</ele><time>2011-02-06T11:46:20Z</time></trkpt>
<trkpt lat="43.845410" lon="5.427912"><ele>587</ele><time>2011-02-06T11:46:25Z</time></trkpt>
<trkpt lat="43.845383" lon="5.428217"><ele>587.3</ele><time>2011-02-06T11:46:30Z</time></trkpt>
<trkpt lat="43.845357" lon="5.428533"><ele>587.6</ele><time>2011-02-06T11:46:35Z</time></trkpt>
<trkpt lat="43.845330" lon="5.428855"><ele>587.9</ele><time>2011-02-06T11:46:40Z</time></trkpt>
<trkpt lat="43.845303" lon="5.429180"><ele>588.3</ele><time>2011-02-06T11:46:45Z</time></trkpt>
<trkpt lat="43.845280" lon="5.429508"><ele>588.6</ele><time>2011-02-06T11:46:50Z</time></trkpt>
<trkpt lat="43.845253" lon="5.429848"><ele>589</ele><time>2011-02-06T11:46:55Z</time></trkpt>
<trkpt lat="43.845227" lon="5.430185"><ele>589.3</ele><time>2011-02-06T11:47:00Z</time></trkpt>
<trkpt lat="43.845200" lon="5.430518"><ele>589.3</ele><time>2011-02-06T11:47:05Z</time></trkpt>
<trkpt lat="43.845180" lon="5.430850"><ele>588.9</ele><time>2011-02-06T11:47:10Z</time></trkpt>
<trkpt lat="43.845158" lon="5.431175"><ele>588.5</ele><time>2011-02-06T11:47:15Z</time></trkpt>
<trkpt lat="43.845135" lon="5.431502"><ele>588.1</ele><time>2011-02-06T11:47:20Z</time></trkpt>
<trkpt lat="43.845165" lon="5.431818"><ele>588.1</ele><time>2011-02-06T11:47:25Z</time></trkpt>
<trkpt lat="43.845313" lon="5.432082"><ele>588.6</ele><time>2011-02-06T11:47:30Z</time></trkpt>
<trkpt lat="43.845458" lon="5.432337"><ele>589</ele><time>2011-02-06T11:47:35Z</time></trkpt>
<trkpt lat="43.845600" lon="5.432593"><ele>589.4</ele><time>2011-02-06T11:47:40Z</time></trkpt>
<trkpt lat="43.845753" lon="5.432857"><ele>589.8</ele><time>2011-02-06T11:47:45Z</time></trkpt>
<trkpt lat="43.845905" lon="5.433130"><ele>589.9</ele><time>2011-02-06T11:47:50Z</time></trkpt>
<trkpt lat="43.846065" lon="5.433400"><ele>590.4</ele><time>2011-02-06T11:47:55Z</time></trkpt>
<trkpt lat="43.846222" lon="5.433685"><ele>590.3</ele><time>2011-02-06T11:48:00Z</time></trkpt>
<trkpt lat="43.846387" lon="5.433992"><ele>589.6</ele><time>2011-02-06T11:48:05Z</time></trkpt>
<trkpt lat="43.846553" lon="5.434278"><ele>589.4</ele><time>2011-02-06T11:48:10Z</time></trkpt>
<trkpt lat="43.846763" lon="5.434492"><ele>589.6</ele><time>2011-02-06T11:48:15Z</time></trkpt>
<trkpt lat="43.847000" lon="5.434595"><ele>590.4</ele><time>2011-02-06T11:48:20Z</time></trkpt>
<trkpt lat="43.847228" lon="5.434673"><ele>591.5</ele><time>2011-02-06T11:48:25Z</time></trkpt>
<trkpt lat="43.847470" lon="5.434725"><ele>591.6</ele><time>2011-02-06T11:48:30Z</time></trkpt>
<trkpt lat="43.847748" lon="5.434790"><ele>590.5</ele><time>2011-02-06T11:48:35Z</time></trkpt>
<trkpt lat="43.848095" lon="5.434873"><ele>588.7</ele><time>2011-02-06T11:48:40Z</time></trkpt>
<trkpt lat="43.848462" lon="5.434953"><ele>587.7</ele><time>2011-02-06T11:48:45Z</time></trkpt>
<trkpt lat="43.848785" lon="5.435022"><ele>587.4</ele><time>2011-02-06T11:48:50Z</time></trkpt>
<trkpt lat="43.849072" lon="5.435082"><ele>587.7</ele><time>2011-02-06T11:48:55Z</time></trkpt>
<trkpt lat="43.849358" lon="5.435150"><ele>587.6</ele><time>2011-02-06T11:49:00Z</time></trkpt>
<trkpt lat="43.849658" lon="5.435222"><ele>587.6</ele><time>2011-02-06T11:49:05Z</time></trkpt>
<trkpt lat="43.849957" lon="5.435290"><ele>587.7</ele><time>2011-02-06T11:49:10Z</time></trkpt>
<trkpt lat="43.850258" lon="5.435353"><ele>587.5</ele><time>2011-02-06T11:49:15Z</time></trkpt>
<trkpt lat="43.850590" lon="5.435428"><ele>586.2</ele><time>2011-02-06T11:49:20Z</time></trkpt>
<trkpt lat="43.850937" lon="5.435500"><ele>585.2</ele><time>2011-02-06T11:49:25Z</time></trkpt>
<trkpt lat="43.851277" lon="5.435580"><ele>583.8</ele><time>2011-02-06T11:49:30Z</time></trkpt>
<trkpt lat="43.851525" lon="5.435677"><ele>582.9</ele><time>2011-02-06T11:49:35Z</time></trkpt>
<trkpt lat="43.851715" lon="5.435590"><ele>581.8</ele><time>2011-02-06T11:49:40Z</time></trkpt>
<trkpt lat="43.851943" lon="5.435390"><ele>581.1</ele><time>2011-02-06T11:49:45Z</time></trkpt>
<trkpt lat="43.852227" lon="5.435195"><ele>580.1</ele><time>2011-02-06T11:49:50Z</time></trkpt>
<trkpt lat="43.852543" lon="5.435015"><ele>579</ele><time>2011-02-06T11:49:55Z</time></trkpt>
<trkpt lat="43.852863" lon="5.434847"><ele>577.8</ele><time>2011-02-06T11:50:00Z</time></trkpt>
<trkpt lat="43.853192" lon="5.434697"><ele>576.3</ele><time>2011-02-06T11:50:05Z</time></trkpt>
<trkpt lat="43.853538" lon="5.434572"><ele>574.4</ele><time>2011-02-06T11:50:10Z</time></trkpt>
<trkpt lat="43.853905" lon="5.434462"><ele>572.6</ele><time>2011-02-06T11:50:15Z</time></trkpt>
<trkpt lat="43.854302" lon="5.434430"><ele>570.3</ele><time>2011-02-06T11:50:20Z</time></trkpt>
<trkpt lat="43.854690" lon="5.434375"><ele>567.9</ele><time>2011-02-06T11:50:25Z</time></trkpt>
<trkpt lat="43.855003" lon="5.434072"><ele>565.8</ele><time>2011-02-06T11:50:30Z</time></trkpt>
<trkpt lat="43.855328" lon="5.433818"><ele>562.8</ele><time>2011-02-06T11:50:35Z</time></trkpt>
<trkpt lat="43.855702" lon="5.434055"><ele>559.9</ele><time>2011-02-06T11:50:40Z</time></trkpt>
<trkpt lat="43.856083" lon="5.433977"><ele>556.4</ele><time>2011-02-06T11:50:45Z</time></trkpt>
<trkpt lat="43.856362" lon="5.433652"><ele>553.3</ele><time>2011-02-06T11:50:50Z</time></trkpt>
<trkpt lat="43.856637" lon="5.433998"><ele>550.4</ele><time>2011-02-06T11:50:55Z</time></trkpt>
<trkpt lat="43.856868" lon="5.434408"><ele>547.9</ele><time>2011-02-06T11:51:00Z</time></trkpt>
<trkpt lat="43.857197" lon="5.434547"><ele>546</ele><time>2011-02-06T11:51:05Z</time></trkpt>
<trkpt lat="43.857368" lon="5.434478"><ele>545.9</ele><time>2011-02-06T11:51:10Z</time></trkpt>
<trkpt lat="43.857502" lon="5.434440"><ele>545.7</ele><time>2011-02-06T11:51:15Z</time></trkpt>
<trkpt lat="43.857662" lon="5.434380"><ele>545.3</ele><time>2011-02-06T11:51:20Z</time></trkpt>
<trkpt lat="43.857833" lon="5.434312"><ele>545</ele><time>2011-02-06T11:51:25Z</time></trkpt>
<trkpt lat="43.858002" lon="5.434210"><ele>545</ele><time>2011-02-06T11:51:30Z</time></trkpt>
<trkpt lat="43.858162" lon="5.434087"><ele>544.5</ele><time>2011-02-06T11:51:35Z</time></trkpt>
<trkpt lat="43.858315" lon="5.433960"><ele>543.9</ele><time>2011-02-06T11:51:40Z</time></trkpt>
<trkpt lat="43.858472" lon="5.433858"><ele>543.8</ele><time>2011-02-06T11:51:45Z</time></trkpt>
<trkpt lat="43.858605" lon="5.433777"><ele>543.7</ele><time>2011-02-06T11:51:50Z</time></trkpt>
<trkpt lat="43.858772" lon="5.433728"><ele>542.3</ele><time>2011-02-06T11:51:55Z</time></trkpt>
<trkpt lat="43.858928" lon="5.433630"><ele>540.1</ele><time>2011-02-06T11:52:00Z</time></trkpt>
<trkpt lat="43.859077" lon="5.433525"><ele>538.1</ele><time>2011-02-06T11:52:05Z</time></trkpt>
<trkpt lat="43.859203" lon="5.433392"><ele>536.3</ele><time>2011-02-06T11:52:10Z</time></trkpt>
<trkpt lat="43.859325" lon="5.433265"><ele>534.4</ele><time>2011-02-06T11:52:15Z</time></trkpt>
<trkpt lat="43.859440" lon="5.433132"><ele>532.1</ele><time>2011-02-06T11:52:20Z</time></trkpt>
<trkpt lat="43.859573" lon="5.432975"><ele>529.8</ele><time>2011-02-06T11:52:25Z</time></trkpt>
<trkpt lat="43.859683" lon="5.432843"><ele>528.3</ele><time>2011-02-06T11:52:30Z</time></trkpt>
<trkpt lat="43.859783" lon="5.432697"><ele>527.4</ele><time>2011-02-06T11:52:35Z</time></trkpt>
<trkpt lat="43.859863" lon="5.432612"><ele>527.4</ele><time>2011-02-06T11:52:40Z</time></trkpt>
<trkpt lat="43.859958" lon="5.432557"><ele>526.5</ele><time>2011-02-06T11:52:45Z</time></trkpt>
<trkpt lat="43.860032" lon="5.432327"><ele>524.8</ele><time>2011-02-06T11:52:50Z</time></trkpt>
<trkpt lat="43.860115" lon="5.431935"><ele>521.6</ele><time>2011-02-06T11:52:55Z</time></trkpt>
<trkpt lat="43.860180" lon="5.431612"><ele>518.8</ele><time>2011-02-06T11:53:00Z</time></trkpt>
<trkpt lat="43.860257" lon="5.431400"><ele>516</ele><time>2011-02-06T11:53:05Z</time></trkpt>
<trkpt lat="43.860302" lon="5.431150"><ele>513.1</ele><time>2011-02-06T11:53:10Z</time></trkpt>
<trkpt lat="43.860360" lon="5.430892"><ele>509.6</ele><time>2011-02-06T11:53:15Z</time></trkpt>
<trkpt lat="43.860390" lon="5.430705"><ele>506.2</ele><time>2011-02-06T11:53:20Z</time></trkpt>
<trkpt lat="43.860417" lon="5.430563"><ele>504.1</ele><time>2011-02-06T11:53:25Z</time></trkpt>
<trkpt lat="43.860462" lon="5.430437"><ele>501.8</ele><time>2011-02-06T11:53:30Z</time></trkpt>
<trkpt lat="43.860592" lon="5.430363"><ele>500.6</ele><time>2011-02-06T11:53:35Z</time></trkpt>
<trkpt lat="43.860793" lon="5.430328"><ele>498.7</ele><time>2011-02-06T11:53:40Z</time></trkpt>
<trkpt lat="43.860920" lon="5.430290"><ele>497.5</ele><time>2011-02-06T11:53:45Z</time></trkpt>
<trkpt lat="43.860988" lon="5.430270"><ele>496.9</ele><time>2011-02-06T11:53:50Z</time></trkpt>
<trkpt lat="43.860985" lon="5.430262"><ele>496.3</ele><time>2011-02-06T11:53:55Z</time></trkpt>
<trkpt lat="43.860982" lon="5.430267"><ele>495.9</ele><time>2011-02-06T11:54:00Z</time></trkpt>
<trkpt lat="43.860965" lon="5.430275"><ele>497</ele><time>2011-02-06T11:54:05Z</time></trkpt>
<trkpt lat="43.860977" lon="5.430248"><ele>499.5</ele><time>2011-02-06T11:54:10Z</time></trkpt>
<trkpt lat="43.860982" lon="5.430243"><ele>500.2</ele><time>2011-02-06T11:54:15Z</time></trkpt>
<trkpt lat="43.860977" lon="5.430243"><ele>500</ele><time>2011-02-06T11:54:20Z</time></trkpt>
<trkpt lat="43.860973" lon="5.430248"><ele>501.4</ele><time>2011-02-06T11:54:25Z</time></trkpt>
<trkpt lat="43.860973" lon="5.430233"><ele>503.1</ele><time>2011-02-06T11:54:30Z</time></trkpt>
<trkpt lat="43.860970" lon="5.430237"><ele>504.3</ele><time>2011-02-06T11:54:35Z</time></trkpt>
<trkpt lat="43.860965" lon="5.430248"><ele>505.2</ele><time>2011-02-06T11:54:40Z</time></trkpt>
<trkpt lat="43.860962" lon="5.430255"><ele>504.4</ele><time>2011-02-06T11:54:45Z</time></trkpt>
<trkpt lat="43.860962" lon="5.430257"><ele>503.9</ele><time>2011-02-06T11:54:50Z</time></trkpt>
<trkpt lat="43.860958" lon="5.430263"><ele>503.2</ele><time>2011-02-06T11:54:55Z</time></trkpt>
<trkpt lat="43.860958" lon="5.430267"><ele>502.6</ele><time>2011-02-06T11:55:00Z</time></trkpt>
<trkpt lat="43.860955" lon="5.430275"><ele>501.5</ele><time>2011-02-06T11:55:05Z</time></trkpt>
<trkpt lat="43.860950" lon="5.430278"><ele>501</ele><time>2011-02-06T11:55:10Z</time></trkpt>
<trkpt lat="43.860950" lon="5.430280"><ele>500.6</ele><time>2011-02-06T11:55:15Z</time></trkpt>
<trkpt lat="43.860958" lon="5.430257"><ele>502.9</ele><time>2011-02-06T11:55:20Z</time></trkpt>
<trkpt lat="43.860965" lon="5.430243"><ele>503.6</ele><time>2011-02-06T11:55:25Z</time></trkpt>
<trkpt lat="43.860962" lon="5.430245"><ele>503.8</ele><time>2011-02-06T11:55:30Z</time></trkpt>
<trkpt lat="43.860962" lon="5.430247"><ele>503.4</ele><time>2011-02-06T11:55:35Z</time></trkpt>
<trkpt lat="43.860965" lon="5.430245"><ele>503.3</ele><time>2011-02-06T11:55:40Z</time></trkpt>
<trkpt lat="43.860973" lon="5.430232"><ele>504.2</ele><time>2011-02-06T11:55:45Z</time></trkpt>
<trkpt lat="43.860970" lon="5.430237"><ele>504.1</ele><time>2011-02-06T11:55:50Z</time></trkpt>
<trkpt lat="43.860965" lon="5.430245"><ele>504.6</ele><time>2011-02-06T11:55:55Z</time></trkpt>
<trkpt lat="43.860962" lon="5.430253"><ele>505.2</ele><time>2011-02-06T11:56:00Z</time></trkpt>
<trkpt lat="43.860962" lon="5.430257"><ele>505.9</ele><time>2011-02-06T11:56:05Z</time></trkpt>
<trkpt lat="43.860955" lon="5.430260"><ele>507.5</ele><time>2011-02-06T11:56:10Z</time></trkpt>
<trkpt lat="43.860955" lon="5.430248"><ele>507.4</ele><time>2011-02-06T11:56:15Z</time></trkpt>
<trkpt lat="43.860958" lon="5.430257"><ele>507.9</ele><time>2011-02-06T11:56:20Z</time></trkpt>
<trkpt lat="43.860962" lon="5.430273"><ele>508</ele><time>2011-02-06T11:56:25Z</time></trkpt>
<trkpt lat="43.860962" lon="5.430287"><ele>508.4</ele><time>2011-02-06T11:56:30Z</time></trkpt>
<trkpt lat="43.860962" lon="5.430285"><ele>508.3</ele><time>2011-02-06T11:56:35Z</time></trkpt>
<trkpt lat="43.860962" lon="5.430293"><ele>507.4</ele><time>2011-02-06T11:56:40Z</time></trkpt>
<trkpt lat="43.860965" lon="5.430283"><ele>507.2</ele><time>2011-02-06T11:56:45Z</time></trkpt>
<trkpt lat="43.860970" lon="5.430277"><ele>506.2</ele><time>2011-02-06T11:56:50Z</time></trkpt>
<trkpt lat="43.860970" lon="5.430282"><ele>505.2</ele><time>2011-02-06T11:56:55Z</time></trkpt>
<trkpt lat="43.860958" lon="5.430302"><ele>503</ele><time>2011-02-06T11:57:00Z</time></trkpt>
<trkpt lat="43.860962" lon="5.430305"><ele>502.4</ele><time>2011-02-06T11:57:05Z</time></trkpt>
<trkpt lat="43.860985" lon="5.430287"><ele>502.3</ele><time>2011-02-06T11:57:10Z</time></trkpt>
<trkpt lat="43.861137" lon="5.430233"><ele>499.4</ele><time>2011-02-06T11:57:15Z</time></trkpt>
<trkpt lat="43.861272" lon="5.430177"><ele>497.2</ele><time>2011-02-06T11:57:20Z</time></trkpt>
<trkpt lat="43.861275" lon="5.430175"><ele>496.4</ele><time>2011-02-06T11:57:25Z</time></trkpt>
<trkpt lat="43.861278" lon="5.430172"><ele>495.1</ele><time>2011-02-06T11:57:30Z</time></trkpt>
<trkpt lat="43.861278" lon="5.430167"><ele>494.8</ele><time>2011-02-06T11:57:35Z</time></trkpt>
<trkpt lat="43.861290" lon="5.430167"><ele>494.6</ele><time>2011-02-06T11:57:40Z</time></trkpt>
<trkpt lat="43.861397" lon="5.430137"><ele>493.2</ele><time>2011-02-06T11:57:45Z</time></trkpt>
<trkpt lat="43.861565" lon="5.430060"><ele>492.1</ele><time>2011-02-06T11:57:50Z</time></trkpt>
<trkpt lat="43.861722" lon="5.429992"><ele>491.3</ele><time>2011-02-06T11:57:55Z</time></trkpt>
<trkpt lat="43.861698" lon="5.429725"><ele>489.7</ele><time>2011-02-06T11:58:00Z</time></trkpt>
<trkpt lat="43.861473" lon="5.429632"><ele>487.8</ele><time>2011-02-06T11:58:05Z</time></trkpt>
<trkpt lat="43.861233" lon="5.429428"><ele>485.4</ele><time>2011-02-06T11:58:10Z</time></trkpt>
<trkpt lat="43.861103" lon="5.429003"><ele>482.9</ele><time>2011-02-06T11:58:15Z</time></trkpt>
<trkpt lat="43.861000" lon="5.428527"><ele>480.2</ele><time>2011-02-06T11:58:20Z</time></trkpt>
<trkpt lat="43.860852" lon="5.428067"><ele>477.7</ele><time>2011-02-06T11:58:25Z</time></trkpt>
<trkpt lat="43.860645" lon="5.427658"><ele>474.7</ele><time>2011-02-06T11:58:30Z</time></trkpt>
<trkpt lat="43.860348" lon="5.427337"><ele>471.7</ele><time>2011-02-06T11:58:35Z</time></trkpt>
<trkpt lat="43.860165" lon="5.427002"><ele>469.2</ele><time>2011-02-06T11:58:40Z</time></trkpt>
<trkpt lat="43.860397" lon="5.426768"><ele>466.3</ele><time>2011-02-06T11:58:45Z</time></trkpt>
<trkpt lat="43.860737" lon="5.426932"><ele>464.2</ele><time>2011-02-06T11:58:50Z</time></trkpt>
<trkpt lat="43.861047" lon="5.427097"><ele>462.1</ele><time>2011-02-06T11:58:55Z</time></trkpt>
<trkpt lat="43.861373" lon="5.427178"><ele>459.7</ele><time>2011-02-06T11:59:00Z</time></trkpt>
<trkpt lat="43.861763" lon="5.427267"><ele>456.6</ele><time>2011-02-06T11:59:05Z</time></trkpt>
<trkpt lat="43.862190" lon="5.427225"><ele>452.9</ele><time>2011-02-06T11:59:10Z</time></trkpt>
<trkpt lat="43.862563" lon="5.427032"><ele>450.3</ele><time>2011-02-06T11:59:15Z</time></trkpt>
<trkpt lat="43.862767" lon="5.426733"><ele>448.5</ele><time>2011-02-06T11:59:20Z</time></trkpt>
<trkpt lat="43.862522" lon="5.426355"><ele>445.1</ele><time>2011-02-06T11:59:25Z</time></trkpt>
<trkpt lat="43.862178" lon="5.426010"><ele>440.9</ele><time>2011-02-06T11:59:30Z</time></trkpt>
<trkpt lat="43.861840" lon="5.425660"><ele>436.6</ele><time>2011-02-06T11:59:35Z</time></trkpt>
<trkpt lat="43.861488" lon="5.425293"><ele>432.8</ele><time>2011-02-06T11:59:40Z</time></trkpt>
<trkpt lat="43.861233" lon="5.424817"><ele>428.9</ele><time>2011-02-06T11:59:45Z</time></trkpt>
<trkpt lat="43.861137" lon="5.424193"><ele>425</ele><time>2011-02-06T11:59:50Z</time></trkpt>
<trkpt lat="43.861062" lon="5.423557"><ele>421.3</ele><time>2011-02-06T11:59:55Z</time></trkpt>
<trkpt lat="43.860977" lon="5.423052"><ele>418.2</ele><time>2011-02-06T12:00:00Z</time></trkpt>
<trkpt lat="43.860985" lon="5.422800"><ele>415.5</ele><time>2011-02-06T12:00:05Z</time></trkpt>
<trkpt lat="43.861282" lon="5.422935"><ele>410.5</ele><time>2011-02-06T12:00:10Z</time></trkpt>
<trkpt lat="43.861637" lon="5.423168"><ele>405.8</ele><time>2011-02-06T12:00:15Z</time></trkpt>
<trkpt lat="43.861953" lon="5.423200"><ele>402.5</ele><time>2011-02-06T12:00:20Z</time></trkpt>
<trkpt lat="43.862247" lon="5.423485"><ele>399.2</ele><time>2011-02-06T12:00:25Z</time></trkpt>
<trkpt lat="43.862533" lon="5.423823"><ele>397.4</ele><time>2011-02-06T12:00:30Z</time></trkpt>
<trkpt lat="43.862832" lon="5.423703"><ele>397</ele><time>2011-02-06T12:00:35Z</time></trkpt>
<trkpt lat="43.863083" lon="5.423467"><ele>397.5</ele><time>2011-02-06T12:00:40Z</time></trkpt>
<trkpt lat="43.863385" lon="5.423333"><ele>396.4</ele><time>2011-02-06T12:00:45Z</time></trkpt>
<trkpt lat="43.863738" lon="5.423237"><ele>395.7</ele><time>2011-02-06T12:00:50Z</time></trkpt>
<trkpt lat="43.864078" lon="5.423107"><ele>394.5</ele><time>2011-02-06T12:00:55Z</time></trkpt>
<trkpt lat="43.864418" lon="5.423178"><ele>393.8</ele><time>2011-02-06T12:01:00Z</time></trkpt>
<trkpt lat="43.864758" lon="5.423280"><ele>393.5</ele><time>2011-02-06T12:01:05Z</time></trkpt>
<trkpt lat="43.865090" lon="5.423302"><ele>394.1</ele><time>2011-02-06T12:01:10Z</time></trkpt>
<trkpt lat="43.865407" lon="5.423325"><ele>394.9</ele><time>2011-02-06T12:01:15Z</time></trkpt>
<trkpt lat="43.865685" lon="5.423333"><ele>395.3</ele><time>2011-02-06T12:01:20Z</time></trkpt>
<trkpt lat="43.865987" lon="5.423370"><ele>394.3</ele><time>2011-02-06T12:01:25Z</time></trkpt>
<trkpt lat="43.866272" lon="5.423260"><ele>393</ele><time>2011-02-06T12:01:30Z</time></trkpt>
<trkpt lat="43.866340" lon="5.422745"><ele>390.2</ele><time>2011-02-06T12:01:35Z</time></trkpt>
<trkpt lat="43.866502" lon="5.422342"><ele>387.2</ele><time>2011-02-06T12:01:40Z</time></trkpt>
<trkpt lat="43.866833" lon="5.422102"><ele>384.4</ele><time>2011-02-06T12:01:45Z</time></trkpt>
<trkpt lat="43.867023" lon="5.421927"><ele>382.4</ele><time>2011-02-06T12:01:50Z</time></trkpt>
<trkpt lat="43.866863" lon="5.421657"><ele>380.3</ele><time>2011-02-06T12:01:55Z</time></trkpt>
<trkpt lat="43.867097" lon="5.421603"><ele>378.5</ele><time>2011-02-06T12:02:00Z</time></trkpt>
<trkpt lat="43.867413" lon="5.421712"><ele>377.9</ele><time>2011-02-06T12:02:05Z</time></trkpt>
<trkpt lat="43.867725" lon="5.421850"><ele>376.2</ele><time>2011-02-06T12:02:10Z</time></trkpt>
<trkpt lat="43.868018" lon="5.421723"><ele>373.4</ele><time>2011-02-06T12:02:15Z</time></trkpt>
<trkpt lat="43.868308" lon="5.421685"><ele>371</ele><time>2011-02-06T12:02:20Z</time></trkpt>
<trkpt lat="43.868622" lon="5.421893"><ele>369.7</ele><time>2011-02-06T12:02:25Z</time></trkpt>
<trkpt lat="43.868897" lon="5.422060"><ele>369.6</ele><time>2011-02-06T12:02:30Z</time></trkpt>
<trkpt lat="43.869113" lon="5.422173"><ele>370.8</ele><time>2011-02-06T12:02:35Z</time></trkpt>
<trkpt lat="43.869293" lon="5.422418"><ele>369.5</ele><time>2011-02-06T12:02:40Z</time></trkpt>
<trkpt lat="43.869518" lon="5.422698"><ele>367.3</ele><time>2011-02-06T12:02:45Z</time></trkpt>
<trkpt lat="43.869823" lon="5.422540"><ele>364.5</ele><time>2011-02-06T12:02:50Z</time></trkpt>
<trkpt lat="43.870075" lon="5.422117"><ele>362.1</ele><time>2011-02-06T12:02:55Z</time></trkpt>
<trkpt lat="43.870167" lon="5.422185"><ele>360.6</ele><time>2011-02-06T12:03:00Z</time></trkpt>
<trkpt lat="43.870105" lon="5.422560"><ele>358.7</ele><time>2011-02-06T12:03:05Z</time></trkpt>
<trkpt lat="43.870137" lon="5.423012"><ele>357</ele><time>2011-02-06T12:03:10Z</time></trkpt>
<trkpt lat="43.870152" lon="5.423495"><ele>355.1</ele><time>2011-02-06T12:03:15Z</time></trkpt>
<trkpt lat="43.870353" lon="5.423917"><ele>352.9</ele><time>2011-02-06T12:03:20Z</time></trkpt>
<trkpt lat="43.870593" lon="5.424258"><ele>352.4</ele><time>2011-02-06T12:03:25Z</time></trkpt>
<trkpt lat="43.870803" lon="5.424520"><ele>352.6</ele><time>2011-02-06T12:03:30Z</time></trkpt>
<trkpt lat="43.870998" lon="5.424755"><ele>353.2</ele><time>2011-02-06T12:03:35Z</time></trkpt>
<trkpt lat="43.871235" lon="5.424867"><ele>352.2</ele><time>2011-02-06T12:03:40Z</time></trkpt>
<trkpt lat="43.871377" lon="5.424947"><ele>351</ele><time>2011-02-06T12:03:45Z</time></trkpt>
<trkpt lat="43.871372" lon="5.424947"><ele>350.8</ele><time>2011-02-06T12:03:50Z</time></trkpt>
<trkpt lat="43.871372" lon="5.424950"><ele>350.8</ele><time>2011-02-06T12:03:55Z</time></trkpt>
<trkpt lat="43.871448" lon="5.424965"><ele>349.8</ele><time>2011-02-06T12:04:00Z</time></trkpt>
<trkpt lat="43.871667" lon="5.425097"><ele>347.3</ele><time>2011-02-06T12:04:05Z</time></trkpt>
<trkpt lat="43.871987" lon="5.425383"><ele>343.1</ele><time>2011-02-06T12:04:10Z</time></trkpt>
<trkpt lat="43.872197" lon="5.425935"><ele>339.8</ele><time>2011-02-06T12:04:15Z</time></trkpt>
<trkpt lat="43.872395" lon="5.426432"><ele>337.9</ele><time>2011-02-06T12:04:20Z</time></trkpt>
<trkpt lat="43.872745" lon="5.426780"><ele>334.1</ele><time>2011-02-06T12:04:25Z</time></trkpt>
<trkpt lat="43.873082" lon="5.426988"><ele>331.9</ele><time>2011-02-06T12:04:30Z</time></trkpt>
<trkpt lat="43.873180" lon="5.426630"><ele>330.8</ele><time>2011-02-06T12:04:35Z</time></trkpt>
<trkpt lat="43.873188" lon="5.426137"><ele>328.6</ele><time>2011-02-06T12:04:40Z</time></trkpt>
<trkpt lat="43.873275" lon="5.425760"><ele>325.4</ele><time>2011-02-06T12:04:45Z</time></trkpt>
<trkpt lat="43.873645" lon="5.425845"><ele>321.6</ele><time>2011-02-06T12:04:50Z</time></trkpt>
<trkpt lat="43.874085" lon="5.425712"><ele>318.4</ele><time>2011-02-06T12:04:55Z</time></trkpt>
<trkpt lat="43.874500" lon="5.425447"><ele>315.1</ele><time>2011-02-06T12:05:00Z</time></trkpt>
<trkpt lat="43.874813" lon="5.425243"><ele>312</ele><time>2011-02-06T12:05:05Z</time></trkpt>
<trkpt lat="43.874938" lon="5.425130"><ele>310.8</ele><time>2011-02-06T12:05:10Z</time></trkpt>
<trkpt lat="43.874962" lon="5.424888"><ele>308.4</ele><time>2011-02-06T12:05:15Z</time></trkpt>
<trkpt lat="43.874997" lon="5.424565"><ele>306.4</ele><time>2011-02-06T12:05:20Z</time></trkpt>
<trkpt lat="43.875045" lon="5.424245"><ele>304.6</ele><time>2011-02-06T12:05:25Z</time></trkpt>
<trkpt lat="43.875092" lon="5.423925"><ele>303.5</ele><time>2011-02-06T12:05:30Z</time></trkpt>
<trkpt lat="43.875103" lon="5.423648"><ele>301.8</ele><time>2011-02-06T12:05:35Z</time></trkpt>
<trkpt lat="43.875127" lon="5.423397"><ele>300.8</ele><time>2011-02-06T12:05:40Z</time></trkpt>
<trkpt lat="43.875195" lon="5.423132"><ele>299</ele><time>2011-02-06T12:05:45Z</time></trkpt>
<trkpt lat="43.875282" lon="5.422872"><ele>297.1</ele><time>2011-02-06T12:05:50Z</time></trkpt>
<trkpt lat="43.875320" lon="5.422593"><ele>295.1</ele><time>2011-02-06T12:05:55Z</time></trkpt>
<trkpt lat="43.875355" lon="5.422322"><ele>292.6</ele><time>2011-02-06T12:06:00Z</time></trkpt>
<trkpt lat="43.875325" lon="5.422052"><ele>290.4</ele><time>2011-02-06T12:06:05Z</time></trkpt>
<trkpt lat="43.875255" lon="5.421760"><ele>287.6</ele><time>2011-02-06T12:06:10Z</time></trkpt>
<trkpt lat="43.875305" lon="5.421512"><ele>285.2</ele><time>2011-02-06T12:06:15Z</time></trkpt>
<trkpt lat="43.875335" lon="5.421220"><ele>283.4</ele><time>2011-02-06T12:06:20Z</time></trkpt>
<trkpt lat="43.875358" lon="5.420968"><ele>282.8</ele><time>2011-02-06T12:06:25Z</time></trkpt>
<trkpt lat="43.875465" lon="5.420752"><ele>283.5</ele><time>2011-02-06T12:06:30Z</time></trkpt>
<trkpt lat="43.875550" lon="5.420500"><ele>284.2</ele><time>2011-02-06T12:06:35Z</time></trkpt>
<trkpt lat="43.875613" lon="5.420205"><ele>285.7</ele><time>2011-02-06T12:06:40Z</time></trkpt>
<trkpt lat="43.875705" lon="5.419957"><ele>287.8</ele><time>2011-02-06T12:06:45Z</time></trkpt>
<trkpt lat="43.875758" lon="5.419705"><ele>287.9</ele><time>2011-02-06T12:06:50Z</time></trkpt>
<trkpt lat="43.875817" lon="5.419508"><ele>287.9</ele><time>2011-02-06T12:06:55Z</time></trkpt>
<trkpt lat="43.875870" lon="5.419248"><ele>289.5</ele><time>2011-02-06T12:07:00Z</time></trkpt>
<trkpt lat="43.875877" lon="5.418953"><ele>288.4</ele><time>2011-02-06T12:07:05Z</time></trkpt>
<trkpt lat="43.875870" lon="5.418648"><ele>284.9</ele><time>2011-02-06T12:07:10Z</time></trkpt>
<trkpt lat="43.875855" lon="5.418347"><ele>282.3</ele><time>2011-02-06T12:07:15Z</time></trkpt>
<trkpt lat="43.875808" lon="5.418042"><ele>280.1</ele><time>2011-02-06T12:07:20Z</time></trkpt>
<trkpt lat="43.875828" lon="5.417720"><ele>277.9</ele><time>2011-02-06T12:07:25Z</time></trkpt>
<trkpt lat="43.875897" lon="5.417427"><ele>276.1</ele><time>2011-02-06T12:07:30Z</time></trkpt>
<trkpt lat="43.875973" lon="5.417152"><ele>274.3</ele><time>2011-02-06T12:07:35Z</time></trkpt>
<trkpt lat="43.875995" lon="5.416848"><ele>272.6</ele><time>2011-02-06T12:07:40Z</time></trkpt>
<trkpt lat="43.875903" lon="5.416580"><ele>271.6</ele><time>2011-02-06T12:07:45Z</time></trkpt>
<trkpt lat="43.875802" lon="5.416295"><ele>270.8</ele><time>2011-02-06T12:07:50Z</time></trkpt>
<trkpt lat="43.875725" lon="5.415992"><ele>270.8</ele><time>2011-02-06T12:07:55Z</time></trkpt>
<trkpt lat="43.875763" lon="5.415727"><ele>271.5</ele><time>2011-02-06T12:08:00Z</time></trkpt>
<trkpt lat="43.875858" lon="5.415345"><ele>268.9</ele><time>2011-02-06T12:08:05Z</time></trkpt>
<trkpt lat="43.876027" lon="5.414955"><ele>267.1</ele><time>2011-02-06T12:08:10Z</time></trkpt>
<trkpt lat="43.876220" lon="5.414583"><ele>265.5</ele><time>2011-02-06T12:08:15Z</time></trkpt>
<trkpt lat="43.876362" lon="5.414208"><ele>264.5</ele><time>2011-02-06T12:08:20Z</time></trkpt>
<trkpt lat="43.876430" lon="5.413812"><ele>263</ele><time>2011-02-06T12:08:25Z</time></trkpt>
<trkpt lat="43.876415" lon="5.413405"><ele>261.2</ele><time>2011-02-06T12:08:30Z</time></trkpt>
<trkpt lat="43.876362" lon="5.412958"><ele>258</ele><time>2011-02-06T12:08:35Z</time></trkpt>
<trkpt lat="43.876507" lon="5.412497"><ele>254.3</ele><time>2011-02-06T12:08:40Z</time></trkpt>
<trkpt lat="43.876660" lon="5.412025"><ele>251.6</ele><time>2011-02-06T12:08:45Z</time></trkpt>
<trkpt lat="43.876785" lon="5.411565"><ele>250.2</ele><time>2011-02-06T12:08:50Z</time></trkpt>
<trkpt lat="43.876842" lon="5.411102"><ele>248.4</ele><time>2011-02-06T12:08:55Z</time></trkpt>
<trkpt lat="43.876880" lon="5.410613"><ele>246</ele><time>2011-02-06T12:09:00Z</time></trkpt>
<trkpt lat="43.876927" lon="5.410102"><ele>243.5</ele><time>2011-02-06T12:09:05Z</time></trkpt>
<trkpt lat="43.876980" lon="5.409763"><ele>240.8</ele><time>2011-02-06T12:09:10Z</time></trkpt>
<trkpt lat="43.877178" lon="5.409620"><ele>237.7</ele><time>2011-02-06T12:09:15Z</time></trkpt>
<trkpt lat="43.877293" lon="5.409623"><ele>236.4</ele><time>2011-02-06T12:09:20Z</time></trkpt>
<trkpt lat="43.877297" lon="5.409628"><ele>236.3</ele><time>2011-02-06T12:09:25Z</time></trkpt>
<trkpt lat="43.877297" lon="5.409632"><ele>236.2</ele><time>2011-02-06T12:09:30Z</time></trkpt>
<trkpt lat="43.877293" lon="5.409635"><ele>236.2</ele><time>2011-02-06T12:09:35Z</time></trkpt>
<trkpt lat="43.877327" lon="5.409613"><ele>236.2</ele><time>2011-02-06T12:09:40Z</time></trkpt>
<trkpt lat="43.877338" lon="5.409400"><ele>236</ele><time>2011-02-06T12:09:45Z</time></trkpt>
<trkpt lat="43.877288" lon="5.409108"><ele>235.7</ele><time>2011-02-06T12:09:50Z</time></trkpt>
<trkpt lat="43.877247" lon="5.408790"><ele>235.3</ele><time>2011-02-06T12:09:55Z</time></trkpt>
<trkpt lat="43.877202" lon="5.408460"><ele>235.1</ele><time>2011-02-06T12:10:00Z</time></trkpt>
<trkpt lat="43.877152" lon="5.408118"><ele>234.8</ele><time>2011-02-06T12:10:05Z</time></trkpt>
<trkpt lat="43.877102" lon="5.407767"><ele>234.5</ele><time>2011-02-06T12:10:10Z</time></trkpt>
<trkpt lat="43.877045" lon="5.407403"><ele>234.1</ele><time>2011-02-06T12:10:15Z</time></trkpt>
<trkpt lat="43.876983" lon="5.407020"><ele>233.9</ele><time>2011-02-06T12:10:20Z</time></trkpt>
<trkpt lat="43.876938" lon="5.406618"><ele>233.9</ele><time>2011-02-06T12:10:25Z</time></trkpt>
<trkpt lat="43.876865" lon="5.406215"><ele>233.2</ele><time>2011-02-06T12:10:30Z</time></trkpt>
<trkpt lat="43.876702" lon="5.405828"><ele>231.7</ele><time>2011-02-06T12:10:35Z</time></trkpt>
<trkpt lat="43.876495" lon="5.405447"><ele>230</ele><time>2011-02-06T12:10:40Z</time></trkpt>
<trkpt lat="43.876358" lon="5.405108"><ele>228.3</ele><time>2011-02-06T12:10:45Z</time></trkpt>
<trkpt lat="43.876175" lon="5.404762"><ele>226.8</ele><time>2011-02-06T12:10:50Z</time></trkpt>
<trkpt lat="43.876003" lon="5.404403"><ele>225.7</ele><time>2011-02-06T12:10:55Z</time></trkpt>
<trkpt lat="43.875820" lon="5.404047"><ele>225.3</ele><time>2011-02-06T12:11:00Z</time></trkpt>
<trkpt lat="43.875645" lon="5.403692"><ele>224.5</ele><time>2011-02-06T12:11:05Z</time></trkpt>
<trkpt lat="43.875465" lon="5.403342"><ele>223.9</ele><time>2011-02-06T12:11:10Z</time></trkpt>
<trkpt lat="43.875302" lon="5.403020"><ele>223.5</ele><time>2011-02-06T12:11:15Z</time></trkpt>
<trkpt lat="43.875210" lon="5.402828"><ele>223.2</ele><time>2011-02-06T12:11:20Z</time></trkpt>
<trkpt lat="43.875127" lon="5.402668"><ele>223.3</ele><time>2011-02-06T12:11:25Z</time></trkpt>
<trkpt lat="43.875003" lon="5.402445"><ele>223.2</ele><time>2011-02-06T12:11:30Z</time></trkpt>
<trkpt lat="43.874905" lon="5.402183"><ele>223.1</ele><time>2011-02-06T12:11:35Z</time></trkpt>
<trkpt lat="43.874825" lon="5.401888"><ele>223.4</ele><time>2011-02-06T12:11:40Z</time></trkpt>
<trkpt lat="43.874767" lon="5.401572"><ele>223.4</ele><time>2011-02-06T12:11:45Z</time></trkpt>
<trkpt lat="43.874802" lon="5.401260"><ele>223.5</ele><time>2011-02-06T12:11:50Z</time></trkpt>
<trkpt lat="43.874908" lon="5.401033"><ele>223.5</ele><time>2011-02-06T12:11:55Z</time></trkpt>
<trkpt lat="43.875062" lon="5.400902"><ele>223.4</ele><time>2011-02-06T12:12:00Z</time></trkpt>
<trkpt lat="43.875207" lon="5.400770"><ele>223.2</ele><time>2011-02-06T12:12:05Z</time></trkpt>
<trkpt lat="43.875222" lon="5.400530"><ele>223.6</ele><time>2011-02-06T12:12:10Z</time></trkpt>
<trkpt lat="43.875088" lon="5.400395"><ele>224</ele><time>2011-02-06T12:12:15Z</time></trkpt>
<trkpt lat="43.875053" lon="5.400385"><ele>224.1</ele><time>2011-02-06T12:12:20Z</time></trkpt>
<trkpt lat="43.875045" lon="5.400370"><ele>223.7</ele><time>2011-02-06T12:12:25Z</time></trkpt>
<trkpt lat="43.875062" lon="5.400325"><ele>224</ele><time>2011-02-06T12:12:30Z</time></trkpt>
<trkpt lat="43.875127" lon="5.400292"><ele>224.2</ele><time>2011-02-06T12:12:35Z</time></trkpt>
<trkpt lat="43.875207" lon="5.400205"><ele>224.5</ele><time>2011-02-06T12:12:40Z</time></trkpt>
<trkpt lat="43.875278" lon="5.400135"><ele>225</ele><time>2011-02-06T12:12:45Z</time></trkpt>
<trkpt lat="43.875290" lon="5.400133"><ele>225.3</ele><time>2011-02-06T12:12:50Z</time></trkpt>
<trkpt lat="43.875290" lon="5.400135"><ele>225.6</ele><time>2011-02-06T12:12:55Z</time></trkpt>
<trkpt lat="43.875287" lon="5.400153"><ele>226.7</ele><time>2011-02-06T12:13:00Z</time></trkpt>
<trkpt lat="43.875352" lon="5.400117"><ele>227.9</ele><time>2011-02-06T12:13:05Z</time></trkpt>
<trkpt lat="43.875450" lon="5.400058"><ele>227.9</ele><time>2011-02-06T12:13:10Z</time></trkpt>
<trkpt lat="43.875450" lon="5.400067"><ele>228.4</ele><time>2011-02-06T12:13:15Z</time></trkpt>
<trkpt lat="43.875447" lon="5.400070"><ele>228.7</ele><time>2011-02-06T12:13:20Z</time></trkpt>
<trkpt lat="43.875447" lon="5.400072"><ele>228.9</ele><time>2011-02-06T12:13:25Z</time></trkpt>
<trkpt lat="43.875447" lon="5.400072"><ele>229.1</ele><time>2011-02-06T12:13:30Z</time></trkpt>
<trkpt lat="43.875447" lon="5.400073"><ele>229.4</ele><time>2011-02-06T12:13:35Z</time></trkpt>
<trkpt lat="43.875485" lon="5.400050"><ele>229.9</ele><time>2011-02-06T12:13:40Z</time></trkpt>
<trkpt lat="43.875572" lon="5.399925"><ele>230.3</ele><time>2011-02-06T12:13:45Z</time></trkpt>
<trkpt lat="43.875613" lon="5.399732"><ele>231.3</ele><time>2011-02-06T12:13:50Z</time></trkpt>
<trkpt lat="43.875698" lon="5.399542"><ele>231.6</ele><time>2011-02-06T12:13:55Z</time></trkpt>
<trkpt lat="43.875713" lon="5.399473"><ele>233.1</ele><time>2011-02-06T12:14:00Z</time></trkpt>
<trkpt lat="43.875713" lon="5.399457"><ele>232.1</ele><time>2011-02-06T12:14:05Z</time></trkpt>
<trkpt lat="43.875698" lon="5.399468"><ele>232.2</ele><time>2011-02-06T12:14:10Z</time></trkpt>
<trkpt lat="43.875678" lon="5.399480"><ele>231.6</ele><time>2011-02-06T12:14:15Z</time></trkpt>
<trkpt lat="43.875663" lon="5.399410"><ele>230.8</ele><time>2011-02-06T12:14:20Z</time></trkpt>
<trkpt lat="43.875668" lon="5.399333"><ele>233.2</ele><time>2011-02-06T12:14:25Z</time></trkpt>
<trkpt lat="43.875698" lon="5.399268"><ele>235.4</ele><time>2011-02-06T12:14:30Z</time></trkpt>
<trkpt lat="43.875717" lon="5.399205"><ele>231.5</ele><time>2011-02-06T12:14:35Z</time></trkpt>
<trkpt lat="43.875740" lon="5.399178"><ele>229.4</ele><time>2011-02-06T12:14:40Z</time></trkpt>
<trkpt lat="43.875770" lon="5.399275"><ele>230.9</ele><time>2011-02-06T12:14:45Z</time></trkpt>
<trkpt lat="43.875817" lon="5.399388"><ele>233.9</ele><time>2011-02-06T12:14:50Z</time></trkpt>
<trkpt lat="43.875885" lon="5.399502"><ele>243.3</ele><time>2011-02-06T12:15:34Z</time></trkpt>
<trkpt lat="43.875950" lon="5.399560"><ele>251.6</ele><time>2011-02-06T12:15:39Z</time></trkpt>
<trkpt lat="43.876000" lon="5.399252"><ele>241.4</ele><time>2011-02-06T12:15:44Z</time></trkpt>
<trkpt lat="43.875973" lon="5.399118"><ele>245.9</ele><time>2011-02-06T12:15:49Z</time></trkpt>
<trkpt lat="43.875920" lon="5.399062"><ele>247.8</ele><time>2011-02-06T12:15:54Z</time></trkpt>
<trkpt lat="43.875942" lon="5.399160"><ele>247.5</ele><time>2011-02-06T12:15:59Z</time></trkpt>
<trkpt lat="43.875995" lon="5.399212"><ele>253.5</ele><time>2011-02-06T12:16:04Z</time></trkpt>
<trkpt lat="43.875973" lon="5.399248"><ele>253</ele><time>2011-02-06T12:16:09Z</time></trkpt>
<trkpt lat="43.875977" lon="5.399217"><ele>248.9</ele><time>2011-02-06T12:16:14Z</time></trkpt>
<trkpt lat="43.875973" lon="5.399187"><ele>249.5</ele><time>2011-02-06T12:16:19Z</time></trkpt>
<trkpt lat="43.875973" lon="5.399195"><ele>249.7</ele><time>2011-02-06T12:16:24Z</time></trkpt>
<trkpt lat="43.875973" lon="5.399213"><ele>250.5</ele><time>2011-02-06T12:16:29Z</time></trkpt>
<trkpt lat="43.875965" lon="5.399232"><ele>248.1</ele><time>2011-02-06T12:16:34Z</time></trkpt>
<trkpt lat="43.875977" lon="5.399212"><ele>247</ele><time>2011-02-06T12:16:39Z</time></trkpt>
<trkpt lat="43.875980" lon="5.399208"><ele>244.6</ele><time>2011-02-06T12:16:44Z</time></trkpt>
<trkpt lat="43.875992" lon="5.399203"><ele>245.2</ele><time>2011-02-06T12:16:49Z</time></trkpt>
<trkpt lat="43.875977" lon="5.399232"><ele>243</ele><time>2011-02-06T12:16:54Z</time></trkpt>
<trkpt lat="43.875988" lon="5.399233"><ele>242.9</ele><time>2011-02-06T12:16:59Z</time></trkpt>
<trkpt lat="43.875992" lon="5.399252"><ele>244.7</ele><time>2011-02-06T12:17:04Z</time></trkpt>
<trkpt lat="43.875992" lon="5.399268"><ele>243.6</ele><time>2011-02-06T12:17:09Z</time></trkpt>
<trkpt lat="43.876007" lon="5.399282"><ele>242.8</ele><time>2011-02-06T12:17:14Z</time></trkpt>
<trkpt lat="43.876003" lon="5.399273"><ele>242.7</ele><time>2011-02-06T12:17:19Z</time></trkpt>
<trkpt lat="43.875988" lon="5.399270"><ele>240.3</ele><time>2011-02-06T12:17:24Z</time></trkpt>
<trkpt lat="43.876003" lon="5.399273"><ele>239.6</ele><time>2011-02-06T12:17:29Z</time></trkpt>
<trkpt lat="43.875995" lon="5.399260"><ele>241.6</ele><time>2011-02-06T12:17:34Z</time></trkpt>
<trkpt lat="43.876007" lon="5.399253"><ele>244.3</ele><time>2011-02-06T12:17:39Z</time></trkpt>
<trkpt lat="43.876018" lon="5.399270"><ele>246.1</ele><time>2011-02-06T12:17:44Z</time></trkpt>
<trkpt lat="43.875988" lon="5.399273"><ele>245.5</ele><time>2011-02-06T12:17:49Z</time></trkpt>
<trkpt lat="43.875973" lon="5.399338"><ele>243.7</ele><time>2011-02-06T12:17:54Z</time></trkpt>
<trkpt lat="43.875927" lon="5.399463"><ele>241</ele><time>2011-02-06T12:17:59Z</time></trkpt>
<trkpt lat="43.875855" lon="5.399550"><ele>240.5</ele><time>2011-02-06T12:18:04Z</time></trkpt>
<trkpt lat="43.875840" lon="5.399202"><ele>238.6</ele><time>2011-02-06T12:18:10Z</time></trkpt>
<trkpt lat="43.875840" lon="5.399165"><ele>237.7</ele><time>2011-02-06T12:18:17Z</time></trkpt>
<trkpt lat="43.875820" lon="5.399292"><ele>245.1</ele><time>2011-02-06T12:18:22Z</time></trkpt>
<trkpt lat="43.875743" lon="5.399370"><ele>246.3</ele><time>2011-02-06T12:18:27Z</time></trkpt>
<trkpt lat="43.875690" lon="5.399337"><ele>244.5</ele><time>2011-02-06T12:18:36Z</time></trkpt>
<trkpt lat="43.876942" lon="5.398247"><ele>238.3</ele><time>2011-02-06T12:18:53Z</time></trkpt>
<trkpt lat="43.877182" lon="5.398010"><ele>238.1</ele><time>2011-02-06T12:18:58Z</time></trkpt>
<trkpt lat="43.875927" lon="5.399082"><ele>227.1</ele><time>2011-02-06T12:19:45Z</time></trkpt>
<trkpt lat="43.875485" lon="5.399248"><ele>226.3</ele><time>2011-02-06T12:19:50Z</time></trkpt>
<trkpt lat="43.875797" lon="5.399175"><ele>191.5</ele><time>2011-02-06T12:20:07Z</time></trkpt>
</trkseg></trk></gpx>